[[{"header":{"parameterUnit":"m.s-1","parameterCategory":1,"la1":30.6,"la2":29.2853,"lo1":-89.7004,"lo2":-87.6739,"dy":0.0162,"dx":0.0183,"nx":112,"ny":82,"refTime":"2023-09-22T18:00:00:Z","depth":0,"parameterNumber":2,"parameterNumberName":"U-component_of_WINDS"},"data":[0.0,0.0,0.0,0.0,0.0,0.0,0.0,0.0,0.0,0.0,0.0,0.0,0.0,0.0,0.0,0.0,0.0,0.0,0.0,0.0,0.0,0.0,0.0,0.0,0.0,0.0,0.0,0.0,0.0,0.0,0.0,0.0,0.0,0.0,0.0,0.0,0.0,0.0,0.0,0.0,0.0,0.0,0.0,0.0,0.0,0.0,0.0,0.0,0.0,0.0,0.0,0.0,0.0,0.0,0.0,0.0,0.0,0.0,0.0,0.0,0.0,0.0,0.0,0.0,0.0,0.0,0.0,0.0,0.0,0.0,0.0,0.0,0.0,0.0,0.0,0.0,0.0,0.0,0.0,0.0,0.0,0.0,0.0,0.0,0.0,0.0,0.0,0.0,0.0,0.0,1.4516,1.4183,1.5308,1.6039,1.5846,1.5906,1.5415,1.4079,0.0,0.0,0.0,0.0,0.0,0.0,0.0,0.0,0.0,0.0,0.0,0.0,0.0,0.0,0.0,0.0,0.0,0.0,0.0,0.0,0.0,0.0,0.0,0.0,0.0,0.0,0.0,0.0,0.0,0.0,0.0,0.0,0.0,0.0,0.0,0.0,0.0,0.0,0.0,0.0,0.0,0.0,0.0,0.0,0.0,0.0,0.0,0.0,0.0,0.0,0.0,0.0,0.0,0.0,0.0,0.0,0.0,0.0,0.0,0.0,0.0,0.0,0.0,0.0,0.0,0.0,0.0,0.0,0.0,0.0,0.0,0.0,0.0,0.0,0.0,0.0,0.0,0.0,0.0,0.0,0.0,0.0,0.0,0.0,0.0,0.0,0.0,0.0,0.0,0.0,0.0,0.0,0.0,0.0,0.0,0.0,0.0,0.0,0.0,0.0,0.0,0.0,0.0,0.0,1.4382,1.5542,1.6701,1.7045,1.6125,1.6482,1.6186,1.4903,0.0,0.0,0.0,0.0,0.0,0.0,0.0,0.0,0.0,0.0,0.0,0.0,0.0,0.0,0.0,0.0,0.0,0.0,0.0,0.0,0.0,0.0,0.0,0.0,0.0,0.0,0.0,0.0,0.0,0.0,0.0,0.0,0.0,0.0,0.0,0.0,0.0,0.0,0.0,0.0,0.0,0.0,0.0,0.0,0.0,0.0,0.0,0.0,0.0,0.0,0.0,0.0,0.0,0.0,0.0,0.0,0.0,0.0,0.0,0.0,0.0,0.0,0.0,0.0,0.0,0.0,0.0,0.0,0.0,0.0,0.0,0.0,0.0,0.0,0.0,0.0,0.0,0.0,0.0,0.0,0.0,0.0,0.0,0.0,0.0,0.0,0.0,0.0,0.0,0.0,0.0,0.0,0.0,0.0,0.0,0.0,0.0,0.0,0.0,0.0,0.0,0.0,0.0,1.4902,1.54,1.6802,1.7406,1.7372,1.6578,1.6766,1.6227,1.4711,1.3993,0.0,0.0,0.0,0.0,0.0,0.0,0.0,0.0,0.0,0.0,0.0,0.0,0.0,0.0,0.0,0.0,0.0,0.0,0.0,0.0,0.0,0.0,0.0,0.0,0.0,0.0,0.0,0.0,0.0,0.0,0.0,0.0,0.0,0.0,0.0,0.0,0.0,0.0,0.0,0.0,0.0,0.0,0.0,0.0,0.0,0.0,0.0,0.0,0.0,0.0,0.0,0.0,0.0,0.0,0.0,0.0,0.0,0.0,0.0,0.0,0.0,0.0,0.0,0.0,0.0,0.0,0.0,0.0,0.0,0.0,0.0,0.0,0.0,0.0,0.0,0.0,0.0,0.0,0.0,0.0,0.0,0.0,0.0,0.0,0.0,0.0,0.0,0.0,0.0,0.0,0.0,0.0,0.0,0.0,0.0,0.0,0.0,0.0,0.0,0.0,0.0,0.0,1.6184,1.6442,1.7272,1.7622,1.7522,1.687,1.6906,1.6306,1.4681,1.4399,0.0,0.0,0.0,0.0,0.0,0.0,0.0,0.0,0.0,0.0,0.0,0.0,0.0,0.0,0.0,0.0,0.0,0.0,0.0,0.0,0.0,0.0,0.0,0.0,0.0,0.0,0.0,0.0,0.0,0.0,0.0,0.0,0.0,0.0,0.0,0.0,0.0,0.0,0.0,0.0,0.0,0.0,0.0,0.0,0.0,0.0,0.0,0.0,0.0,0.0,0.0,0.0,0.0,0.0,0.0,0.0,0.0,0.0,0.0,0.0,0.0,0.0,0.0,0.0,0.0,0.0,0.0,0.0,0.0,0.0,0.0,0.0,0.0,0.0,0.0,0.0,0.0,0.0,0.0,0.0,0.0,0.0,0.0,0.0,0.0,0.0,0.0,0.0,0.0,0.0,0.0,0.0,0.0,0.0,0.0,0.0,0.0,0.0,0.0,0.0,0.0,0.0,1.6249,1.6855,1.6453,1.7404,1.7651,1.6638,1.6988,1.6731,1.5507,1.5404,0.0,0.0,0.0,0.0,0.0,0.0,0.0,0.0,0.0,0.0,0.0,0.0,0.0,0.0,0.0,0.0,0.0,0.0,0.0,0.0,0.0,0.0,0.0,0.0,0.0,0.0,0.0,0.0,0.0,0.0,0.0,0.0,0.0,0.0,0.0,0.0,0.0,0.0,0.0,0.0,0.0,0.0,0.0,0.0,0.0,0.0,0.0,0.0,0.0,0.0,0.0,0.0,0.0,0.0,0.0,0.0,0.0,0.0,0.0,0.0,0.0,0.0,0.0,0.0,0.0,0.0,0.0,0.0,0.0,0.0,0.0,0.0,0.0,0.0,0.0,0.0,0.0,0.0,0.0,0.0,0.0,0.0,0.0,0.0,0.0,0.0,0.0,0.0,0.0,0.0,0.0,0.0,0.0,0.0,0.0,0.0,0.0,0.0,0.0,0.0,0.0,0.0,1.6725,1.7194,1.7407,1.785,1.7787,1.7076,1.7188,1.6663,1.5235,0.0,0.0,0.0,0.0,0.0,0.0,0.0,0.0,0.0,0.0,0.0,0.0,0.0,0.0,0.0,0.0,0.0,0.0,0.0,0.0,0.0,0.0,0.0,0.0,0.0,0.0,0.0,0.0,0.0,0.0,0.0,0.0,0.0,0.0,0.0,0.0,0.0,0.0,0.0,0.0,0.0,0.0,0.0,0.0,0.0,0.0,0.0,0.0,0.0,0.0,0.0,0.0,0.0,0.0,0.0,0.0,0.0,0.0,0.0,0.0,0.0,0.0,0.0,0.0,0.0,0.0,0.0,0.0,0.0,0.0,0.0,0.0,0.0,0.0,0.0,0.0,0.0,0.0,0.0,0.0,0.0,0.0,0.0,0.0,0.0,0.0,0.0,0.0,0.0,0.0,0.0,0.0,0.0,0.0,0.0,0.0,0.0,0.0,0.0,0.0,0.0,0.0,1.6194,1.6739,1.7063,1.7545,1.7585,1.7422,1.7076,1.7034,1.6432,1.4979,0.0,0.0,0.0,0.0,0.0,0.0,0.0,0.0,0.0,0.0,0.0,0.0,0.0,0.0,0.0,0.0,0.0,0.0,0.0,0.0,0.0,0.0,0.0,0.0,0.0,0.0,0.0,0.0,0.0,0.0,0.0,0.0,0.0,0.0,0.0,0.0,0.0,0.0,0.0,0.0,0.0,0.0,0.0,0.0,0.0,0.0,0.0,0.0,0.0,0.0,0.0,0.0,0.0,0.0,0.0,0.0,0.0,0.0,0.0,0.0,0.0,0.0,0.0,0.0,0.0,0.0,0.0,0.0,0.0,0.0,0.0,0.0,0.0,0.0,0.0,0.0,0.0,0.0,0.0,0.0,0.0,0.0,0.0,0.0,0.0,0.0,0.0,0.0,0.0,0.0,0.0,0.0,0.0,0.0,0.0,0.0,0.0,0.0,0.0,0.0,0.0,0.0,1.5328,1.6105,1.6522,1.6522,1.6522,1.6522,1.6522,1.6522,1.6045,0.0,0.0,0.0,0.0,0.0,0.0,0.0,0.0,0.0,0.0,0.0,0.0,0.0,0.0,0.0,0.0,0.0,0.0,0.0,0.0,0.0,0.0,0.0,0.0,0.0,0.0,0.0,0.0,0.0,0.0,0.0,0.0,0.0,0.0,0.0,0.0,0.0,0.0,0.0,0.0,0.0,0.0,0.0,0.0,0.0,0.0,0.0,0.0,0.0,0.0,0.0,0.0,0.0,0.0,0.0,0.0,0.0,0.0,0.0,0.0,0.0,0.0,0.0,0.0,0.0,0.0,0.0,0.0,0.0,0.0,0.0,0.0,0.0,0.0,0.0,0.0,0.0,0.0,0.0,0.0,0.0,0.0,0.0,0.0,0.0,0.0,0.0,0.0,0.0,0.0,0.0,0.0,0.0,0.0,0.0,0.0,0.0,0.0,0.0,0.0,0.0,0.0,0.0,1.5304,1.6105,1.6522,1.6522,1.6522,1.6522,1.6522,1.6522,1.6045,1.4979,0.0,0.0,0.0,0.0,0.0,0.0,0.0,0.0,0.0,0.0,0.0,0.0,0.0,0.0,0.0,0.0,0.0,0.0,0.0,0.0,0.0,0.0,0.0,0.0,0.0,0.0,0.0,0.0,0.0,0.0,0.0,0.0,0.0,0.0,0.0,0.0,0.0,0.0,0.0,0.0,0.0,0.0,0.0,0.0,0.0,0.0,0.0,0.0,0.0,0.0,0.0,0.0,0.0,0.0,0.0,0.0,0.0,0.0,0.0,0.0,0.0,0.0,0.0,0.0,0.0,0.0,0.0,0.0,0.0,0.0,0.0,0.0,0.0,0.0,0.0,0.0,0.0,0.0,0.0,0.0,0.0,0.0,0.0,0.0,0.0,0.0,0.0,0.0,0.0,0.0,0.0,0.0,0.0,0.0,0.0,0.0,0.0,0.0,0.0,0.0,0.0,0.0,1.5351,1.6325,1.6948,1.7174,1.7187,1.7187,1.7187,1.7187,1.681,1.5973,0.0,0.0,0.0,0.0,0.0,0.0,0.0,0.0,0.0,0.0,0.0,0.0,0.0,0.0,0.0,0.0,0.0,0.0,0.0,0.0,0.0,0.0,0.0,0.0,0.0,0.0,0.0,0.0,0.0,0.0,0.0,0.0,0.0,0.0,0.0,0.0,0.0,0.0,0.0,0.0,0.0,0.0,0.0,0.0,0.0,0.0,0.0,0.0,0.0,0.0,0.0,0.0,0.0,0.0,0.0,0.0,0.0,0.0,0.0,0.0,0.0,0.0,0.0,0.0,0.0,0.0,0.0,0.0,0.0,0.0,0.0,0.0,0.0,0.0,0.0,0.0,0.0,0.0,0.0,0.0,0.0,0.0,0.0,0.0,0.0,0.0,0.0,0.0,0.0,0.0,0.0,0.0,0.0,0.0,0.0,0.0,0.0,0.0,0.0,0.0,0.0,0.0,1.5505,1.6722,1.7652,1.8154,1.8204,1.8204,1.8204,1.8204,1.7965,1.7413,0.0,0.0,0.0,0.0,0.0,0.0,0.0,0.0,0.0,0.0,0.0,0.0,0.0,0.0,0.0,0.0,0.0,0.0,0.0,0.0,0.0,0.0,0.0,0.0,0.0,0.0,0.0,0.0,0.0,0.0,0.0,0.0,0.0,0.0,0.0,0.0,0.0,0.0,0.0,0.0,0.0,0.0,0.0,0.0,0.0,0.0,0.0,0.0,0.0,0.0,0.0,0.0,0.0,0.0,0.0,0.0,0.0,0.0,0.0,0.0,1.5456,0.0,0.0,0.0,0.0,0.0,0.0,0.0,0.0,0.0,0.0,0.0,0.0,0.0,0.0,0.0,0.0,0.0,0.0,0.0,0.0,0.0,0.0,0.0,0.0,0.0,0.0,0.0,0.0,0.0,0.0,0.0,0.0,0.0,0.0,0.0,0.0,0.0,0.0,0.0,0.0,0.0,1.5593,1.7061,1.8078,1.8191,1.8204,1.8204,1.8204,1.8204,1.7965,1.7413,1.6622,0.0,0.0,0.0,0.0,0.0,0.0,0.0,0.0,0.0,0.0,0.0,0.0,0.0,0.0,0.0,0.0,0.0,0.0,0.0,0.0,0.0,0.0,0.0,0.0,0.0,0.0,0.0,0.0,0.0,0.0,0.0,0.0,0.0,0.0,0.0,0.0,0.0,0.0,0.0,0.0,0.0,0.0,0.0,0.0,0.0,0.0,0.0,0.0,0.0,0.0,0.0,0.0,0.0,0.0,0.0,0.0,0.0,0.0,0.0,0.0,1.5421,0.0,0.0,0.0,0.0,0.0,0.0,0.0,0.0,0.0,0.0,0.0,0.0,0.0,0.0,0.0,0.0,0.0,0.0,0.0,0.0,0.0,0.0,0.0,0.0,0.0,0.0,0.0,0.0,0.0,0.0,0.0,0.0,0.0,0.0,0.0,0.0,0.0,0.0,0.0,0.0,1.5982,1.7564,1.8694,1.8945,1.897,1.8821,1.846,1.8448,1.8176,1.7549,1.6741,0.0,0.0,0.0,0.0,0.0,0.0,0.0,0.0,0.0,0.0,0.0,0.0,0.0,0.0,0.0,0.0,0.0,0.0,0.0,0.0,0.0,0.0,0.0,0.0,0.0,0.0,0.0,0.0,0.0,0.0,0.0,0.0,0.0,0.0,0.0,0.0,0.0,0.0,0.0,0.0,0.0,0.0,0.0,0.0,0.0,0.0,0.0,0.0,0.0,0.0,0.0,0.0,0.0,1.837,1.8484,1.8827,1.8909,1.9351,1.9955,1.8065,1.7138,1.6918,1.5289,0.0,0.0,0.0,0.0,0.0,0.0,0.0,0.0,0.0,0.0,0.0,0.0,0.0,0.0,0.0,0.0,0.0,0.0,0.0,0.0,0.0,0.0,1.7384,1.7427,1.7796,1.7868,1.6711,0.0,0.0,0.0,0.0,0.0,0.0,0.0,0.0,0.0,0.0,0.0,1.6473,1.7989,1.9057,1.9374,1.9423,1.915,1.8555,1.8501,1.8232,1.7633,1.6766,1.6192,0.0,0.0,0.0,0.0,0.0,0.0,0.0,0.0,0.0,0.0,0.0,0.0,0.0,0.0,0.0,0.0,0.0,0.0,0.0,0.0,0.0,0.0,0.0,0.0,0.0,0.0,0.0,0.0,0.0,0.0,0.0,0.0,1.6076,1.6076,0.0,0.0,0.0,0.0,0.0,0.0,0.0,0.0,0.0,0.0,0.0,0.0,0.0,1.8172,1.8913,1.9125,1.9505,2.0085,2.0265,2.0671,2.1323,2.1794,2.1985,2.1926,2.1482,0.0,1.8269,1.7456,0.0,0.0,0.0,0.0,0.0,0.0,0.0,0.0,0.0,0.0,0.0,0.0,0.0,0.0,0.0,0.0,0.0,0.0,0.0,0.0,0.0,0.0,1.9347,1.9475,1.9195,1.8681,1.8053,1.7467,1.7006,1.6808,1.6057,1.5244,0.0,0.0,0.0,0.0,0.0,0.0,1.6967,1.8032,1.8537,1.795,1.7907,1.7852,1.7743,1.7743,1.7677,1.7633,1.7455,1.6944,1.6047,1.5942,0.0,0.0,0.0,0.0,0.0,0.0,0.0,0.0,0.0,0.0,0.0,0.0,0.0,0.0,0.0,0.0,0.0,0.0,0.0,0.0,0.0,0.0,0.0,0.0,0.0,0.0,0.0,0.0,0.0,1.5803,1.6043,1.6933,1.6727,1.6406,0.0,0.0,0.0,0.0,0.0,0.0,0.0,0.0,0.0,1.9009,1.9932,2.0798,2.1557,2.1378,2.1963,2.3326,2.2778,2.3111,2.4249,2.4173,2.4138,2.4122,2.3672,2.2915,2.1789,1.9425,1.8189,1.7757,0.0,0.0,0.0,0.0,1.795,1.813,1.8745,1.8827,1.8736,1.9038,0.0,0.0,0.0,0.0,0.0,0.0,0.0,1.8962,1.9551,1.9469,1.928,1.9398,1.9179,1.8945,1.8717,1.8649,1.8372,1.7485,1.6675,1.5881,1.5054,1.4848,0.0,0.0,0.0,1.6301,1.6459,1.7438,1.7961,1.7622,1.7578,1.7413,1.7034,1.6978,1.681,1.6415,1.6358,1.6182,1.5667,1.5479,1.4978,0.0,0.0,0.0,0.0,0.0,0.0,0.0,0.0,0.0,0.0,0.0,0.0,0.0,0.0,0.0,0.0,0.0,0.0,0.0,0.0,0.0,0.0,0.0,0.0,0.0,0.0,0.0,0.0,1.6536,1.6881,1.8376,1.7914,1.7537,0.0,0.0,0.0,0.0,0.0,0.0,1.9499,2.0586,2.1164,2.1105,2.2445,2.3511,2.4239,2.39,2.4597,2.6235,2.5115,2.5187,2.624,2.5777,2.5604,2.5585,2.5213,2.4957,2.4612,2.1371,1.9969,1.9844,1.9369,1.9468,1.9909,1.9986,2.0193,2.0527,2.1109,2.1145,2.0961,2.0961,2.1076,2.1095,2.0498,0.0,0.0,0.0,0.0,1.9796,2.0117,1.9684,1.9206,1.9416,1.9346,1.9221,1.9221,1.9422,1.9284,1.8204,1.7652,1.6954,1.5686,1.5668,0.0,1.4529,1.5272,1.6052,1.6099,1.6808,1.7246,1.7079,1.7024,1.68,1.6265,1.6208,1.5979,1.541,1.541,1.541,1.541,1.5184,1.4938,1.4714,0.0,0.0,0.0,0.0,0.0,0.0,0.0,0.0,0.0,0.0,0.0,0.0,0.0,0.0,0.0,0.0,0.0,0.0,0.0,0.0,0.0,0.0,0.0,0.0,0.0,0.0,0.0,0.0,0.0,2.0705,2.046,0.0,0.0,0.0,0.0,2.0552,2.1231,2.1888,2.2453,2.3212,2.3522,2.3253,2.4661,2.5795,2.6522,2.6759,2.7267,2.8048,2.691,2.6399,2.6476,2.6404,2.6092,2.5615,2.6092,2.6031,2.539,2.3368,2.2339,2.198,2.1311,2.0895,2.0681,2.1011,2.1132,2.1197,2.1551,2.165,2.165,2.165,2.1455,2.1151,2.076,2.044,0.0,0.0,2.0182,1.9979,2.1255,2.0667,1.9908,2.0571,2.0231,1.9761,1.9761,1.9397,1.9196,1.9597,1.966,1.907,1.7278,0.0,1.6758,1.602,1.5947,1.614,1.6416,1.6518,1.6322,1.5584,1.5517,1.5526,1.5468,1.5468,1.5468,1.541,1.541,1.541,1.541,1.5371,1.4971,1.415,1.4135,0.0,0.0,0.0,0.0,0.0,0.0,0.0,0.0,0.0,0.0,0.0,0.0,0.0,0.0,0.0,0.0,0.0,0.0,0.0,0.0,0.0,0.0,0.0,0.0,0.0,0.0,0.0,0.0,2.1454,2.176,0.0,2.1826,2.2335,2.2695,2.2695,2.3227,2.3859,2.4539,2.5258,2.5824,2.6234,2.7249,2.7892,2.8163,2.7944,2.8157,2.881,2.8078,2.7769,2.7783,2.7783,2.7422,2.692,2.7101,2.7052,2.6782,2.5659,2.4897,2.4339,2.4098,2.3985,2.3872,2.4003,2.4051,2.4038,2.4162,2.4208,2.4208,2.4208,2.4131,2.4008,2.3908,2.3771,2.3606,2.3259,2.2987,2.2705,2.2273,2.1792,2.1459,2.1311,2.104,2.0891,2.0891,2.074,2.0445,1.9775,1.9061,1.8244,1.7276,1.6899,1.6374,1.5456,1.5506,1.566,1.5766,1.5806,1.569,1.541,1.541,1.541,1.541,1.541,1.541,1.541,1.541,1.541,1.541,1.541,1.5264,1.4961,1.4961,1.4375,0.0,0.0,0.0,0.0,0.0,0.0,0.0,0.0,0.0,0.0,0.0,0.0,0.0,0.0,0.0,0.0,0.0,0.0,0.0,0.0,0.0,0.0,0.0,0.0,0.0,0.0,2.1596,2.2951,2.344,2.3788,2.4034,2.4729,2.5141,2.5141,2.5703,2.6218,2.6725,2.7199,2.7689,2.8197,2.8958,2.9272,2.9051,2.9154,2.9347,2.9568,2.899,2.8764,2.8779,2.8367,2.8008,2.7625,2.7625,2.7625,2.7595,2.7096,2.6662,2.6228,2.5779,2.5615,2.5615,2.5615,2.5615,2.5615,2.5615,2.5615,2.5615,2.5615,2.5615,2.5615,2.5615,2.5458,2.5143,2.463,2.417,2.3598,2.2618,2.2268,2.2008,2.1592,2.1493,2.1425,2.1119,2.1063,2.0726,1.9561,1.8908,1.8142,1.71,1.6667,1.6171,1.5188,1.5266,1.541,1.541,1.541,1.541,1.541,1.541,1.541,1.541,1.5283,1.5264,1.54,1.5283,1.5264,1.54,1.5273,1.5127,1.498,1.498,1.4424,1.3301,0.0,0.0,0.0,0.0,0.0,0.0,0.0,0.0,0.0,0.0,0.0,0.0,0.0,0.0,0.0,0.0,0.0,0.0,0.0,0.0,0.0,0.0,0.0,2.1943,2.2442,2.351,2.5314,2.5635,2.5822,2.6148,2.7197,2.7823,2.7823,2.8552,2.8991,2.9008,2.9008,2.9025,2.9096,2.9753,2.9822,2.9239,3.0566,3.0878,3.0251,2.9673,2.9406,2.9316,2.8174,2.7625,2.7625,2.7625,2.7625,2.7625,2.7625,2.7625,2.744,2.6168,2.5674,2.5674,2.5674,2.5674,2.5674,2.5674,2.5674,2.5674,2.5674,2.5674,2.5674,2.5627,2.5106,2.454,2.449,2.3499,2.2469,2.2415,2.2005,2.1543,2.1543,2.1543,2.1294,2.0459,2.0274,1.9971,1.9063,1.9275,1.8892,1.6892,1.6534,1.6249,1.5566,1.5449,0.0,1.5449,1.5449,1.5449,1.543,1.543,1.543,1.543,1.5059,1.5,1.5362,1.5068,1.5029,1.5371,1.5059,1.4648,1.4165,1.4136,1.4116,1.4116,0.0,0.0,0.0,0.0,0.0,0.0,0.0,0.0,0.0,0.0,0.0,0.0,0.0,0.0,0.0,0.0,0.0,0.0,0.0,0.0,0.0,0.0,2.296,2.2531,2.4276,2.58,2.6304,2.7369,2.808,2.8185,2.8488,2.867,2.867,2.8856,2.9211,2.977,2.9803,3.004,3.0565,3.0784,3.0616,2.9996,3.0778,3.0477,2.8996,2.9717,2.9345,2.8076,2.8174,2.7993,2.7625,2.7625,2.7625,2.7625,2.7625,2.7625,2.758,2.7171,2.7036,2.7036,2.7036,2.7036,2.7036,2.7036,2.7036,2.7036,2.7036,2.7036,2.6922,2.6404,2.6081,2.5716,2.4682,2.4086,2.3633,2.307,2.2791,2.2686,2.2686,2.2686,2.2437,2.1632,2.1437,2.0892,1.9035,1.88,1.8563,1.762,1.7022,1.6552,1.6367,1.6367,1.6367,1.6367,1.6367,1.624,1.5918,1.5889,1.5889,1.5889,1.5841,1.5638,1.5357,1.5871,1.5923,1.5376,1.5871,1.6143,1.5965,1.5381,1.5059,0.0,0.0,0.0,0.0,0.0,0.0,0.0,0.0,0.0,0.0,0.0,0.0,0.0,0.0,0.0,0.0,0.0,0.0,0.0,0.0,0.0,0.0,2.4003,2.4672,2.4394,2.572,2.6928,2.7571,2.8721,2.9448,2.9448,2.9736,2.9905,2.9905,2.9905,3.0015,3.0185,3.0432,3.0634,3.0821,3.0821,3.0658,3.0293,3.0393,2.9935,2.8873,2.9316,2.8996,2.7993,2.8091,2.7944,2.7625,2.7625,2.7625,2.7625,2.7625,2.7625,2.7625,0.0,0.0,0.0,0.0,2.7625,2.7575,2.7255,2.7137,2.7086,2.6759,2.6692,2.6587,2.6176,2.5837,2.5398,2.4509,2.406,2.3708,2.3185,2.3078,2.3078,2.3078,2.2823,2.2384,2.1553,2.1049,2.0309,1.8702,1.8324,0.0,1.7924,1.7209,1.6665,1.6665,1.6665,1.6665,1.6665,1.6665,1.6432,1.5841,1.5751,1.5626,1.5241,1.5023,0.0,0.0,0.0,1.496,1.4431,1.5186,0.0,0.0,0.0,1.4796,1.4762,1.424,0.0,0.0,1.346,1.3465,0.0,0.0,0.0,0.0,0.0,0.0,0.0,0.0,0.0,0.0,0.0,0.0,0.0,0.0,0.0,0.0,2.5558,2.6979,2.7063,2.708,2.7588,2.8941,2.9786,3.0226,3.0226,3.0818,3.119,3.119,3.1151,3.0878,3.0435,0.0,0.0,0.0,0.0,3.0166,3.0123,2.9629,2.9316,2.918,2.8732,2.8463,2.8367,2.7845,2.7625,2.7625,2.7625,2.7625,2.7625,2.7625,2.756,2.7458,2.7575,2.7625,2.7625,2.7625,2.7625,2.7509,2.6774,0.0,0.0,2.5618,2.5398,2.5398,2.5287,2.4851,2.4292,2.4176,2.3662,2.3078,2.3078,2.3078,2.3078,2.3017,2.2445,2.1616,2.0655,1.9814,1.9044,1.8134,1.8008,1.794,1.7862,1.7176,1.6674,1.6674,1.661,1.6536,1.6536,1.6536,1.6186,1.5328,1.5189,0.0,1.4015,1.3591,1.3502,1.3856,1.3517,1.334,1.3405,1.3851,1.3896,1.3461,1.3905,1.413,1.4081,1.4081,1.4081,1.4048,1.322,1.3269,0.0,0.0,0.0,0.0,0.0,0.0,0.0,0.0,0.0,0.0,0.0,0.0,0.0,0.0,0.0,2.593,2.7452,2.8755,2.9364,2.9448,2.9567,2.9854,3.0531,3.0987,3.0987,3.1106,3.119,3.119,3.074,3.0658,3.1015,3.0208,2.9935,3.0293,2.9805,2.9316,2.8873,2.9225,2.8904,2.7944,0.0,0.0,2.776,2.766,2.7625,2.7625,2.7625,2.7625,2.7625,2.7625,2.7255,2.6774,2.7357,2.7625,2.7625,2.7625,2.7625,2.7509,2.6774,2.651,2.6404,2.5618,2.5398,2.5287,2.4681,2.4408,0.0,2.3543,2.3185,2.3078,2.3078,2.3078,2.2944,2.2322,2.2002,2.1491,1.9879,1.9431,1.9044,1.8134,1.8008,1.7794,1.7001,1.6725,1.6624,1.6624,1.5998,1.5514,1.5514,1.5514,1.5265,1.468,1.4647,1.4579,1.4375,1.4318,1.409,1.3742,1.3633,1.3948,1.478,1.4922,1.4913,1.4849,1.4922,1.4955,1.4957,1.4957,1.4957,1.4932,1.4073,1.3743,0.0,0.0,0.0,0.0,0.0,0.0,0.0,0.0,0.0,0.0,0.0,2.2852,0.0,0.0,2.6404,2.725,2.8369,2.9104,2.9173,2.9535,2.9987,3.0572,3.097,3.1095,3.0797,3.1015,3.1055,3.0781,3.074,3.074,3.074,3.0166,2.9848,2.9848,2.9271,2.8966,2.8966,2.8638,2.8367,2.8042,2.8042,2.7894,2.7625,2.7625,2.7625,2.7625,2.7625,2.7625,2.7575,2.7188,2.6826,2.651,2.6481,2.6481,2.6534,2.693,2.6811,2.6375,2.5673,2.5398,2.5287,2.4496,2.4266,2.415,2.3826,2.3708,2.3603,2.3185,2.3078,2.3017,2.2628,2.2506,2.231,2.1428,2.091,2.0333,1.9497,1.8977,1.8385,1.7491,1.7285,1.7001,1.6079,1.5508,1.5296,1.579,1.5517,1.5234,1.5234,1.5234,1.4956,1.4214,1.412,1.3909,1.3413,1.342,1.3279,1.3011,1.3025,1.3237,1.3738,1.4171,1.4235,1.3738,1.4235,1.4235,1.373,1.373,1.373,1.3723,1.3331,1.3314,0.0,0.0,0.0,0.0,0.0,0.0,0.0,0.0,2.2243,2.3731,2.4154,2.4799,2.6623,2.7094,2.7387,2.8033,2.878,2.9072,2.8586,2.9038,2.9761,3.074,3.0838,3.0658,3.0166,3.0559,3.0658,3.0166,3.0477,3.0518,3.0166,2.9892,2.9629,2.9225,2.8638,2.8559,2.9042,2.8076,2.7845,2.8319,2.781,2.7625,2.7625,2.7625,2.7625,2.7575,2.7458,2.7408,2.7306,2.6443,2.6068,2.6014,2.5398,2.5063,2.5063,2.596,2.5906,2.5287,2.4567,2.4292,2.4176,2.3365,2.3078,2.3078,2.3078,2.3078,2.3078,2.3078,2.3005,2.2702,2.2063,2.1753,2.1428,2.0526,1.9824,1.9233,1.911,1.8385,1.7501,1.6775,1.6419,1.6009,1.5092,1.4243,1.3954,1.4807,1.4736,1.4665,1.4665,1.4665,1.4307,1.3528,1.3455,1.3098,1.2372,1.2305,1.2305,1.2305,1.2305,1.2305,1.2305,1.3025,1.3098,1.2298,1.3025,1.3025,1.2305,1.2305,1.2305,1.2305,1.2305,1.2739,2.0741,2.0275,2.0255,2.1701,2.1549,2.1583,0.0,0.0,2.4557,2.6015,2.686,2.7464,2.7855,2.8494,2.8755,2.8335,2.8902,2.9323,2.9294,2.9358,2.9451,2.9585,2.9585,2.9585,2.9496,2.954,2.9585,2.9496,2.9058,2.9012,2.9496,2.8496,2.8125,2.8606,2.7993,2.771,2.7795,2.7675,2.761,2.771,2.7625,2.7625,2.7625,2.7625,2.7625,2.756,2.693,2.6616,2.651,2.5119,2.4567,2.4509,2.4452,2.4002,2.3531,2.5007,2.5453,2.5287,2.4567,2.4292,2.4176,2.3365,2.3078,2.3078,2.3078,2.3078,2.3078,2.3078,2.258,2.2002,2.1939,2.1302,2.0526,1.9628,1.9365,1.911,1.8337,1.7423,1.6706,1.6636,1.5939,1.5021,1.4027,1.3745,1.3745,1.3818,1.3164,1.2586,1.2586,1.2586,1.2586,1.2445,1.2445,1.2445,1.2305,1.2305,1.2305,1.2305,1.2305,1.2305,1.2305,1.2372,1.2445,1.2305,1.2372,1.2372,1.2305,1.2305,1.2305,1.2305,1.2305,1.2378,2.2481,2.2315,2.2243,0.0,2.3663,2.412,2.5456,2.6116,2.6725,2.7791,2.8264,2.8558,2.8708,2.8992,2.9032,0.0,2.8684,2.8732,2.84,2.8352,2.8352,2.8352,2.8352,2.8622,2.9316,2.9717,2.9761,2.9406,2.918,2.9134,2.9406,2.8591,2.8238,2.8511,2.7894,2.7625,2.7625,2.7625,2.7625,2.7625,2.7625,2.7625,2.7575,2.7152,2.6707,2.6322,2.6,2.5837,2.5783,2.4738,2.4292,2.4234,2.3767,2.3424,2.3245,2.4337,2.4439,2.4047,2.3708,2.359,2.3543,2.3185,2.3078,2.3078,2.3078,2.3078,2.3005,2.2506,2.2137,2.169,2.0655,2.0139,1.9628,1.8721,1.8519,1.8317,1.7345,1.6853,1.628,1.5155,1.4593,1.4027,1.3025,1.2879,1.2879,1.2879,1.2519,1.2305,1.2305,1.2305,1.2305,1.2305,1.2305,1.2305,1.2305,1.2305,1.2305,1.2305,1.2305,1.2305,1.2305,1.2305,1.2305,1.2305,1.2305,1.2305,1.2305,1.2305,1.2305,1.2305,1.2305,1.2305,2.3597,2.3802,0.0,2.4864,2.5659,2.6404,2.7148,2.7909,2.8619,2.9178,2.9448,2.953,2.9321,2.9237,2.9016,2.8386,2.8238,2.8091,2.766,2.7625,2.7625,2.7625,2.776,2.8174,2.9058,2.9406,2.939,2.895,2.8904,2.8904,2.8904,2.8511,2.8238,2.8238,2.781,2.7625,2.7625,2.7625,2.7625,2.7625,2.7408,2.7306,2.7255,2.6549,2.5906,2.5398,2.5175,2.5119,2.5063,2.4279,2.3943,2.3884,2.3305,2.3078,2.3198,2.3767,2.359,2.3078,2.3078,2.3078,2.3078,2.3078,2.3078,2.3078,2.2823,2.2763,2.2628,2.1741,2.1365,2.091,1.9628,1.911,1.8787,1.8144,1.7794,1.7432,1.6775,1.621,1.5367,1.3954,1.3455,1.3098,1.2445,1.2305,1.2305,1.2305,1.2305,1.2305,1.2305,1.2305,1.2305,1.2305,1.2305,1.2305,1.2305,1.2305,1.2305,1.2305,1.2305,1.2305,1.2305,1.2305,1.2305,1.2305,1.2305,1.2305,1.2305,1.2305,1.2305,1.2305,1.2305,1.2305,2.378,2.4178,2.4828,2.6268,2.7199,2.796,2.8738,2.9499,3.004,3.0074,3.0632,3.0771,2.9597,2.9374,2.9011,2.7795,2.7625,2.7625,2.7625,2.7625,2.7625,2.7625,2.814,2.8463,0.0,2.7993,2.766,2.766,2.766,2.766,2.766,2.7625,2.7625,2.7625,2.7625,2.7625,2.7625,2.7625,2.7625,2.7575,2.6878,2.651,2.651,2.5783,2.5398,2.5342,2.4624,2.435,2.4292,2.3484,2.3138,2.3138,2.3138,2.3078,2.3078,2.3138,2.3138,2.3078,2.3078,2.3078,2.3078,2.3078,2.3078,2.2944,2.2199,2.1939,2.1753,2.091,2.0009,1.9365,1.9299,1.8654,1.8008,1.8008,1.7285,1.6636,1.6636,1.5084,1.3745,1.3745,1.2952,1.2305,1.2305,1.2305,1.2305,1.2305,1.2305,1.2305,1.2305,1.2305,1.2305,1.2305,1.2305,1.2305,1.2305,1.2305,1.2305,1.2305,1.2305,1.2305,1.2305,1.2305,1.2305,1.2305,1.2305,1.2305,1.2305,1.2305,1.2305,1.2305,1.2305,1.2305,2.5097,2.5654,2.6201,2.7182,2.8399,2.9414,2.9668,3.0294,3.0835,3.0835,3.0632,3.0197,2.9403,2.8963,2.8392,2.7595,2.7557,2.7625,2.7625,2.7625,2.7625,2.7625,2.776,0.0,0.0,0.0,0.0,2.8189,2.781,2.7625,2.7625,2.7625,2.7625,2.7625,2.7625,2.7357,2.6878,2.6878,2.6602,2.6162,2.5892,2.5508,2.5007,2.4794,2.4394,2.3872,2.359,2.3484,2.3484,2.3185,2.3078,2.3078,2.3078,2.3078,2.3078,2.3078,2.3078,2.3078,2.3078,2.3078,2.3078,2.3078,2.2763,2.2261,2.2002,2.1491,2.0846,2.0009,1.9562,1.9177,1.8596,1.8202,1.7862,1.7207,1.6853,1.628,1.4942,1.4171,1.3528,1.2879,1.2519,1.2305,1.2305,1.2305,1.2305,1.2305,1.2305,1.2305,1.2305,1.2305,1.2305,1.2305,1.2305,1.2305,1.2305,1.2305,1.2305,1.2305,1.2305,1.2305,1.2305,1.2305,1.2305,1.2305,1.2305,1.2305,1.2305,1.2305,1.2305,1.2305,1.2305,1.1922,2.604,2.6687,2.7351,2.8383,2.9583,3.0497,3.0497,3.0666,3.0818,3.0818,3.0226,2.9517,2.8907,2.8345,2.7794,2.7387,2.7283,2.7315,2.7497,2.756,2.7625,2.7625,2.7625,2.7625,0.0,0.0,0.0,2.8189,2.781,2.7625,2.7625,2.7625,2.7625,2.7625,2.7357,2.6982,2.651,2.6229,2.5728,2.5007,2.5007,2.4624,2.3884,2.3884,2.3603,2.3078,2.3078,2.3078,2.3078,2.3078,2.3078,2.3078,2.3078,2.3078,2.3078,2.3078,2.3078,2.3078,2.3078,2.3078,2.3078,2.3078,2.2567,2.1815,2.1553,2.0846,1.9944,1.911,1.8854,1.8721,1.8144,1.8008,1.7764,1.6967,1.6493,1.5808,1.4355,1.3732,1.3365,1.2777,1.2538,1.2458,1.2458,1.2371,1.2305,1.2305,1.2305,1.2305,1.2305,1.2305,1.2305,1.2305,1.2305,1.2305,1.2305,1.2305,1.2305,1.2305,1.2305,1.2305,1.2305,1.2305,1.2305,1.2305,1.2305,1.2305,1.2305,1.2305,1.2305,1.2305,1.2305,1.1768,2.6548,2.7334,2.8262,2.9736,3.0649,3.119,3.114,3.0598,3.0091,3.0006,2.9397,2.8693,0.0,0.0,2.7157,2.7073,2.6811,2.6766,2.7303,2.747,2.7625,0.0,0.0,0.0,0.0,0.0,0.0,2.7625,0.0,2.7625,2.7625,2.7625,2.7625,2.7625,2.6878,2.6457,2.6457,2.5701,2.5018,2.4326,2.4326,2.3903,2.3175,2.3175,2.3103,2.3078,2.3078,2.3078,2.3078,2.3078,2.3078,2.3078,2.3078,2.3078,2.3078,2.3065,2.3017,2.3005,2.3005,2.3005,2.3017,2.3017,2.2445,2.1616,2.0782,1.9944,1.9044,1.8202,1.8008,1.8018,1.7969,1.7969,1.7791,1.7045,1.6173,1.537,1.4657,1.3817,1.3213,1.3213,1.2973,1.2842,1.2829,1.2512,1.2318,1.2305,1.2305,1.2305,1.2305,1.2305,1.2305,1.2305,1.2305,1.2305,1.2305,1.2305,1.2305,1.2305,1.2305,1.2305,1.2305,1.2305,1.2305,1.2305,1.2224,1.2224,1.2224,1.2224,1.2224,1.2224,1.2305,1.1694,2.7403,2.8518,2.9617,3.0006,3.0649,3.1055,3.0514,3.0243,2.9786,2.86,2.7807,2.7063,0.0,0.0,0.0,2.5624,2.6195,0.0,2.6766,2.724,0.0,2.7625,0.0,2.7625,2.7625,2.7625,0.0,0.0,2.7625,2.7625,2.7625,2.7625,2.7625,2.7625,2.6878,2.6229,2.5673,2.4773,2.4461,2.4696,2.4696,2.4355,2.3778,2.3778,2.354,2.3078,2.3078,2.3078,2.3078,2.3078,2.3078,2.3078,2.3078,2.3078,2.3005,2.2445,2.2199,2.2125,2.1479,2.1678,2.2199,2.2199,2.1164,1.9944,1.9683,1.9044,1.8269,1.8076,1.8008,1.7871,1.7389,1.725,1.691,1.5578,1.505,1.462,1.3724,1.3365,1.3213,1.3213,1.3146,1.3019,1.2862,1.2761,1.2559,1.2338,1.2305,1.2305,1.2305,1.2305,1.2305,1.2305,1.2305,1.2305,1.2305,1.2305,1.2305,1.2305,1.2305,1.2305,1.2305,1.2305,1.2305,1.2305,1.1545,1.1162,1.1162,1.1162,1.1162,1.1236,1.1922,1.1323,2.8625,2.9448,3.0192,3.0497,3.0649,3.0514,2.9786,2.9093,2.8281,2.7097,2.6251,2.5592,2.5186,2.4884,2.4734,0.0,0.0,0.0,2.6425,2.6916,2.7245,0.0,2.7625,0.0,2.7625,2.7625,2.7625,0.0,2.7625,2.7625,2.7625,2.7625,2.7458,2.7152,2.6648,2.5979,2.5163,2.4617,2.4519,2.482,2.482,2.4657,2.4356,2.4104,2.3816,2.3502,2.3178,2.3078,2.3078,2.3078,2.3078,2.3078,2.3078,2.2884,2.2506,2.2075,2.169,2.1239,2.0782,2.0655,2.0846,2.1239,2.0398,1.9299,1.9299,1.8721,1.8008,1.8008,1.8008,1.7821,1.7153,1.6964,1.6659,1.5133,1.4784,1.459,1.3804,1.3594,1.3554,1.3427,1.34,1.3307,1.3006,1.2916,1.2768,1.2518,1.2385,1.2305,1.2305,1.2305,1.2305,1.2305,1.2305,1.2305,1.2305,1.2305,1.2305,1.2305,1.2305,1.2305,1.2305,1.1848,1.1848,1.2298,1.087,1.0565,1.1465,1.0565,1.0565,1.1465,1.162,1.1019,2.9776,3.0176,3.0378,3.092,3.0581,2.9854,2.889,2.7655,2.6404,2.5308,2.4698,2.4272,2.4039,2.3882,2.3975,2.4484,0.0,2.4867,2.6106,2.6485,2.6841,2.755,2.7625,2.7625,2.7625,2.7625,2.756,2.7458,2.7458,2.7509,2.7575,2.7524,2.713,2.6343,2.6216,2.5775,2.4921,2.4921,2.4958,2.5046,2.5046,2.4996,2.4908,2.4356,2.4067,2.3966,2.3389,2.3078,2.3078,2.3078,2.3078,2.3078,2.3005,2.2506,2.1877,2.1628,2.1112,2.0398,2.0268,1.9748,1.9299,2.0139,1.9824,1.911,1.911,1.8586,1.8008,1.8008,1.791,1.7691,1.7009,1.6779,1.6478,1.5215,1.497,1.4806,1.4196,1.4088,1.4008,1.3748,1.3701,1.3607,1.332,1.3046,1.2916,1.2835,1.2525,1.2345,1.2305,1.2305,1.2305,1.2305,1.2305,1.2305,1.2305,1.2305,1.2305,1.2305,1.215,1.2077,1.2077,1.1168,1.1019,1.1848,1.0196,1.0121,1.17,1.0121,1.0201,1.1848,1.1162,1.0783,2.9871,3.0548,3.0886,3.0412,3.0192,2.9583,2.7554,2.6877,0.0,0.0,2.3046,2.3102,2.1566,2.1859,2.2572,2.3215,2.3588,2.4237,2.5559,2.6216,2.6841,0.0,2.7625,2.7625,2.7625,2.7625,0.0,0.0,2.6669,2.693,2.7575,2.7034,2.6295,2.5378,2.5714,2.5801,2.5448,2.546,2.5699,2.6176,2.6176,2.5925,2.5435,2.4921,2.4431,2.3966,2.3389,2.3078,2.3078,2.3078,2.3078,2.3005,2.2384,2.2002,2.1753,2.0268,1.9694,1.9431,1.8721,1.8337,1.8395,1.9233,1.8911,1.8202,1.8202,1.8144,1.8008,1.8008,1.7618,1.7018,1.6346,1.583,1.5223,1.4497,1.4253,1.4266,1.4159,1.4088,1.4075,1.4021,1.4008,1.3915,1.3621,1.3527,1.332,1.2896,1.2775,1.2579,1.2338,1.2305,1.2305,1.2305,1.2305,1.2305,1.2305,1.2305,1.2305,1.2305,1.1539,1.1087,1.1087,1.0115,0.9674,0.982,0.9448,0.9069,0.8613,0.9069,0.9448,0.9825,1.049,1.0783,2.9905,3.0362,3.0548,3.0192,2.9516,2.8433,2.6556,0.0,0.0,2.1943,2.1429,2.1133,2.0431,2.1078,0.0,2.1881,2.2762,2.3712,2.4462,2.5435,2.6318,2.6976,2.7415,2.7458,2.7034,2.7034,2.6707,2.6,2.596,2.6054,2.6428,2.6022,2.5819,2.5946,2.5793,2.5843,2.6038,2.605,2.6189,2.6533,2.6533,2.6382,2.6025,2.5473,2.4933,2.4393,2.3828,2.3414,2.3078,2.3078,2.2823,2.2445,2.2063,2.1365,2.0462,1.9628,1.8977,1.8596,1.8144,1.8008,1.8076,1.8462,1.8327,1.8008,1.8008,1.8008,1.7862,1.7432,1.7156,1.6753,1.5539,1.52,1.4911,1.426,1.4088,1.4088,1.4088,1.4088,1.4088,1.4088,1.4088,1.4041,1.3901,1.3748,1.3547,1.3253,1.3086,1.2879,1.2572,1.2532,1.2472,1.2318,1.2305,1.2305,1.2305,1.2305,1.2077,1.1545,1.1087,1.0565,1.004,0.9069,0.8765,0.9296,0.8237,0.8008,0.8618,0.8542,0.9069,1.0115,1.0559,1.1087,2.9668,2.9871,2.982,2.9651,2.8586,2.7199,2.571,2.3972,0.0,2.1093,2.011,1.9538,1.9656,2.0539,2.1205,0.0,2.1998,2.3029,2.3546,2.4642,2.5689,0.0,2.7171,0.0,2.6563,2.651,0.0,2.5231,2.5129,2.5154,2.531,2.5421,2.5743,2.6427,2.6031,2.6,2.6521,2.6533,2.6533,2.6533,2.6533,2.6533,2.6508,2.5749,2.5209,2.4782,2.4104,2.3552,2.3078,2.2884,2.2445,2.1877,2.1491,2.0526,1.9309,1.911,1.8596,1.8008,1.8008,1.8008,1.8008,1.8008,1.8008,1.8008,1.8008,1.7862,1.7588,1.6894,1.6553,1.6211,1.5049,1.4765,1.4753,1.4196,1.4088,1.4088,1.4088,1.4088,1.4088,1.4088,1.4088,1.4088,1.4088,1.3895,1.3714,1.3572,1.3447,1.3193,1.2886,1.2923,1.2726,1.2425,1.2338,1.2305,1.2305,1.2305,1.1996,1.1162,1.0938,1.034,0.9372,0.8313,0.8089,0.8613,0.7326,0.733,0.8694,0.8313,0.8912,1.049,1.0708,1.1316,2.8873,2.9076,2.8924,2.8197,2.7402,2.6404,2.4946,0.0,2.1466,1.9975,1.9568,1.9293,1.8665,1.9668,2.0662,2.0879,2.1221,2.198,2.3411,2.4238,2.5181,2.6437,0.0,0.0,2.6563,2.651,2.5906,2.4509,2.421,2.4445,2.5071,2.6025,2.6298,2.5719,2.6168,2.6471,2.6533,2.6533,2.6533,2.6533,2.6533,2.6533,2.6496,2.5372,2.487,2.4757,2.3616,2.3128,2.3065,2.2322,2.1939,2.1753,2.0139,1.9431,1.9177,1.8395,1.8076,1.8008,1.8008,1.8008,1.8008,1.8008,1.8008,1.8008,1.8008,1.7432,1.6788,1.6947,1.5914,1.4832,1.5011,1.4625,1.4216,1.4082,1.4088,1.4088,1.4088,1.4088,1.4088,1.4088,1.4088,1.4088,1.4088,1.4062,1.3955,1.3687,1.3539,1.35,1.3206,1.3166,1.3053,1.2815,1.2465,1.2305,1.2305,1.2305,1.2224,1.215,1.1316,1.034,0.9372,0.8313,0.7403,0.6567,0.733,0.7326,0.6567,0.8313,0.9221,0.9448,1.034,1.1316,2.8078,2.8281,2.8095,2.7334,2.659,2.5642,2.4171,0.0,2.0603,1.9953,1.8762,1.7918,1.8026,1.9015,1.9784,1.9681,2.0563,2.1412,2.1819,2.346,2.4776,2.5345,2.6692,0.0,0.0,0.0,2.5217,2.3708,2.4165,2.4608,2.4898,2.5614,2.607,2.6168,2.6339,2.6533,2.6533,2.6533,2.6533,2.6533,2.6533,2.6533,2.6496,2.5649,2.5121,2.4782,2.3991,2.3452,2.3017,2.2261,2.1616,2.0985,1.9759,1.8977,1.8462,1.8144,1.8008,1.8008,1.8008,1.8008,1.8008,1.8008,1.8008,1.8008,1.8008,1.7354,1.6508,1.6254,1.5439,1.4572,1.4275,1.4186,1.4088,1.4088,1.4088,1.4088,1.4088,1.4088,1.4088,1.4088,1.4088,1.4088,1.4088,1.4088,1.4048,1.3928,1.3908,1.3801,1.3507,1.3467,1.3353,1.306,1.2752,1.2498,1.2318,1.2305,1.207,1.1465,1.1013,1.011,0.8466,0.8008,0.7629,0.7176,0.7022,0.7326,0.8084,0.8917,0.9599,1.0265,1.1242,1.1922,2.6657,2.6826,2.6708,2.6167,2.549,2.4628,0.0,0.0,1.9886,1.9698,1.8219,1.7076,1.7566,1.8626,1.9235,1.872,1.9966,2.0942,2.0715,2.2637,2.4118,2.4298,0.0,2.6535,2.5203,2.4898,2.4266,2.3185,2.418,2.482,2.482,2.5473,2.6038,2.6521,2.6533,2.6533,2.6533,2.6533,2.6533,2.6533,2.6533,2.6533,2.6496,2.5699,2.5172,2.4782,2.4054,2.3392,2.2689,2.1877,2.0974,2.0139,1.9243,1.8529,1.8008,1.8008,1.8008,1.8008,1.8008,1.8008,1.8008,1.8008,1.8008,1.794,1.7647,1.6932,1.6034,1.5503,1.4911,1.4365,1.3878,1.3928,1.4088,1.4088,1.4088,1.4088,1.4088,1.4088,1.4088,1.4088,1.4088,1.4088,1.4088,1.4088,1.4088,1.4088,1.4088,1.3924,1.3284,1.3513,1.3497,1.2872,1.2975,1.2852,1.2465,1.2351,1.1996,1.1316,1.1236,1.049,0.8761,0.8685,0.8537,0.8237,0.7557,0.7859,0.9296,0.9593,1.0115,1.0783,1.1842,1.2305,2.4397,2.454,2.454,2.4523,2.3951,2.3224,2.2496,2.0866,1.9389,1.8998,1.805,1.7296,1.7304,1.8456,1.9135,1.833,1.9398,2.0404,2.064,2.1859,2.2921,0.0,0.0,2.5311,2.451,2.3636,2.3138,2.3078,2.418,0.0,2.482,2.585,2.6521,2.6533,2.6533,2.6533,2.6533,2.6533,2.6533,2.6533,2.6533,2.6533,2.6496,2.5335,2.4833,2.4757,2.3566,2.2641,2.1815,2.0974,2.0074,1.9243,1.8327,1.8008,1.8008,1.8008,1.8008,1.8008,1.8008,1.8008,1.8008,1.8008,1.8008,1.7862,1.6922,1.593,1.5096,1.4683,1.4413,1.4075,1.4082,1.4082,1.4088,1.4088,1.4088,1.4088,1.4088,1.4088,1.4088,1.4088,1.4088,1.4088,1.4088,1.4088,1.4088,1.4088,1.4088,1.3646,1.2498,1.3372,1.3529,1.2052,1.2959,1.3394,1.2869,1.2472,1.2305,1.2298,1.2298,1.1848,1.0783,1.0783,1.0265,0.9296,0.9296,0.9301,0.9296,1.0265,1.0783,1.0783,1.1842,1.2305,2.3005,2.3359,2.3494,2.2508,2.2084,2.1684,2.0923,1.9703,1.8792,1.8872,1.7864,1.7027,1.7272,1.7658,1.8179,1.8779,1.9455,2.008,0.0,0.0,0.0,2.2904,2.3969,2.4614,0.0,0.0,2.3078,2.3078,2.3841,2.4255,2.4255,2.4946,2.5686,2.6508,2.6533,2.6533,2.6533,2.6533,2.6533,2.6533,2.6533,2.6533,2.6496,2.5322,2.482,2.4693,2.2983,2.2125,2.1815,2.0333,1.9562,1.9233,1.8327,1.8008,1.8008,1.8008,1.8008,1.8008,1.8008,1.8008,1.8008,1.8008,1.8008,1.7725,1.6149,1.5446,1.4961,1.3944,1.3865,1.4088,1.4088,1.4088,1.4088,1.4088,1.4088,1.4088,1.4088,1.4088,1.4088,1.4088,1.4088,1.4088,1.4088,1.4088,1.4088,1.4088,1.4088,1.3997,1.3561,1.3118,1.2996,1.3348,1.2819,1.2562,1.2792,1.2735,1.2518,1.2311,1.2305,1.1848,1.0858,1.0783,1.0634,1.034,0.9669,0.9976,1.1329,1.1013,1.1162,1.1842,1.215,1.2305,0.0,2.1786,2.1904,2.0974,2.0737,0.0,1.9773,1.9085,1.8526,1.8332,1.7585,1.6977,1.6926,1.7133,1.7575,1.8494,1.9004,1.9558,0.0,0.0,0.0,2.2836,0.0,0.0,0.0,2.3403,2.3078,2.3078,2.3665,2.4004,2.4004,2.4519,2.5134,2.5824,2.6025,2.6138,2.6138,2.642,2.6533,2.6533,2.6533,2.6352,2.6101,2.5222,2.4707,2.4392,2.2648,2.169,0.0,1.9879,1.911,1.8787,1.8202,1.8008,1.8008,1.8008,1.8008,1.8008,1.8008,1.8008,1.8008,1.8008,1.751,1.6655,1.5092,1.4472,1.4111,1.3372,1.3554,1.3948,1.4055,1.4088,1.4088,1.4088,1.4088,1.4088,1.4088,1.4088,1.4088,1.4088,1.4088,1.4088,1.4088,1.4088,1.4088,1.4088,1.4088,1.3913,1.347,1.3118,1.3112,1.3379,1.3052,1.2852,1.3041,1.295,1.2694,1.2318,1.2305,1.1996,1.1391,1.1391,1.1391,1.1391,1.072,1.1025,1.2305,1.1694,1.1694,1.2305,1.2305,1.2305,0.0,1.9883,1.99,1.9849,1.9833,1.9647,1.8978,1.8826,0.0,1.75,1.7296,1.7076,1.6483,1.6861,1.7394,1.7762,1.8418,1.9057,0.0,2.0827,0.0,0.0,2.3324,0.0,2.328,2.3165,2.3078,2.3078,2.364,2.3941,2.3941,2.4418,2.4707,2.4707,2.5209,2.5498,2.5536,2.6076,2.6408,2.6408,2.6408,2.6063,2.5523,2.5008,2.4481,2.3904,2.2428,2.1365,2.0526,1.9562,1.8721,1.8008,1.8008,1.8008,1.8008,1.8008,1.8008,1.8008,1.8008,1.8008,1.8008,1.794,1.6655,1.5021,1.4027,1.3245,1.2882,1.3093,1.3387,1.3681,1.3981,1.4055,1.4062,1.4082,1.4088,1.4088,1.4088,1.4088,1.4088,1.4088,1.4088,1.4088,1.4088,1.4088,1.4088,1.4088,1.4088,1.373,1.2589,1.3294,1.3561,1.2504,1.3379,1.3871,1.3559,1.31,1.2652,1.2351,1.2311,1.2305,1.2305,1.2305,1.2305,1.2305,1.2305,1.2305,1.2305,1.2305,1.2305,1.2305,1.2305,1.2305,1.8206,0.0,1.9029,1.8471,1.8312,1.8262,0.0,1.8065,1.7906,1.7401,0.0,1.6949,1.7068,1.6952,1.7375,1.8991,1.9794,2.0271,2.0433,2.1065,0.0,2.3032,2.3132,2.3162,2.3162,2.311,2.3078,2.3078,2.3203,2.3339,2.3339,2.3464,2.3466,2.3466,2.4079,2.4569,2.4996,2.5146,2.5209,2.5209,2.5209,2.5134,2.4983,2.4443,2.4117,2.3891,2.1788,2.0782,2.0462,1.8911,1.8202,1.8008,1.8008,1.8008,1.8008,1.8008,1.8008,1.8008,1.8008,1.8008,1.7862,1.7139,1.6149,1.5021,1.4027,1.3245,1.2835,1.2916,1.3073,1.338,1.3667,1.3748,1.3808,1.4035,1.4088,1.4088,1.4088,1.4088,1.4088,1.4088,1.4088,1.4088,1.4088,1.4088,1.4088,1.4088,1.4088,1.3997,1.373,1.3118,1.2942,1.3646,1.3118,1.2918,1.3273,1.318,1.2973,1.2735,1.2425,1.2305,1.2305,1.2305,1.2305,1.2305,1.2305,1.2305,1.2305,1.2305,1.2305,1.2305,1.2305,1.2305,1.7657,1.8099,1.8302,1.7912,1.7811,1.7811,1.7811,0.0,0.0,0.0,0.0,1.6744,1.664,1.6696,1.7181,1.8578,1.9359,0.0,0.0,0.0,2.1831,2.2611,2.2975,2.3078,0.0,2.3078,2.3078,2.3078,2.3078,2.3078,2.3078,2.3078,2.3078,2.3078,2.3439,2.3866,2.4443,2.4695,2.482,2.482,2.482,2.4695,2.4431,2.4142,2.3654,2.2946,2.129,2.0398,1.989,1.8529,1.8008,1.8008,1.8008,1.8008,1.8008,1.8008,1.8008,1.8008,1.8008,1.7716,1.7217,1.6289,1.5296,1.4307,1.3382,1.285,1.2572,1.2788,1.2866,1.3066,1.3367,1.3447,1.3487,1.3647,1.3687,1.3721,1.3854,1.3881,1.3928,1.4062,1.4088,1.4088,1.4088,1.4088,1.4088,1.4088,1.4088,1.4088,1.4088,1.3555,1.3379,1.4004,1.3555,1.3207,1.3366,1.3287,1.3019,1.2572,1.2392,1.2305,1.2305,1.2305,1.2305,1.2305,1.2305,1.2305,1.2305,1.2305,1.2305,1.2305,1.2305,1.2305,1.764,1.7896,1.7946,1.7845,1.7811,1.7811,1.7811,0.0,0.0,0.0,0.0,0.0,1.6173,1.6641,0.0,0.0,0.0,0.0,2.0736,2.1332,2.182,2.2372,2.2849,0.0,2.3078,2.3078,2.3078,2.3078,2.3078,2.3078,2.3078,2.3078,2.3078,2.3078,2.3078,2.3376,2.3866,2.433,2.4556,2.4556,2.4556,2.4318,2.3866,2.3866,2.3145,2.1877,2.0974,2.0139,1.9243,1.8327,1.8008,1.8008,1.8008,1.8008,1.8008,1.8008,1.8008,1.8008,1.8008,1.7354,1.6428,1.5517,1.4522,1.3528,1.2592,1.2305,1.2351,1.2605,1.2755,1.2829,1.306,1.314,1.3153,1.32,1.3213,1.328,1.3527,1.3581,1.3654,1.3901,1.3955,1.3968,1.4015,1.4021,1.4035,1.4082,1.4088,1.4088,1.4088,1.4088,1.4088,1.4088,1.4048,1.3901,1.3607,1.3307,1.2899,1.2338,1.2305,1.2305,1.2305,1.2305,1.2305,1.2305,1.2305,1.2305,1.2305,1.2305,1.2305,1.2305,1.2305,1.2305,1.7439,1.8268,1.8589,1.7963,1.7811,1.7811,1.7811,0.0,0.0,0.0,0.0,0.0,0.0,1.7992,1.8794,0.0,0.0,2.141,0.0,0.0,2.2397,2.2877,0.0,2.3078,2.3078,2.3078,2.3078,2.3078,2.3078,2.3078,2.3078,2.3078,2.3078,2.3078,2.3078,2.3115,2.3263,2.329,2.3328,2.3328,2.3328,2.3351,2.3263,2.3263,2.2776,2.1877,2.0974,2.0139,1.9243,1.8327,1.8008,1.8008,1.8008,1.8008,1.8008,1.8008,1.8008,1.8008,1.8008,1.7354,1.6428,1.5517,1.4522,1.3528,1.2592,1.2305,1.2311,1.2358,1.2371,1.2438,1.2815,1.2896,1.2886,1.3146,1.3213,1.322,1.3267,1.3273,1.3293,1.3333,1.3347,1.342,1.3667,1.3707,1.3801,1.4048,1.4088,1.4088,1.4088,1.4088,1.4088,1.4088,1.3861,1.3594,1.33,1.2993,1.2672,1.2325,1.2305,1.2305,1.2305,1.2305,1.2305,1.2305,1.2305,1.2305,1.2305,1.2305,1.2305,1.2305,1.2305,1.2305,1.7405,1.8048,1.8272,1.8126,1.8377,1.8609,1.8405,1.8231,0.0,0.0,0.0,0.0,0.0,0.0,1.9193,2.0489,0.0,2.1255,2.1854,2.2116,2.2397,0.0,0.0,2.3078,2.3078,2.3078,2.3078,2.3078,2.3078,2.3078,2.3078,2.3078,2.3078,2.3078,2.3078,2.3078,2.3078,2.3078,2.3078,2.3078,2.3078,2.3078,2.3078,2.3078,2.2372,2.1175,2.0782,1.9824,1.8596,1.8144,1.8008,1.8008,1.8008,1.8008,1.8008,1.8008,1.8008,1.8008,1.8008,1.7079,1.579,1.5376,1.4163,1.2879,1.2445,1.2305,1.2305,1.2305,1.2305,1.2338,1.2472,1.2505,1.2538,1.2685,1.2719,1.2766,1.2926,1.2959,1.3013,1.318,1.3213,1.3253,1.3387,1.354,1.3687,1.3828,1.3981,1.4088,1.4088,1.4088,1.4088,1.4088,1.3821,1.3527,1.3233,1.2926,1.2694,1.2318,1.2305,1.2305,1.2305,1.2305,1.2305,1.2305,1.2305,1.2305,1.2305,1.2305,1.2305,1.2305,1.2305,1.2305,1.7456,1.7929,1.8084,1.8166,0.0,1.8989,1.8831,1.8667,0.0,0.0,0.0,0.0,0.0,1.9358,0.0,2.1004,2.1315,2.1564,2.1668,2.2159,2.2498,2.2498,2.2874,2.3078,2.3078,2.3078,2.3078,2.3078,2.3078,2.3078,2.3078,2.3078,2.3078,2.3078,2.3078,2.3078,2.3078,2.3078,2.3078,2.3078,2.3078,2.3078,2.3078,2.3078,2.2187,2.059,2.059,1.9617,1.8008,1.8008,1.8008,1.8008,1.8008,1.8008,1.8008,1.8008,1.8008,1.8008,1.8008,1.6793,1.5234,1.5234,1.3875,1.2305,1.2305,1.2305,1.2305,1.2305,1.2305,1.2305,1.2305,1.2305,1.2305,1.2305,1.2305,1.2365,1.2592,1.2721,1.2712,1.2953,1.2999,1.3019,1.3086,1.3287,1.348,1.3539,1.3834,1.4008,1.4082,1.4088,1.4062,1.3988,1.3721,1.3394,1.3026,1.2779,1.2545,1.2318,1.2305,1.2305,1.2305,1.2305,1.2305,1.2305,1.2305,1.2305,1.2305,1.2305,1.2305,1.2305,1.2305,1.2305,1.7591,1.8302,1.8641,1.8001,1.7872,0.0,1.8664,1.8314,0.0,1.895,0.0,0.0,0.0,2.114,2.2417,2.2476,2.3406,2.3703,2.2407,0.0,2.3015,2.3015,2.3053,2.3078,2.3078,2.3078,2.3078,2.3078,2.3078,2.3078,2.3078,2.3078,2.3078,2.3078,2.3078,2.3078,2.3078,2.3078,2.3078,2.3078,2.3078,2.3078,2.3078,2.3078,2.2187,2.059,2.059,1.9617,1.8008,1.8008,1.8008,1.8008,1.8008,1.8008,1.8008,1.8008,1.8008,1.8008,1.8008,1.6793,1.5234,1.5234,1.3875,1.2305,1.2305,1.2305,1.2305,1.2305,1.2305,1.2305,1.2305,1.2305,1.2305,1.2305,1.2305,1.2311,1.2325,1.2338,1.2338,1.2365,1.2365,1.2458,1.2808,1.2876,1.2999,1.3561,1.3579,1.3774,1.4048,1.4088,1.3981,1.3707,1.3414,1.3006,1.2418,1.2345,1.2325,1.2305,1.2305,1.2305,1.2305,1.2305,1.2305,1.2305,1.2305,1.2305,1.2305,1.2305,1.2305,1.2305,1.2305,1.2305,1.7608,1.8148,1.8451,1.8192,1.8454,0.0,0.0,1.9319,1.9586,2.0552,2.067,0.0,0.0,0.0,2.3155,2.2558,2.3232,2.3556,2.2879,2.294,2.3078,2.3078,2.3078,2.3078,2.3078,2.3078,2.3078,2.3078,2.3078,2.3078,2.3078,2.3078,2.3078,2.3078,2.3078,2.3078,2.3078,2.3078,2.3078,2.3078,2.3078,2.3078,2.3065,2.2567,2.1741,2.059,2.0009,1.911,1.8008,1.8008,1.8008,1.8008,1.8008,1.8008,1.8008,1.8008,1.8008,1.8008,1.8008,1.6793,1.5234,1.5234,1.3875,1.2305,1.2305,1.2305,1.2305,1.2305,1.2305,1.2305,1.2305,1.2305,1.2305,1.2305,1.2305,1.2305,1.2305,1.2305,1.2305,1.2305,1.2305,1.2338,1.2452,1.2625,1.2903,1.3053,1.3253,1.3414,1.3527,1.354,1.35,1.3387,1.3106,1.2752,1.2338,1.2305,1.2305,1.2305,1.2305,1.2305,1.2305,1.2305,1.2305,1.2305,1.2305,1.2305,1.2305,1.2305,1.2305,1.2305,1.2305,1.2305,1.7813,1.812,1.8294,0.0,0.0,0.0,1.9929,2.0218,2.074,2.1798,2.2158,2.2364,2.2557,0.0,0.0,0.0,2.3607,2.3804,2.3195,2.3078,2.3078,2.3078,2.3078,2.3078,2.3078,2.3078,2.3078,2.3078,2.3078,2.3078,2.3078,2.3078,2.3078,2.3078,2.3078,2.3078,2.3078,2.3078,2.3078,2.3078,2.3078,2.3078,2.3065,2.2506,2.1678,2.059,1.9944,1.9044,1.8008,1.8008,1.8008,1.8008,1.8008,1.8008,1.8008,1.8008,1.8008,1.8008,1.8008,1.6793,1.5234,1.5234,1.3875,1.2305,1.2305,1.2305,1.2305,1.2305,1.2305,1.2305,1.2305,1.2305,1.2305,1.2305,1.2305,1.2305,1.2305,1.2305,1.2305,1.2305,1.2305,1.2305,1.2305,1.2472,1.2714,1.2808,1.2926,1.31,1.32,1.3213,1.3173,1.3073,1.2792,1.2525,1.2318,1.2305,1.2305,1.2305,1.2305,1.2305,1.2305,1.2305,1.2305,1.2305,1.2305,1.2305,1.2305,1.2305,1.2305,1.2305,1.2305,1.2305,1.829,1.829,1.8296,0.0,0.0,0.0,2.05,2.0817,2.1242,2.2481,2.3176,2.3819,2.4462,2.5181,0.0,2.4507,2.4983,2.4838,2.3305,2.3078,2.3078,2.3078,2.3078,2.3078,2.3078,2.3078,2.3078,2.3078,2.3078,2.3078,2.3078,2.3078,2.3078,2.3078,2.3078,2.3078,2.3078,2.3078,2.3078,2.3078,2.3078,2.3078,2.3078,2.3065,2.2175,2.059,2.059,1.9628,1.8008,1.8008,1.8008,1.8008,1.8008,1.8008,1.8008,1.8008,1.8008,1.8008,1.8008,1.6793,1.5234,1.5234,1.3875,1.2305,1.2305,1.2305,1.2305,1.2305,1.2305,1.2305,1.2305,1.2305,1.2305,1.2305,1.2305,1.2305,1.2305,1.2305,1.2305,1.2305,1.2305,1.2305,1.2305,1.2305,1.2405,1.2775,1.2822,1.2852,1.3166,1.32,1.3086,1.2849,1.2478,1.2305,1.2305,1.2305,1.2305,1.2305,1.2305,1.2305,1.2305,1.2305,1.2305,1.2305,1.2305,1.2305,1.2305,1.2305,1.2305,1.2305,1.2305,1.2305,1.7954,1.829,0.0,1.8933,0.0,0.0,0.0,2.1787,0.0,0.0,2.4193,2.4522,2.5196,2.5854,0.0,2.4629,2.4983,2.4838,2.3305,2.3078,2.3078,2.3078,2.3078,2.3078,2.3078,2.3078,2.3078,2.3078,2.3078,2.3078,2.3078,2.3078,2.3078,2.3078,2.3078,2.3078,2.3078,2.3078,2.3078,2.3078,2.3078,2.3078,2.3078,2.1865,2.1101,2.0526,1.9299,1.8462,1.8008,1.8008,1.8008,1.8008,1.8008,1.8008,1.8008,1.8008,1.8008,1.8008,1.8008,1.6793,1.5234,1.5234,1.3875,1.2305,1.2305,1.2305,1.2305,1.2305,1.2305,1.2305,1.2305,1.2305,1.2305,1.2305,1.2305,1.2305,1.2305,1.2305,1.2305,1.2305,1.2305,1.2305,1.2305,1.2305,1.2331,1.2418,1.2438,1.2465,1.2559,1.2572,1.2538,1.2445,1.2351,1.2305,1.2305,1.2305,1.2305,1.2305,1.2305,1.2305,1.2305,1.2305,1.2305,1.2305,1.2305,1.2305,1.2305,1.2305,1.2305,1.2305,1.2305,1.2305,1.8261,1.8447,0.0,1.9657,2.054,2.1516,2.2543,0.0,0.0,0.0,2.5046,2.5431,2.5564,2.6366,0.0,2.4668,2.4929,2.4838,2.3305,2.3078,2.3078,2.3078,2.3078,2.3078,2.3078,2.3078,2.3078,2.3078,2.3078,2.3078,2.3078,2.3078,2.3078,2.3078,2.3078,2.3078,2.3078,2.3078,2.3078,2.3078,2.3078,2.2944,2.2567,2.1553,2.0719,2.0009,1.8596,1.8008,1.8008,1.8008,1.8008,1.8008,1.8008,1.8008,1.8008,1.8008,1.8008,1.794,1.7569,1.6437,1.5163,1.4736,1.3593,1.2305,1.2305,1.2305,1.2305,1.2305,1.2305,1.2305,1.2305,1.2305,1.2305,1.2305,1.2305,1.2305,1.2305,1.2305,1.2305,1.2305,1.2305,1.2305,1.2305,1.2305,1.2305,1.2305,1.2305,1.2305,1.2305,1.2305,1.2305,1.2305,1.2305,1.2305,1.2305,1.2305,1.2305,1.2305,1.2305,1.2305,1.2305,1.2305,1.2305,1.2305,1.2305,1.2305,1.2305,1.2305,1.2305,1.2305,1.2305,1.2305,1.8905,1.8702,0.0,2.0309,2.1061,0.0,2.3275,2.4178,2.4672,2.4672,0.0,2.6391,2.5807,2.6674,2.6811,2.4724,2.4894,2.4781,2.3305,2.3078,2.3078,2.3078,2.3078,2.3078,2.3078,2.3078,2.3078,2.3078,2.3078,2.3078,2.3078,2.3078,2.3078,2.3078,2.3078,2.3078,2.3078,2.3078,2.3078,2.3078,2.3017,2.2567,2.1753,2.1753,2.0846,1.911,1.8327,1.8008,1.8008,1.8008,1.8008,1.8008,1.8008,1.8008,1.8008,1.8008,1.8008,1.7872,1.6922,1.6009,1.5021,1.4027,1.3098,1.2305,1.2305,1.2305,1.2305,1.2305,1.2305,1.2305,1.2305,1.2305,1.2305,1.2305,1.2305,1.2305,1.2305,1.2305,1.2305,1.2305,1.2305,1.2305,1.2305,1.2305,1.2305,1.2305,1.2305,1.2305,1.2305,1.2305,1.2305,1.2305,1.2305,1.2305,1.2305,1.2305,1.2305,1.2305,1.2305,1.2305,1.2305,1.2305,1.2305,1.2305,1.2305,1.2305,1.2305,1.2305,1.2305,1.2305,1.2305,1.2305,1.8443,1.8726,0.0,0.0,2.2091,2.3155,2.3548,2.4537,2.539,2.539,2.6033,2.6688,2.7095,2.6946,2.639,2.5342,2.4794,2.4221,2.3245,2.3078,2.3078,2.3078,2.3078,2.3078,2.3078,2.3078,2.3078,2.3078,2.3078,2.3078,2.3078,2.3078,2.3078,2.3078,2.3078,2.3078,2.3078,2.3078,2.3078,2.3078,2.2445,2.1678,2.0846,2.0846,1.9944,1.8269,1.8076,1.8008,1.8008,1.8008,1.8008,1.8008,1.8008,1.8008,1.8008,1.8008,1.8008,1.7872,1.6922,1.6009,1.5021,1.4027,1.3098,1.2305,1.2305,1.2305,1.2305,1.2305,1.2305,1.2305,1.2305,1.2305,1.2305,1.2305,1.2305,1.2305,1.2305,1.2305,1.2305,1.2305,1.2305,1.2305,1.2305,1.2305,1.2305,1.2305,1.2305,1.2305,1.2305,1.2305,1.2305,1.2305,1.2305,1.2305,1.2305,1.2305,1.2305,1.2305,1.2305,1.2305,1.2305,1.2305,1.2305,1.2305,1.2305,1.2305,1.2305,1.2305,1.2305,1.2305,1.2305,1.2305,1.8575,0.0,0.0,2.0968,0.0,2.3595,2.3595,2.4403,2.5136,2.5136,2.6168,2.7056,2.7078,2.6774,2.6122,2.5063,2.4567,2.4002,2.3185,2.3078,2.3078,2.3078,2.3078,2.3078,2.3078,2.3078,2.3078,2.3078,2.3078,2.3078,2.3078,2.3078,2.3078,2.3078,2.3078,2.3078,2.3078,2.3078,2.3078,2.3078,2.2249,2.1239,1.9944,1.9562,1.8854,1.8008,1.8008,1.8008,1.8008,1.8008,1.8008,1.8008,1.8008,1.8008,1.8008,1.8008,1.8008,1.7794,1.6437,1.5587,1.495,1.352,1.2739,1.2305,1.2305,1.2305,1.2305,1.2305,1.2305,1.2305,1.2305,1.2305,1.2305,1.2305,1.2305,1.2305,1.2305,1.2305,1.2305,1.2305,1.2305,1.2305,1.2305,1.2305,1.2305,1.2305,1.2305,1.2305,1.2305,1.2305,1.2305,1.2305,1.2305,1.2305,1.2305,1.2305,1.2305,1.2305,1.2305,1.2305,1.2305,1.2305,1.2305,1.2305,1.2305,1.2305,1.2305,1.2305,1.2305,1.2305,1.2305,1.2305,1.8372,0.0,1.8847,2.1128,2.2577,0.0,2.358,2.4133,2.4582,2.4582,2.6108,2.7244,2.6614,2.6371,2.5906,2.4681,2.4292,2.3884,2.3185,2.3078,2.3078,2.3078,2.3078,2.3078,2.3078,2.3078,2.3078,2.3078,2.3078,2.3078,2.3078,2.3078,2.3078,2.3078,2.3078,2.3078,2.3078,2.3078,2.3005,2.2884,2.1928,2.059,1.9044,1.8337,1.8008,1.8008,1.8008,1.8008,1.8008,1.8008,1.8008,1.8008,1.8008,1.8008,1.8008,1.8008,1.7862,1.751,1.5799,1.5092,1.4665,1.2879,1.2305,1.2305,1.2305,1.2305,1.2305,1.2305,1.2305,1.2305,1.2305,1.2305,1.2305,1.2305,1.2305,1.2305,1.2305,1.2305,1.2305,1.2305,1.2305,1.2305,1.2305,1.2305,1.2305,1.2305,1.2305,1.2305,1.2305,1.2305,1.2305,1.2305,1.2305,1.2305,1.2305,1.2305,1.2305,1.2305,1.2305,1.2305,1.2305,1.2305,1.2305,1.2305,1.2305,1.2305,1.2305,1.2305,1.2305,1.2305,1.2305,1.2305,0.0,0.0,1.9131,0.0,2.2248,2.2936,0.0,0.0,2.4582,0.0,2.5749,2.6722,2.6609,2.6017,2.5453,2.5287,2.4163,2.3185,2.3138,2.3078,2.3078,2.3078,2.3078,2.3078,2.3078,2.3078,2.3078,2.3078,2.3078,2.3078,2.3078,2.3078,2.3078,2.3078,2.3078,2.3078,2.3078,2.3078,2.2763,2.2063,2.0398,1.911,1.8134,1.8076,1.8008,1.8008,1.8008,1.8008,1.8008,1.8008,1.8008,1.8008,1.8008,1.8008,1.8008,1.8008,1.7501,1.6636,1.5587,1.4593,1.3738,1.2666,1.2305,1.2305,1.2305,1.2305,1.2305,1.2305,1.2305,1.2305,1.2305,1.2305,1.2305,1.2305,1.2305,1.2305,1.2305,1.2305,1.2305,1.2305,1.2305,1.2305,1.2305,1.2305,1.2305,1.2305,1.2305,1.2305,1.2305,1.2305,1.2305,1.2305,1.2305,1.2305,1.2305,1.2305,1.2305,1.2305,1.2305,1.2305,1.2305,1.2305,1.2305,1.2305,1.2305,1.2305,1.2305,1.2305,1.2305,1.2305,1.2305,1.2305,1.6671,1.8408,2.0349,0.0,2.2458,2.3266,2.3535,2.3834,2.4059,2.4059,2.4822,2.56,2.5974,2.5394,2.4797,2.4443,2.3455,2.2585,2.2266,2.2209,2.2209,2.2209,2.2209,2.2209,2.2209,2.2209,2.2209,2.2209,2.2209,2.2209,2.2209,2.2209,2.2209,2.2209,2.2209,2.2209,2.2209,2.179,2.1068,2.005,1.9287,1.8609,1.8008,1.8008,1.8008,1.8008,1.8008,1.8008,1.8008,1.8008,1.8008,1.8008,1.8008,1.8008,1.8008,1.8008,1.7432,1.6498,1.5517,1.4522,1.3528,1.2592,1.2305,1.2305,1.2305,1.2305,1.2305,1.2305,1.2305,1.2305,1.2305,1.2305,1.2305,1.2305,1.2305,1.2305,1.2305,1.2305,1.2305,1.2305,1.2305,1.2305,1.2305,1.2305,1.2305,1.2305,1.2305,1.2305,1.2305,1.2305,1.2305,1.2305,1.2305,1.2305,1.2305,1.2305,1.2305,1.2305,1.2305,1.2305,1.2305,1.2305,1.2305,1.2305,1.2305,1.2305,1.2305,1.2305,1.2305,1.2305,1.2305,1.2305,0.0,0.0,1.9951,2.1128,2.2158,2.2996,0.0,0.0,2.3595,0.0,2.4014,2.4522,2.5001,2.4765,2.4284,2.3691,2.2897,2.2213,2.1592,2.1493,2.1493,2.1493,2.1493,2.1493,2.1493,2.1493,2.1493,2.1493,2.1493,2.1493,2.1493,2.1493,2.1493,2.1493,2.1493,2.1493,2.1493,2.0538,1.9602,1.8731,1.8426,1.8167,1.7852,1.7959,1.8008,1.8008,1.8008,1.8008,1.8008,1.8008,1.8008,1.8008,1.8008,1.8008,1.8008,1.8008,1.7217,1.614,1.5446,1.4378,1.3237,1.2519,1.2305,1.2305,1.2305,1.2305,1.2305,1.2305,1.2305,1.2305,1.2305,1.2305,1.2305,1.2305,1.2305,1.2305,1.2305,1.2305,1.2305,1.2305,1.2305,1.2305,1.2305,1.2305,1.2305,1.2305,1.2305,1.2305,1.2305,1.2305,1.2305,1.2305,1.2305,1.2305,1.2305,1.2305,1.2305,1.2305,1.2305,1.2305,1.2305,1.2305,1.2305,1.2305,1.2305,1.2305,1.2305,1.2305,1.2305,1.2305,1.2305,1.2305,0.0,1.6145,0.0,1.9882,2.0812,2.1335,0.0,0.0,2.3595,2.3595,2.3625,2.367,2.3699,2.4151,2.4284,2.3691,2.2897,2.2213,2.1592,2.1493,2.1493,2.1493,2.1493,2.1493,2.1493,2.1493,2.1493,2.1493,2.1493,2.1493,2.1493,2.1493,2.1493,2.1493,2.1493,2.1493,2.1493,1.9936,1.9123,1.9037,1.7984,1.7458,1.7432,1.7832,1.8008,1.8008,1.8008,1.8008,1.8008,1.8008,1.8008,1.8008,1.8008,1.8008,1.8008,1.8008,1.6872,1.5234,1.5234,1.3947,1.2372,1.2298,1.2305,1.2305,1.2305,1.2305,1.2305,1.2305,1.2305,1.2305,1.2305,1.2305,1.2305,1.2305,1.2305,1.2305,1.2305,1.2305,1.2305,1.2305,1.2305,1.2305,1.2305,1.2305,1.2305,1.2305,1.2305,1.2305,1.2305,1.2305,1.2305,1.2305,1.2305,1.2305,1.2305,1.2305,1.2305,1.2305,1.2305,1.2305,1.2305,1.2305,1.2305,1.2305,1.2305,1.2305,1.2305,1.2305,1.2305,1.2305,1.2305,1.2305,0.0,0.0,0.0,1.9011,2.0393,2.1515,2.2218,2.3011,2.3595,2.3595,2.3595,2.3595,2.3595,2.3792,2.3741,2.3136,2.2436,2.173,2.1121,2.0665,2.0413,2.0413,2.0413,2.0413,2.0413,2.0413,2.0413,2.0413,2.0413,2.0413,2.0413,2.0413,2.0413,2.0413,2.0413,1.9961,1.901,1.8441,1.7799,1.7183,1.6755,1.6836,1.7393,1.7539,1.7754,1.8008,1.8008,1.8008,1.8008,1.8008,1.8008,1.8008,1.8008,1.7647,1.707,1.707,1.5869,1.4243,1.4243,1.3382,1.2305,1.2305,1.2305,1.2305,1.2305,1.2305,1.2305,1.2305,1.2305,1.2305,1.2305,1.2305,1.2305,1.2305,1.2305,1.2305,1.2305,1.2305,1.2305,1.2305,1.2305,1.2305,1.2305,1.2305,1.2305,1.2305,1.2305,1.2305,1.2305,1.2305,1.2305,1.2305,1.2305,1.2305,1.2305,1.2305,1.2305,1.2305,1.2305,1.2305,1.2305,1.2305,1.2305,1.2305,1.2305,1.2305,1.2305,1.2305,1.2305,1.2305,1.2305,1.2305,1.5177,0.0,0.0,0.0,1.9375,2.0602,2.1485,2.2353,2.3086,2.3505,2.3595,2.3595,2.3595,2.3421,2.3157,2.2754,2.2146,2.1472,2.0894,2.0194,1.9798,1.9798,1.9798,1.9798,1.9798,1.9798,1.9798,1.9798,1.9798,1.9798,1.9798,1.9798,1.9798,1.9798,1.9798,1.9202,1.795,1.7743,1.7129,1.6257,1.6107,1.6367,1.6943,1.71,1.7393,1.7803,1.7803,1.7881,1.8008,1.8008,1.8008,1.8008,1.8008,1.7432,1.6636,1.6636,1.5367,1.3673,1.3673,1.3098,1.2305,1.2305,1.2305,1.2305,1.2305,1.2305,1.2305,1.2305,1.2305,1.2305,1.2305,1.2305,1.2305,1.2305,1.2305,1.2305,1.2305,1.2305,1.2305,1.2305,1.2305,1.2305,1.2305,1.2305,1.2305,1.2305,1.2305,1.2305,1.2305,1.2305,1.2305,1.2305,1.2305,1.2305,1.2305,1.2305,1.2305,1.2305,1.2305,1.2305,1.2305,1.2305,1.2305,1.2305,1.2305,1.2305,1.2305,1.2305,1.2305,1.2305,1.2305,1.2445,0.0,0.0,0.0,0.0,0.0,0.0,2.0991,0.0,2.2054,2.3295,2.3565,2.3595,2.3595,2.3098,2.274,2.274,2.2146,2.152,2.0944,2.0245,1.985,1.985,1.9798,1.9798,1.9798,1.9798,1.9798,1.9798,1.9798,1.9798,1.9798,1.9798,1.9798,1.9747,1.9747,1.9423,1.8661,1.7961,1.7191,1.6436,1.6188,1.6115,1.6135,1.6514,1.6953,1.7363,1.7373,1.7617,1.7988,1.8008,1.8008,1.8008,1.8008,1.7432,1.6567,1.6567,1.5367,1.3673,1.3673,1.3098,1.2305,1.2305,1.2305,1.2305,1.2305,1.2305,1.2305,1.2305,1.2305,1.2305,1.2305,1.2305,1.2305,1.2305,1.2305,1.2305,1.2305,1.2305,1.2305,1.2305,1.2305,1.2305,1.2305,1.2305,1.2305,1.2305,1.2305,1.2305,1.2305,1.2305,1.2305,1.2305,1.2305,1.2305,1.2305,1.2305,1.2305,1.2305,1.2305,1.2305,1.2305,1.2305,1.2305,1.2305,1.2305,1.2305,1.2305,1.2305,1.2305,1.2305,1.2305,1.2806,1.5025,0.0,0.0,0.0,0.0,0.0,1.8657,0.0,2.1799,2.2143,2.2951,2.3595,2.3595,2.3465,2.3334,2.3334,2.2409,2.1805,2.2128,2.1224,2.0497,2.0497,2.0105,1.9798,1.9798,1.9798,1.9798,1.9798,1.9798,1.9798,1.9798,1.9798,1.9579,1.9044,1.898,1.8382,1.7146,1.6922,1.6425,1.569,1.5645,1.5752,1.6125,1.6191,1.6494,1.6924,1.7246,1.7451,1.7578,1.7881,1.8008,1.8008,1.8008,1.701,1.5587,1.5587,1.4378,1.2659,1.2659,1.2519,1.2305,1.2305,1.2305,1.2305,1.2305,1.2305,1.2305,1.2305,1.2305,1.2305,1.2305,1.2305,1.2305,1.2305,1.2305,1.2305,1.2305,1.2305,1.2305,1.2305,1.2305,1.2305,1.2305,1.2305,1.2305,1.2305,1.2305,1.2305,1.2305,1.2305,1.2305,1.2305,1.2305,1.2305,1.2305,1.2305,1.2305,1.2305,1.2305,1.2305,1.2305,1.2305,1.2305,1.2305,1.2305,1.2305,1.2305,1.2305,1.2305,1.2305,1.2305,1.2806,0.0,0.0,0.0,0.0,0.0,0.0,1.8298,1.975,2.1171,2.2263,2.3071,2.3595,2.3595,2.3377,2.329,2.3551,2.2756,2.2253,2.2649,2.1609,2.0795,2.0795,2.0194,1.9798,1.9798,1.9798,1.9798,1.9798,1.9798,1.9798,1.9798,1.9798,1.9475,1.8715,1.8715,1.8015,1.6482,1.6492,1.6151,1.541,1.541,1.5547,1.5791,1.5791,1.6035,1.6465,1.6719,1.6934,1.7129,1.7373,1.7686,1.8008,1.8008,1.6862,1.5234,1.5234,1.3947,1.2305,1.2305,1.2305,1.2305,1.2305,1.2305,1.2305,1.2305,1.2305,1.2305,1.2305,1.2305,1.2305,1.2305,1.2305,1.2305,1.2305,1.2305,1.2305,1.2305,1.2305,1.2305,1.2305,1.2305,1.2305,1.2305,1.2305,1.2305,1.2305,1.2305,1.2305,1.2305,1.2305,1.2305,1.2305,1.2305,1.2305,1.2305,1.2305,1.2305,1.2305,1.2305,1.2305,1.2305,1.2305,1.2305,1.2305,1.2305,1.2305,1.2305,1.2305,1.2305,1.2305,1.2305,1.2586,0.0,0.0,0.0,0.0,1.5918,0.0,1.8781,1.942,2.0213,2.2473,2.3056,2.3161,2.3161,2.2717,2.2542,2.3076,2.2849,2.2626,2.277,2.1752,2.0993,2.0993,2.0346,1.9901,1.9901,1.985,1.9798,1.9798,1.9798,1.9798,1.9798,1.9798,1.9423,1.8608,1.8555,1.7841,1.6379,1.6379,1.6036,1.541,1.541,1.541,1.541,1.541,1.5625,1.6056,1.6105,1.6289,1.666,1.6709,1.7178,1.7871,1.792,1.6798,1.5105,1.5147,1.3947,1.2305,1.2305,1.2305,1.2305,1.2305,1.2305,1.2305,1.2305,1.2305,1.2305,1.2305,1.2305,1.2305,1.2305,1.2305,1.2305,1.2305,1.2305,1.2305,1.2305,1.2305,1.2305,1.2305,1.2305,1.2305,1.2305,1.2305,1.2305,1.2305,1.2305,1.2305,1.2305,1.2305,1.2305,1.2305,1.2305,1.2305,1.2305,1.2305,1.2305,1.2305,1.2305,1.2305,1.2305,1.2305,1.2305,1.2305,1.2305,1.2305,1.2305,1.2305,1.2305,1.2305,1.2305,1.2305,0.0,0.0,0.0,0.0,1.6563,0.0,1.6683,1.776,1.8897,1.8882,1.9705,2.0453,2.0453,2.0363,2.0325,2.0453,2.1272,2.2248,2.3273,2.277,2.2314,2.2314,2.1321,2.0597,2.0597,2.0105,1.9798,1.9798,1.9798,1.9798,1.9798,1.9798,1.9202,1.7841,1.7786,1.7135,1.5633,1.5633,1.5526,1.541,1.541,1.541,1.541,1.541,1.5459,1.5557,1.5908,1.6113,1.6221,1.6582,1.6826,1.7021,1.7363,1.6318,1.469,1.5056,1.3947,1.2305,1.2305,1.2305,1.2305,1.2305,1.2305,1.2305,1.2305,1.2305,1.2305,1.2305,1.2305,1.2305,1.2305,1.2305,1.2305,1.2305,1.2305,1.2305,1.2305,1.2305,1.2305,1.2305,1.2305,1.2305,1.2305,1.2305,1.2305,1.2305,1.2305,1.2305,1.2305,1.2305,1.2305,1.2305,1.2305,1.2305,1.2305,1.2305,1.2305,1.2305,1.2305,1.2305,1.2305,1.2305,1.2305,1.2305,1.2305,1.2305,1.2305,1.2305,1.2305,1.2305,1.2305,1.2305,0.0,0.0,0.0,1.6338,1.6503,0.0,0.0,1.7876,1.8657,1.936,1.9875,2.0281,2.0477,2.0208,1.9874,1.9726,2.0827,2.168,2.165,2.2249,2.2694,2.2694,2.1833,2.1245,2.1245,2.0953,2.062,2.0295,2.0003,1.9798,1.9798,1.9798,1.9307,1.8178,1.7797,1.7079,1.5979,1.5575,1.541,1.541,1.541,1.541,1.541,1.541,1.541,1.542,1.5644,1.5732,1.5752,1.5986,1.5821,1.5572,1.6606,1.6026,1.4498,1.4755,1.3739,1.2305,1.2305,1.2305,1.2305,1.2305,1.2305,1.2305,1.2305,1.2305,1.2305,1.2305,1.2305,1.2305,1.2305,1.2305,1.2305,1.2305,1.2305,1.2305,1.2305,1.2305,1.2305,1.2305,1.2305,1.2305,1.2305,1.2305,1.2305,1.2305,1.2305,1.2305,1.2305,1.2305,1.2305,1.2305,1.2305,1.2305,1.2305,1.2305,1.2305,1.2305,1.2305,1.2305,1.2305,1.2305,1.2305,1.2305,1.2305,1.2305,1.2305,1.2305,1.2305,1.2305,1.2305,1.2305,0.0,0.0,0.0,0.0,0.0,1.6683,0.0,0.0,0.0,2.0002,2.0092,1.9971,2.0353,1.996,1.9439,1.9084,2.0158,2.0618,1.9465,2.094,2.2106,2.2106,2.2002,2.1801,2.1518,2.1305,2.1036,2.0633,1.9901,1.9585,1.9798,1.9798,1.9475,1.8715,1.795,1.7257,1.6482,1.5758,1.541,1.541,1.541,1.541,1.541,1.541,1.541,1.541,1.541,1.541,1.541,1.5225,1.4815,1.4345,1.5785,1.5411,1.4082,1.4227,1.3416,1.2225,1.2285,1.2305,1.2305,1.2305,1.2305,1.2305,1.2305,1.2305,1.2305,1.2305,1.2305,1.2305,1.2305,1.2305,1.2305,1.2305,1.2305,1.2305,1.2305,1.2305,1.2305,1.2305,1.2305,1.2305,1.2305,1.2305,1.2305,1.2305,1.2305,1.2305,1.2305,1.2305,1.2305,1.2305,1.2305,1.2305,1.2305,1.2305,1.2305,1.2305,1.2305,1.2305,1.2305,1.2305,1.2305,1.2305,1.2305,1.2305,1.2305,1.2305,1.2305,1.2305,1.2305,1.2305,0.0,0.0,0.0,0.0,1.7804,1.8067,1.687,0.0,1.6864,1.6866,0.0,1.6905,1.7257,0.0,0.0,1.6722,1.7746,1.8449,1.7987,1.914,2.005,2.005,2.1538,2.21,2.0912,1.9932,1.952,1.9876,1.8969,1.8807,1.9748,1.9798,1.9475,1.8715,1.795,1.7257,1.6482,1.5758,1.541,1.541,1.541,1.541,1.541,1.541,1.541,1.541,1.541,1.541,1.5352,1.4628,1.4273,1.4258,1.4885,1.4001,1.2568,1.3172,1.2791,1.1957,1.2211,1.2305,1.2305,1.2305,1.2305,1.2305,1.2305,1.2305,1.2305,1.2305,1.2305,1.2305,1.2305,1.2305,1.2305,1.2305,1.2305,1.2305,1.2305,1.2305,1.2305,1.2305,1.2305,1.2305,1.2305,1.2305,1.2305,1.2305,1.2305,1.2305,1.2305,1.2305,1.2305,1.2305,1.2305,1.2305,1.2305,1.2305,1.2305,1.2305,1.2305,1.2305,1.2305,1.2305,1.2305,1.2305,1.2305,1.2305,1.2305,1.2305,1.2305,1.2305,1.2305,1.2305,0.0,0.0,0.0,0.0,0.0,0.0,1.7111,1.6976,1.7157,1.7454,0.0,0.0,0.0,0.0,0.0,0.0,1.7488,1.7884,1.7028,1.8492,1.969,1.969,2.0457,2.0903,2.0709,2.0626,2.0563,2.0408,1.9585,1.9321,1.9773,1.9798,1.9643,1.9371,1.8232,1.7468,1.7135,1.5968,1.541,1.541,1.541,1.541,1.541,1.541,1.541,1.541,1.541,1.541,1.5352,1.451,1.3906,1.3502,1.3219,1.2712,1.2245,1.2736,1.2486,1.1911,1.2204,1.2305,1.2305,1.2305,1.2305,1.2305,1.2305,1.2305,1.2305,1.2305,1.2305,1.2305,1.2305,1.2305,1.2305,1.2305,1.2305,1.2305,1.2305,1.2305,1.2305,1.2305,1.2305,1.2305,1.2305,1.2305,1.2305,1.2305,1.2305,1.2305,1.2305,1.2305,1.2305,1.2305,1.2305,1.2305,1.2305,1.2305,1.2305,1.2305,1.2305,1.2305,1.2305,1.2305,1.2305,1.2305,1.2305,1.2305,1.2305,1.2305,1.2305,1.2305,1.2305,1.2305,1.9615,0.0,1.9636,1.8173,1.8021,1.8022,1.733,1.7311,1.7576,1.8021,1.8035,0.0,0.0,0.0,0.0,0.0,0.0,1.7572,1.6452,1.7731,1.8733,1.8646,1.8927,1.9427,2.0105,2.0511,2.0593,2.0294,1.9696,1.9497,1.9786,1.9798,1.9798,1.9798,1.8394,1.7578,1.7578,1.614,1.541,1.541,1.541,1.541,1.541,1.541,1.541,1.541,1.541,1.541,1.5294,1.4264,1.3554,1.2887,1.1903,1.1607,1.1797,1.2224,1.2116,1.1804,1.2171,1.2305,1.2305,1.2305,1.2305,1.2305,1.2305,1.2305,1.2305,1.2305,1.2305,1.2305,1.2305,1.2305,1.2305,1.2305,1.2305,1.2305,1.2305,1.2305,1.2305,1.2305,1.2305,1.2305,1.2305,1.2305,1.2305,1.2305,1.2305,1.2305,1.2305,1.2305,1.2305,1.2305,1.2305,1.2305,1.2305,1.2305,1.2305,1.2305,1.2305,1.2305,1.2305,1.2305,1.2305,1.2305,1.2305,1.2305,1.2305,1.2305,1.2305,1.2305,1.2305,1.2305,2.1006,2.0662,2.0272,1.8605,1.8207,1.7958,1.7019,1.7369,1.7775,1.7412,1.7897,1.8253,1.7895,0.0,0.0,0.0,0.0,0.0,0.0,1.6363,1.6302,1.5947,1.7012,1.8062,1.8788,1.8492,1.8412,1.8832,1.8499,1.8706,1.9748,1.9798,1.9798,1.9798,1.8394,1.7578,1.7578,1.614,1.541,1.541,1.541,1.541,1.541,1.541,1.541,1.541,1.541,1.541,1.5294,1.3666,1.3009,1.2826,1.1233,1.0631,1.0705,1.1283,1.143,1.1523,1.2098,1.2305,1.2305,1.2305,1.2305,1.2305,1.2305,1.2305,1.2305,1.2305,1.2305,1.2305,1.2305,1.2305,1.2305,1.2305,1.2305,1.2305,1.2305,1.2305,1.2305,1.2305,1.2305,1.2305,1.2305,1.2305,1.2305,1.2305,1.2305,1.2305,1.2305,1.2305,1.2305,1.2305,1.2305,1.2305,1.2305,1.2305,1.2305,1.2305,1.2305,1.2305,1.2305,1.2305,1.2305,1.2305,1.2305,1.2305,1.2305,1.2305,1.2305,1.2305,1.2305,1.2305,2.1485,2.168,2.1569,1.9672,1.9348,1.9167,1.7797,1.7866,1.8135,1.7699,1.8205,1.8538,1.7924,0.0,0.0,0.0,0.0,0.0,0.0,1.6565,1.6274,1.6136,1.7076,1.7648,1.747,1.8542,1.91,1.8832,1.9075,1.9422,1.9786,1.9798,1.9579,1.9097,1.8124,1.7357,1.6877,1.5911,1.541,1.541,1.541,1.541,1.541,1.541,1.541,1.5352,1.4815,1.4628,1.451,1.287,1.2205,1.2081,1.1052,1.0624,1.0628,1.1209,1.1423,1.151,1.2098,1.2305,1.2305,1.2305,1.2305,1.2305,1.2305,1.2305,1.2305,1.2305,1.2305,1.2305,1.2305,1.2305,1.2305,1.2305,1.2305,1.2305,1.2305,1.2305,1.2305,1.2305,1.2305,1.2305,1.2305,1.2305,1.2305,1.2305,1.2305,1.2305,1.2305,1.2305,1.2305,1.2305,1.2305,1.2305,1.2305,1.2305,1.2305,1.2305,1.2305,1.2305,1.2305,1.2305,1.2305,1.2305,1.2305,1.2305,1.2305,1.2305,1.2305,1.2305,1.2305,1.2305,2.2099,2.2353,2.2248,2.0498,2.0309,2.0107,1.8338,1.8471,1.88,1.826,1.8361,1.8593,1.8805,0.0,0.0,0.0,0.0,0.0,0.0,1.6825,1.6421,1.6313,1.6742,1.7048,1.7113,1.7963,1.8669,1.9123,1.9195,1.9397,1.9786,1.9798,1.9579,1.9097,1.8112,1.7357,1.6922,1.5921,1.541,1.541,1.541,1.541,1.541,1.5108,1.4991,1.4932,1.4145,1.3786,1.3666,1.2381,1.1834,1.171,1.0926,1.0624,1.0628,1.1209,1.1557,1.179,1.2171,1.2305,1.2305,1.2305,1.2305,1.2305,1.2305,1.2305,1.2305,1.2305,1.2305,1.2305,1.2305,1.2305,1.2305,1.2305,1.2305,1.2305,1.2305,1.2305,1.2305,1.2305,1.2305,1.2305,1.2305,1.2305,1.2305,1.2305,1.2305,1.2305,1.2305,1.2305,1.2305,1.2305,1.2305,1.2305,1.2305,1.2305,1.2305,1.2305,1.2305,1.2305,1.2305,1.2305,1.2305,1.2305,1.2305,1.2305,1.2305,1.2305,1.2305,1.2305,1.2305,1.2305]},{"header":{"parameterUnit":"m.s-1","parameterCategory":1,"la1":30.6,"la2":29.2853,"lo1":-89.7004,"lo2":-87.6739,"dy":0.0162,"dx":0.0183,"nx":112,"ny":82,"refTime":"2023-09-22T18:00:00:Z","depth":0,"parameterNumber":3,"parameterNumberName":"V-component_of_WINDS"},"data":[0.0,0.0,0.0,0.0,0.0,0.0,0.0,0.0,0.0,0.0,0.0,0.0,0.0,0.0,0.0,0.0,0.0,0.0,0.0,0.0,0.0,0.0,0.0,0.0,0.0,0.0,0.0,0.0,0.0,0.0,0.0,0.0,0.0,0.0,0.0,0.0,0.0,0.0,0.0,0.0,0.0,0.0,0.0,0.0,0.0,0.0,0.0,0.0,0.0,0.0,0.0,0.0,0.0,0.0,0.0,0.0,0.0,0.0,0.0,0.0,0.0,0.0,0.0,0.0,0.0,0.0,0.0,0.0,0.0,0.0,0.0,0.0,0.0,0.0,0.0,0.0,0.0,0.0,0.0,0.0,0.0,0.0,0.0,0.0,0.0,0.0,0.0,0.0,0.0,0.0,1.2235,1.2114,1.2902,1.3518,1.3714,1.3645,1.3108,1.2025,0.0,0.0,0.0,0.0,0.0,0.0,0.0,0.0,0.0,0.0,0.0,0.0,0.0,0.0,0.0,0.0,0.0,0.0,0.0,0.0,0.0,0.0,0.0,0.0,0.0,0.0,0.0,0.0,0.0,0.0,0.0,0.0,0.0,0.0,0.0,0.0,0.0,0.0,0.0,0.0,0.0,0.0,0.0,0.0,0.0,0.0,0.0,0.0,0.0,0.0,0.0,0.0,0.0,0.0,0.0,0.0,0.0,0.0,0.0,0.0,0.0,0.0,0.0,0.0,0.0,0.0,0.0,0.0,0.0,0.0,0.0,0.0,0.0,0.0,0.0,0.0,0.0,0.0,0.0,0.0,0.0,0.0,0.0,0.0,0.0,0.0,0.0,0.0,0.0,0.0,0.0,0.0,0.0,0.0,0.0,0.0,0.0,0.0,0.0,0.0,0.0,0.0,0.0,0.0,1.2392,1.4117,1.4518,1.5014,1.5915,1.5573,1.4831,1.3716,0.0,0.0,0.0,0.0,0.0,0.0,0.0,0.0,0.0,0.0,0.0,0.0,0.0,0.0,0.0,0.0,0.0,0.0,0.0,0.0,0.0,0.0,0.0,0.0,0.0,0.0,0.0,0.0,0.0,0.0,0.0,0.0,0.0,0.0,0.0,0.0,0.0,0.0,0.0,0.0,0.0,0.0,0.0,0.0,0.0,0.0,0.0,0.0,0.0,0.0,0.0,0.0,0.0,0.0,0.0,0.0,0.0,0.0,0.0,0.0,0.0,0.0,0.0,0.0,0.0,0.0,0.0,0.0,0.0,0.0,0.0,0.0,0.0,0.0,0.0,0.0,0.0,0.0,0.0,0.0,0.0,0.0,0.0,0.0,0.0,0.0,0.0,0.0,0.0,0.0,0.0,0.0,0.0,0.0,0.0,0.0,0.0,0.0,0.0,0.0,0.0,0.0,0.0,1.2504,1.3095,1.467,1.4866,1.5234,1.601,1.5841,1.5332,1.4456,1.3932,0.0,0.0,0.0,0.0,0.0,0.0,0.0,0.0,0.0,0.0,0.0,0.0,0.0,0.0,0.0,0.0,0.0,0.0,0.0,0.0,0.0,0.0,0.0,0.0,0.0,0.0,0.0,0.0,0.0,0.0,0.0,0.0,0.0,0.0,0.0,0.0,0.0,0.0,0.0,0.0,0.0,0.0,0.0,0.0,0.0,0.0,0.0,0.0,0.0,0.0,0.0,0.0,0.0,0.0,0.0,0.0,0.0,0.0,0.0,0.0,0.0,0.0,0.0,0.0,0.0,0.0,0.0,0.0,0.0,0.0,0.0,0.0,0.0,0.0,0.0,0.0,0.0,0.0,0.0,0.0,0.0,0.0,0.0,0.0,0.0,0.0,0.0,0.0,0.0,0.0,0.0,0.0,0.0,0.0,0.0,0.0,0.0,0.0,0.0,0.0,0.0,0.0,1.413,1.4547,1.5552,1.5659,1.5916,1.6578,1.6541,1.6094,1.5336,1.5441,0.0,0.0,0.0,0.0,0.0,0.0,0.0,0.0,0.0,0.0,0.0,0.0,0.0,0.0,0.0,0.0,0.0,0.0,0.0,0.0,0.0,0.0,0.0,0.0,0.0,0.0,0.0,0.0,0.0,0.0,0.0,0.0,0.0,0.0,0.0,0.0,0.0,0.0,0.0,0.0,0.0,0.0,0.0,0.0,0.0,0.0,0.0,0.0,0.0,0.0,0.0,0.0,0.0,0.0,0.0,0.0,0.0,0.0,0.0,0.0,0.0,0.0,0.0,0.0,0.0,0.0,0.0,0.0,0.0,0.0,0.0,0.0,0.0,0.0,0.0,0.0,0.0,0.0,0.0,0.0,0.0,0.0,0.0,0.0,0.0,0.0,0.0,0.0,0.0,0.0,0.0,0.0,0.0,0.0,0.0,0.0,0.0,0.0,0.0,0.0,0.0,0.0,1.576,1.7227,1.7799,1.7866,1.8278,1.9309,1.895,1.8179,1.6997,1.6958,0.0,0.0,0.0,0.0,0.0,0.0,0.0,0.0,0.0,0.0,0.0,0.0,0.0,0.0,0.0,0.0,0.0,0.0,0.0,0.0,0.0,0.0,0.0,0.0,0.0,0.0,0.0,0.0,0.0,0.0,0.0,0.0,0.0,0.0,0.0,0.0,0.0,0.0,0.0,0.0,0.0,0.0,0.0,0.0,0.0,0.0,0.0,0.0,0.0,0.0,0.0,0.0,0.0,0.0,0.0,0.0,0.0,0.0,0.0,0.0,0.0,0.0,0.0,0.0,0.0,0.0,0.0,0.0,0.0,0.0,0.0,0.0,0.0,0.0,0.0,0.0,0.0,0.0,0.0,0.0,0.0,0.0,0.0,0.0,0.0,0.0,0.0,0.0,0.0,0.0,0.0,0.0,0.0,0.0,0.0,0.0,0.0,0.0,0.0,0.0,0.0,0.0,1.6364,1.7497,1.8026,1.8085,1.8419,1.9132,1.9006,1.8506,1.7526,0.0,0.0,0.0,0.0,0.0,0.0,0.0,0.0,0.0,0.0,0.0,0.0,0.0,0.0,0.0,0.0,0.0,0.0,0.0,0.0,0.0,0.0,0.0,0.0,0.0,0.0,0.0,0.0,0.0,0.0,0.0,0.0,0.0,0.0,0.0,0.0,0.0,0.0,0.0,0.0,0.0,0.0,0.0,0.0,0.0,0.0,0.0,0.0,0.0,0.0,0.0,0.0,0.0,0.0,0.0,0.0,0.0,0.0,0.0,0.0,0.0,0.0,0.0,0.0,0.0,0.0,0.0,0.0,0.0,0.0,0.0,0.0,0.0,0.0,0.0,0.0,0.0,0.0,0.0,0.0,0.0,0.0,0.0,0.0,0.0,0.0,0.0,0.0,0.0,0.0,0.0,0.0,0.0,0.0,0.0,0.0,0.0,0.0,0.0,0.0,0.0,0.0,1.5984,1.7259,1.8218,1.8569,1.8612,1.8765,1.9132,1.9169,1.8737,1.7772,0.0,0.0,0.0,0.0,0.0,0.0,0.0,0.0,0.0,0.0,0.0,0.0,0.0,0.0,0.0,0.0,0.0,0.0,0.0,0.0,0.0,0.0,0.0,0.0,0.0,0.0,0.0,0.0,0.0,0.0,0.0,0.0,0.0,0.0,0.0,0.0,0.0,0.0,0.0,0.0,0.0,0.0,0.0,0.0,0.0,0.0,0.0,0.0,0.0,0.0,0.0,0.0,0.0,0.0,0.0,0.0,0.0,0.0,0.0,0.0,0.0,0.0,0.0,0.0,0.0,0.0,0.0,0.0,0.0,0.0,0.0,0.0,0.0,0.0,0.0,0.0,0.0,0.0,0.0,0.0,0.0,0.0,0.0,0.0,0.0,0.0,0.0,0.0,0.0,0.0,0.0,0.0,0.0,0.0,0.0,0.0,0.0,0.0,0.0,0.0,0.0,0.0,1.6949,1.8608,1.969,1.969,1.969,1.969,1.969,1.969,1.9121,0.0,0.0,0.0,0.0,0.0,0.0,0.0,0.0,0.0,0.0,0.0,0.0,0.0,0.0,0.0,0.0,0.0,0.0,0.0,0.0,0.0,0.0,0.0,0.0,0.0,0.0,0.0,0.0,0.0,0.0,0.0,0.0,0.0,0.0,0.0,0.0,0.0,0.0,0.0,0.0,0.0,0.0,0.0,0.0,0.0,0.0,0.0,0.0,0.0,0.0,0.0,0.0,0.0,0.0,0.0,0.0,0.0,0.0,0.0,0.0,0.0,0.0,0.0,0.0,0.0,0.0,0.0,0.0,0.0,0.0,0.0,0.0,0.0,0.0,0.0,0.0,0.0,0.0,0.0,0.0,0.0,0.0,0.0,0.0,0.0,0.0,0.0,0.0,0.0,0.0,0.0,0.0,0.0,0.0,0.0,0.0,0.0,0.0,0.0,0.0,0.0,0.0,0.0,1.6996,1.8608,1.969,1.969,1.969,1.969,1.969,1.969,1.9121,1.7772,0.0,0.0,0.0,0.0,0.0,0.0,0.0,0.0,0.0,0.0,0.0,0.0,0.0,0.0,0.0,0.0,0.0,0.0,0.0,0.0,0.0,0.0,0.0,0.0,0.0,0.0,0.0,0.0,0.0,0.0,0.0,0.0,0.0,0.0,0.0,0.0,0.0,0.0,0.0,0.0,0.0,0.0,0.0,0.0,0.0,0.0,0.0,0.0,0.0,0.0,0.0,0.0,0.0,0.0,0.0,0.0,0.0,0.0,0.0,0.0,0.0,0.0,0.0,0.0,0.0,0.0,0.0,0.0,0.0,0.0,0.0,0.0,0.0,0.0,0.0,0.0,0.0,0.0,0.0,0.0,0.0,0.0,0.0,0.0,0.0,0.0,0.0,0.0,0.0,0.0,0.0,0.0,0.0,0.0,0.0,0.0,0.0,0.0,0.0,0.0,0.0,0.0,1.7581,1.9114,2.0198,2.0468,2.0483,2.0483,2.0483,2.0483,2.0034,1.8952,0.0,0.0,0.0,0.0,0.0,0.0,0.0,0.0,0.0,0.0,0.0,0.0,0.0,0.0,0.0,0.0,0.0,0.0,0.0,0.0,0.0,0.0,0.0,0.0,0.0,0.0,0.0,0.0,0.0,0.0,0.0,0.0,0.0,0.0,0.0,0.0,0.0,0.0,0.0,0.0,0.0,0.0,0.0,0.0,0.0,0.0,0.0,0.0,0.0,0.0,0.0,0.0,0.0,0.0,0.0,0.0,0.0,0.0,0.0,0.0,0.0,0.0,0.0,0.0,0.0,0.0,0.0,0.0,0.0,0.0,0.0,0.0,0.0,0.0,0.0,0.0,0.0,0.0,0.0,0.0,0.0,0.0,0.0,0.0,0.0,0.0,0.0,0.0,0.0,0.0,0.0,0.0,0.0,0.0,0.0,0.0,0.0,0.0,0.0,0.0,0.0,0.0,1.8478,1.9929,2.1036,2.1635,2.1695,2.1695,2.1695,2.1695,2.141,2.0752,0.0,0.0,0.0,0.0,0.0,0.0,0.0,0.0,0.0,0.0,0.0,0.0,0.0,0.0,0.0,0.0,0.0,0.0,0.0,0.0,0.0,0.0,0.0,0.0,0.0,0.0,0.0,0.0,0.0,0.0,0.0,0.0,0.0,0.0,0.0,0.0,0.0,0.0,0.0,0.0,0.0,0.0,0.0,0.0,0.0,0.0,0.0,0.0,0.0,0.0,0.0,0.0,0.0,0.0,0.0,0.0,0.0,0.0,0.0,0.0,0.9241,0.0,0.0,0.0,0.0,0.0,0.0,0.0,0.0,0.0,0.0,0.0,0.0,0.0,0.0,0.0,0.0,0.0,0.0,0.0,0.0,0.0,0.0,0.0,0.0,0.0,0.0,0.0,0.0,0.0,0.0,0.0,0.0,0.0,0.0,0.0,0.0,0.0,0.0,0.0,0.0,0.0,1.8583,2.0333,2.1545,2.168,2.1695,2.1695,2.1695,2.1695,2.141,2.0752,1.9809,0.0,0.0,0.0,0.0,0.0,0.0,0.0,0.0,0.0,0.0,0.0,0.0,0.0,0.0,0.0,0.0,0.0,0.0,0.0,0.0,0.0,0.0,0.0,0.0,0.0,0.0,0.0,0.0,0.0,0.0,0.0,0.0,0.0,0.0,0.0,0.0,0.0,0.0,0.0,0.0,0.0,0.0,0.0,0.0,0.0,0.0,0.0,0.0,0.0,0.0,0.0,0.0,0.0,0.0,0.0,0.0,0.0,0.0,0.0,0.0,0.9636,0.0,0.0,0.0,0.0,0.0,0.0,0.0,0.0,0.0,0.0,0.0,0.0,0.0,0.0,0.0,0.0,0.0,0.0,0.0,0.0,0.0,0.0,0.0,0.0,0.0,0.0,0.0,0.0,0.0,0.0,0.0,0.0,0.0,0.0,0.0,0.0,0.0,0.0,0.0,0.0,1.9046,2.0932,2.2278,2.2577,2.2607,2.2731,2.3,2.2985,2.2952,2.2871,2.1916,0.0,0.0,0.0,0.0,0.0,0.0,0.0,0.0,0.0,0.0,0.0,0.0,0.0,0.0,0.0,0.0,0.0,0.0,0.0,0.0,0.0,0.0,0.0,0.0,0.0,0.0,0.0,0.0,0.0,0.0,0.0,0.0,0.0,0.0,0.0,0.0,0.0,0.0,0.0,0.0,0.0,0.0,0.0,0.0,0.0,0.0,0.0,0.0,0.0,0.0,0.0,0.0,0.0,1.0875,1.1662,1.2639,1.2516,1.3362,1.4766,1.23,1.1614,1.2068,1.041,0.0,0.0,0.0,0.0,0.0,0.0,0.0,0.0,0.0,0.0,0.0,0.0,0.0,0.0,0.0,0.0,0.0,0.0,0.0,0.0,0.0,0.0,1.6211,1.6394,1.7642,1.8503,1.761,0.0,0.0,0.0,0.0,0.0,0.0,0.0,0.0,0.0,0.0,0.0,1.9984,2.1822,2.322,2.3819,2.3879,2.4074,2.4511,2.4552,2.4752,2.5182,2.4168,2.3449,0.0,0.0,0.0,0.0,0.0,0.0,0.0,0.0,0.0,0.0,0.0,0.0,0.0,0.0,0.0,0.0,0.0,0.0,0.0,0.0,0.0,0.0,0.0,0.0,0.0,0.0,0.0,0.0,0.0,0.0,0.0,0.0,0.7625,0.7625,0.0,0.0,0.0,0.0,0.0,0.0,0.0,0.0,0.0,0.0,0.0,0.0,0.0,0.9713,1.0109,1.1209,1.2129,1.2857,1.3928,1.4744,1.5209,1.4562,1.5252,1.6824,1.5323,0.0,1.3334,1.2625,0.0,0.0,0.0,0.0,0.0,0.0,0.0,0.0,0.0,0.0,0.0,0.0,0.0,0.0,0.0,0.0,0.0,0.0,0.0,0.0,0.0,0.0,1.82,1.9138,1.9964,2.0657,2.0951,1.983,1.8722,1.8585,1.839,1.8007,0.0,0.0,0.0,0.0,0.0,0.0,2.1815,2.3288,2.4378,2.4934,2.4989,2.5028,2.5105,2.5105,2.5128,2.5182,2.5045,2.4425,2.324,2.298,0.0,0.0,0.0,0.0,0.0,0.0,0.0,0.0,0.0,0.0,0.0,0.0,0.0,0.0,0.0,0.0,0.0,0.0,0.0,0.0,0.0,0.0,0.0,0.0,0.0,0.0,0.0,0.0,0.0,0.6954,0.7185,0.7539,0.723,0.6837,0.0,0.0,0.0,0.0,0.0,0.0,0.0,0.0,0.0,0.9843,1.0935,1.1707,1.2072,1.3036,1.3724,1.4155,1.5582,1.6637,1.7296,1.7402,1.8272,1.9621,1.8745,1.8065,1.741,1.5109,1.3769,1.314,0.0,0.0,0.0,0.0,1.3404,1.4101,1.4711,1.511,1.5377,1.5624,0.0,0.0,0.0,0.0,0.0,0.0,0.0,1.6052,1.7222,1.8156,1.903,2.0175,2.1207,2.1987,2.2207,2.1932,2.1321,2.0203,1.9611,1.8927,1.7861,1.8336,0.0,0.0,0.0,2.1929,2.2758,2.4002,2.495,2.5166,2.5221,2.5335,2.5615,2.5652,2.5762,2.6016,2.6052,2.5771,2.5194,2.4181,2.3063,0.0,0.0,0.0,0.0,0.0,0.0,0.0,0.0,0.0,0.0,0.0,0.0,0.0,0.0,0.0,0.0,0.0,0.0,0.0,0.0,0.0,0.0,0.0,0.0,0.0,0.0,0.0,0.0,0.7276,0.756,0.7895,0.7976,0.7717,0.0,0.0,0.0,0.0,0.0,0.0,0.9828,1.0831,1.1491,1.1639,1.2763,1.3574,1.3994,1.4862,1.537,1.5608,1.7181,1.8299,1.8977,1.9601,2.0458,2.1468,2.0877,2.0757,2.0652,1.7461,1.6027,1.5714,1.4862,1.4537,1.4598,1.4856,1.5425,1.611,1.6791,1.7276,1.7589,1.7589,1.7143,1.6556,1.6304,0.0,0.0,0.0,0.0,1.7209,1.8434,1.9259,2.0062,2.1097,2.2157,2.2906,2.2906,2.3146,2.2981,2.1695,2.1036,2.0295,1.9114,2.0054,0.0,1.9815,2.1709,2.3356,2.3867,2.4802,2.5449,2.5561,2.5598,2.5746,2.6156,2.6191,2.6332,2.6691,2.6691,2.6691,2.6691,2.5397,2.4496,2.4129,0.0,0.0,0.0,0.0,0.0,0.0,0.0,0.0,0.0,0.0,0.0,0.0,0.0,0.0,0.0,0.0,0.0,0.0,0.0,0.0,0.0,0.0,0.0,0.0,0.0,0.0,0.0,0.0,0.0,0.9436,1.009,0.0,0.0,0.0,0.0,1.0079,1.047,1.1033,1.1813,1.2342,1.2838,1.3357,1.4238,1.4893,1.5312,1.6478,1.7287,1.7697,1.9283,2.0074,2.0133,2.026,2.0754,2.1493,2.0754,2.0799,2.1305,1.9521,1.8252,1.7327,1.6725,1.5889,1.5164,1.6123,1.651,1.6711,1.7765,1.8166,1.8166,1.8166,1.7451,1.6674,1.719,1.6626,0.0,0.0,1.7777,1.8468,1.9648,2.0848,2.1917,2.2449,2.3069,2.355,2.355,2.3116,2.2877,2.3355,2.343,2.3134,2.2315,0.0,2.2441,2.2879,2.3095,2.3816,2.5645,2.5928,2.612,2.659,2.6607,2.6624,2.6657,2.6657,2.6657,2.6691,2.6691,2.6691,2.6691,2.6623,2.593,2.4509,2.436,0.0,0.0,0.0,0.0,0.0,0.0,0.0,0.0,0.0,0.0,0.0,0.0,0.0,0.0,0.0,0.0,0.0,0.0,0.0,0.0,0.0,0.0,0.0,0.0,0.0,0.0,0.0,0.0,1.0233,1.1027,0.0,1.0586,1.1319,1.1814,1.1814,1.248,1.3157,1.3742,1.4217,1.4685,1.5146,1.5732,1.6103,1.626,1.7124,1.7852,1.8354,1.9388,2.0361,2.1318,2.1318,2.1812,2.2489,2.2241,2.23,2.2472,2.1531,2.0707,2.0064,1.9865,1.951,1.9245,1.9611,1.9738,1.9815,2.0185,2.0313,2.0313,2.0313,2.007,1.979,1.9972,1.977,1.9633,2.0488,2.088,2.1358,2.2665,2.3369,2.3833,2.4408,2.4744,2.4896,2.4896,2.4717,2.4582,2.475,2.407,2.3247,2.2514,2.3692,2.4506,2.38,2.4695,2.568,2.6369,2.6436,2.6505,2.6691,2.6691,2.6691,2.6691,2.6691,2.6691,2.6691,2.6691,2.6691,2.6691,2.6691,2.6437,2.5913,2.5913,2.465,0.0,0.0,0.0,0.0,0.0,0.0,0.0,0.0,0.0,0.0,0.0,0.0,0.0,0.0,0.0,0.0,0.0,0.0,0.0,0.0,0.0,0.0,0.0,0.0,0.0,0.0,1.1302,1.1132,1.2202,1.2715,1.2114,1.3149,1.3864,1.3864,1.4542,1.5137,1.543,1.5703,1.5986,1.6279,1.6719,1.7071,1.7369,1.7691,1.8161,1.8837,1.9646,2.0517,2.1491,2.2063,2.258,2.3078,2.3078,2.3078,2.3053,2.2736,2.2372,2.2008,2.1631,2.1493,2.1493,2.1493,2.1493,2.1493,2.1493,2.1493,2.1493,2.1493,2.1493,2.1493,2.1493,2.1648,2.1953,2.247,2.2936,2.3496,2.4468,2.4839,2.5096,2.5506,2.5615,2.5646,2.5848,2.5894,2.594,2.6076,2.4979,2.3966,2.3644,2.4944,2.5754,2.5029,2.5916,2.6691,2.6691,2.6691,2.6691,2.6691,2.6691,2.6691,2.6691,2.6471,2.6437,2.6674,2.6471,2.6437,2.6674,2.6454,2.6201,2.5947,2.5947,2.4983,2.3038,0.0,0.0,0.0,0.0,0.0,0.0,0.0,0.0,0.0,0.0,0.0,0.0,0.0,0.0,0.0,0.0,0.0,0.0,0.0,0.0,0.0,0.0,0.0,1.088,1.1496,1.2109,1.221,1.3774,1.4609,1.3976,1.5231,1.6145,1.6145,1.6484,1.6738,1.6748,1.6748,1.6758,1.6714,1.7178,1.783,1.8627,1.8185,1.8462,1.9365,2.0204,2.059,2.0719,2.231,2.3078,2.3078,2.3078,2.3078,2.3078,2.3078,2.3078,2.3025,2.1958,2.1543,2.1543,2.1543,2.1543,2.1543,2.1543,2.1543,2.1543,2.1543,2.1543,2.1543,2.1599,2.2115,2.2684,2.2738,2.3705,2.4737,2.4785,2.5202,2.5674,2.5674,2.5674,2.5831,2.6423,2.6541,2.6745,2.7352,2.6409,2.5648,2.6012,2.6079,2.6258,2.6691,2.6759,0.0,2.6759,2.6759,2.6759,2.6725,2.6725,2.6725,2.6725,2.6082,2.5981,2.6742,2.6099,2.6031,2.6759,2.6082,2.5372,2.4659,2.4608,2.4574,2.4574,0.0,0.0,0.0,0.0,0.0,0.0,0.0,0.0,0.0,0.0,0.0,0.0,0.0,0.0,0.0,0.0,0.0,0.0,0.0,0.0,0.0,0.0,1.2924,1.1791,1.3249,1.4449,1.4506,1.5484,1.613,1.5946,1.6282,1.6553,1.6553,1.666,1.6865,1.7187,1.7207,1.7344,1.7646,1.7773,1.8215,1.911,1.8402,1.9044,2.1164,2.0139,2.0643,2.2433,2.231,2.2567,2.3078,2.3078,2.3078,2.3078,2.3078,2.3078,2.304,2.2799,2.2686,2.2686,2.2686,2.2686,2.2686,2.2686,2.2686,2.2686,2.2686,2.2686,2.2791,2.336,2.369,2.4086,2.5117,2.5716,2.6133,2.6657,2.6922,2.7036,2.7036,2.7036,2.7218,2.7812,2.7938,2.8105,2.8623,2.8404,2.8046,2.7657,2.7914,2.8241,2.8349,2.8349,2.8349,2.8349,2.8349,2.8129,2.7571,2.752,2.752,2.752,2.7299,2.7641,2.8731,2.8339,2.8287,2.8766,2.8339,2.796,2.7792,2.664,2.6082,0.0,0.0,0.0,0.0,0.0,0.0,0.0,0.0,0.0,0.0,0.0,0.0,0.0,0.0,0.0,0.0,0.0,0.0,0.0,0.0,0.0,0.0,1.358,1.4101,1.3522,1.4551,1.5547,1.5918,1.6582,1.7002,1.7002,1.7168,1.7266,1.7266,1.7266,1.7504,1.8137,1.7836,1.7955,1.8519,1.8519,1.8787,1.9299,1.9177,1.9814,2.1365,2.0719,2.1164,2.2567,2.2445,2.2628,2.3078,2.3078,2.3078,2.3078,2.3078,2.3078,2.3078,0.0,0.0,0.0,0.0,2.3078,2.3138,2.3484,2.359,2.3649,2.3989,2.4034,2.415,2.4624,2.4951,2.5398,2.6283,2.6721,2.7034,2.7509,2.7625,2.7625,2.7625,2.781,2.814,2.8732,2.9104,2.9412,2.993,3.0049,0.0,2.9538,2.9215,2.9011,2.9011,2.9011,2.9011,2.9011,2.9011,2.8897,2.8579,2.8562,2.863,2.8815,2.8555,0.0,0.0,0.0,2.9204,2.9425,2.8712,0.0,0.0,0.0,2.7392,2.8207,2.7355,0.0,0.0,2.505,2.467,0.0,0.0,0.0,0.0,0.0,0.0,0.0,0.0,0.0,0.0,0.0,0.0,0.0,0.0,0.0,0.0,1.4756,1.5576,1.5625,1.5635,1.5928,1.6709,1.7197,1.7451,1.7451,1.7793,1.8008,1.8008,1.8076,1.8462,1.911,0.0,0.0,0.0,0.0,1.9497,1.9562,2.0268,2.0719,2.091,2.1553,2.1939,2.2063,2.275,2.3078,2.3078,2.3078,2.3078,2.3078,2.3078,2.3125,2.3245,2.3138,2.3078,2.3078,2.3078,2.3078,2.3185,2.4002,0.0,0.0,2.5175,2.5398,2.5398,2.5508,2.596,2.651,2.6616,2.71,2.7625,2.7625,2.7625,2.7625,2.7675,2.8091,2.8685,2.9361,2.9935,3.0477,3.1095,3.119,3.123,3.1252,3.0204,2.9321,2.9321,2.9357,2.9377,2.9377,2.9377,2.9504,2.9761,2.981,0.0,3.0401,2.9822,2.9799,3.0581,3.0006,2.9614,2.9585,2.8556,2.8491,2.9538,2.8509,2.8811,3.0543,3.0543,3.0543,3.0472,2.7256,2.6469,0.0,0.0,0.0,0.0,0.0,0.0,0.0,0.0,0.0,0.0,0.0,0.0,0.0,0.0,0.0,1.4971,1.585,1.6602,1.6953,1.7002,1.707,1.7236,1.7627,1.7891,1.7891,1.7959,1.8008,1.8008,1.8654,1.8787,1.8269,1.9431,1.9814,1.9299,2.0009,2.0719,2.1365,2.0846,2.129,2.2628,0.0,0.0,2.2884,2.3005,2.3078,2.3078,2.3078,2.3078,2.3078,2.3078,2.3484,2.4002,2.3365,2.3078,2.3078,2.3078,2.3078,2.3185,2.4002,2.4292,2.4408,2.5175,2.5398,2.5508,2.6122,2.6404,0.0,2.7203,2.7509,2.7625,2.7625,2.7625,2.771,2.8189,2.8415,2.8779,2.9892,3.0208,3.0477,3.1095,3.119,3.1291,3.164,3.1455,3.1265,3.1265,3.1568,3.1809,3.1809,3.1809,3.1648,3.1126,3.1055,3.1087,3.1182,3.1058,3.1462,3.2571,3.2511,3.2271,3.1877,3.1638,3.1621,3.1845,3.1638,3.1709,3.2075,3.2075,3.2075,3.2022,3.0181,2.9473,0.0,0.0,0.0,0.0,0.0,0.0,0.0,0.0,0.0,0.0,0.0,1.3193,0.0,0.0,1.5476,1.6536,1.7215,1.7922,1.8585,1.8816,1.8647,1.7829,1.7881,1.8134,1.8596,1.8269,1.8202,1.8586,1.8654,1.8654,1.8654,1.9497,1.9944,1.9944,2.0782,2.1239,2.1239,2.1678,2.2063,2.2506,2.2506,2.2689,2.3078,2.3078,2.3078,2.3078,2.3078,2.3078,2.3138,2.3531,2.3943,2.4292,2.4266,2.4266,2.4208,2.3826,2.393,2.4381,2.5119,2.5398,2.5508,2.6269,2.6481,2.6587,2.693,2.7034,2.7152,2.7509,2.7625,2.7675,2.7944,2.8042,2.8174,2.8826,2.918,2.9585,3.0166,3.0518,3.0902,3.1393,3.1507,3.164,3.2074,3.2332,3.2433,3.2196,3.235,3.2484,3.2484,3.2484,3.2441,3.2304,3.2281,3.2373,3.2582,3.26,3.2868,3.3458,3.3494,3.339,3.3166,3.2983,3.2934,3.3166,3.2934,3.2934,3.3148,3.3148,3.3148,3.313,3.2383,3.1946,0.0,0.0,0.0,0.0,0.0,0.0,0.0,0.0,1.2842,1.3701,1.3945,1.439,1.5682,1.596,1.6537,1.8118,1.869,1.9242,1.9923,2.0333,2.0074,1.8654,1.8529,1.8787,1.9497,1.8911,1.8787,1.9497,1.9044,1.8977,1.9497,1.9879,2.0268,2.0846,2.1678,2.1815,2.1101,2.2433,2.275,2.2125,2.2823,2.3078,2.3078,2.3078,2.3078,2.3138,2.3245,2.3305,2.3424,2.4337,2.4738,2.4794,2.5398,2.5728,2.5728,2.4851,2.4908,2.5508,2.6229,2.651,2.6616,2.7357,2.7625,2.7625,2.7625,2.7625,2.7625,2.7625,2.766,2.791,2.8367,2.8606,2.8826,2.9451,2.9951,3.0335,3.0435,3.0902,3.1411,3.1716,3.188,3.2109,3.255,3.2952,3.3075,3.2681,3.2713,3.2745,3.2745,3.2745,3.2903,3.3273,3.3302,3.3465,3.3762,3.3807,3.3807,3.3807,3.3807,3.3807,3.3807,3.3494,3.3465,3.3788,3.3494,3.3494,3.3807,3.3807,3.3807,3.3807,3.3807,3.3625,0.9452,1.0498,1.1635,1.2529,1.2441,1.2461,0.0,0.0,1.4107,1.5019,1.5508,1.6178,1.749,1.7978,1.8585,1.9565,2.005,2.0437,2.0512,2.0557,2.0526,2.0333,2.0333,2.0333,2.0462,2.0398,2.0333,2.0462,2.1112,2.1175,2.0462,2.1865,2.2372,2.1753,2.2567,2.2944,2.2811,2.3017,2.3065,2.2944,2.3078,2.3078,2.3078,2.3078,2.3078,2.3125,2.3826,2.4176,2.4292,2.5673,2.6229,2.6283,2.6336,2.6774,2.7188,2.5783,2.5342,2.5508,2.6229,2.651,2.6616,2.7357,2.7625,2.7625,2.7625,2.7625,2.7625,2.7625,2.8008,2.8415,2.8463,2.8919,2.9451,3.0081,3.0251,3.0435,3.0975,3.1432,3.1752,3.1789,3.2144,3.2583,3.3045,3.3184,3.3184,3.3154,3.3419,3.3662,3.3662,3.3662,3.3662,3.3734,3.3734,3.3734,3.3807,3.3807,3.3807,3.3807,3.3807,3.3807,3.3807,3.3762,3.3734,3.3807,3.3762,3.3762,3.3807,3.3807,3.3807,3.3807,3.3807,3.378,1.1025,1.199,1.2842,0.0,1.3662,1.3926,1.4697,1.5078,1.543,1.6045,1.6318,1.6822,1.8114,1.847,1.9125,0.0,2.1225,2.1553,2.199,2.2051,2.2051,2.2051,2.2051,2.1667,2.0719,2.0139,2.0074,2.059,2.091,2.0974,2.059,2.1741,2.2261,2.1877,2.2689,2.3078,2.3078,2.3078,2.3078,2.3078,2.3078,2.3078,2.3138,2.3603,2.4047,2.4439,2.4781,2.4951,2.5007,2.6068,2.651,2.6563,2.6982,2.7306,2.7458,2.6443,2.6322,2.6707,2.7034,2.7137,2.7203,2.7509,2.7625,2.7625,2.7625,2.7625,2.766,2.8042,2.8334,2.8654,2.9361,2.9717,3.0081,3.0699,3.0821,3.0942,3.1452,3.1696,3.1951,3.25,3.2777,3.3045,3.3494,3.355,3.355,3.355,3.3707,3.3807,3.3807,3.3807,3.3807,3.3807,3.3807,3.3807,3.3807,3.3807,3.3807,3.3807,3.3807,3.3807,3.3807,3.3807,3.3807,3.3807,3.3807,3.3807,3.3807,3.3807,3.3807,3.3807,3.3807,3.3807,1.2153,1.3058,0.0,1.4355,1.4814,1.5244,1.5674,1.6113,1.6523,1.6846,1.7002,1.7481,1.886,1.9169,1.9849,2.188,2.2261,2.2445,2.3005,2.3078,2.3078,2.3078,2.2884,2.231,2.1112,2.059,2.0579,2.1227,2.129,2.129,2.129,2.1877,2.2261,2.2261,2.2823,2.3078,2.3078,2.3078,2.3078,2.3078,2.3305,2.3424,2.3484,2.4221,2.4908,2.5398,2.5618,2.5673,2.5728,2.6496,2.6826,2.6878,2.7408,2.7625,2.7524,2.6982,2.7137,2.7625,2.7625,2.7625,2.7625,2.7625,2.7625,2.7625,2.781,2.786,2.7944,2.8591,2.8873,2.918,3.0081,3.0435,3.0658,3.1112,3.1291,3.1449,3.1716,3.1986,3.24,3.3075,3.3302,3.3465,3.3734,3.3807,3.3807,3.3807,3.3807,3.3807,3.3807,3.3807,3.3807,3.3807,3.3807,3.3807,3.3807,3.3807,3.3807,3.3807,3.3807,3.3807,3.3807,3.3807,3.3807,3.3807,3.3807,3.3807,3.3807,3.3807,3.3807,3.3807,3.3807,3.3807,1.2182,1.3265,1.4262,1.5166,1.5703,1.6143,1.6592,1.7031,1.7344,1.7363,1.7686,1.8489,2.0246,2.0568,2.1078,2.2811,2.3078,2.3078,2.3078,2.3078,2.3078,2.3078,2.2384,2.1939,0.0,2.2567,2.3005,2.3005,2.3005,2.3005,2.3005,2.3078,2.3078,2.3078,2.3078,2.3078,2.3078,2.3078,2.3078,2.3138,2.3884,2.4292,2.4292,2.5007,2.5398,2.5453,2.6176,2.6457,2.651,2.7255,2.7575,2.7575,2.7575,2.7625,2.7625,2.7575,2.7575,2.7625,2.7625,2.7625,2.7625,2.7625,2.7625,2.771,2.8286,2.8463,2.8606,2.918,2.9805,3.0251,3.0293,3.074,3.119,3.119,3.1507,3.1789,3.1789,3.2533,3.3184,3.3184,3.3522,3.3807,3.3807,3.3807,3.3807,3.3807,3.3807,3.3807,3.3807,3.3807,3.3807,3.3807,3.3807,3.3807,3.3807,3.3807,3.3807,3.3807,3.3807,3.3807,3.3807,3.3807,3.3807,3.3807,3.3807,3.3807,3.3807,3.3807,3.3807,3.3807,3.3807,3.3807,1.2995,1.4147,1.5127,1.5693,1.6396,1.6982,1.7129,1.749,1.7803,1.7803,1.7686,1.7965,1.9094,1.972,2.0534,2.1656,2.2515,2.3078,2.3078,2.3078,2.3078,2.3078,2.2884,0.0,0.0,0.0,0.0,2.2322,2.2823,2.3078,2.3078,2.3078,2.3078,2.3078,2.3078,2.3365,2.3884,2.3884,2.4163,2.461,2.4894,2.5287,2.5783,2.6014,2.639,2.6864,2.7137,2.7255,2.7255,2.7509,2.7625,2.7625,2.7625,2.7625,2.7625,2.7625,2.7625,2.7625,2.7625,2.7625,2.7625,2.7625,2.786,2.8238,2.8415,2.8779,2.9225,2.9805,3.0123,3.0393,3.0797,3.1055,3.1252,3.1528,3.1696,3.1951,3.2598,3.2983,3.3273,3.355,3.3707,3.3807,3.3807,3.3807,3.3807,3.3807,3.3807,3.3807,3.3807,3.3807,3.3807,3.3807,3.3807,3.3807,3.3807,3.3807,3.3807,3.3807,3.3807,3.3807,3.3807,3.3807,3.3807,3.3807,3.3807,3.3807,3.3807,3.3807,3.3807,3.3807,3.3807,3.3902,1.3846,1.5022,1.5791,1.6387,1.708,1.7607,1.7607,1.7705,1.7793,1.7793,1.7451,1.7387,1.8239,1.9029,1.9826,2.0451,2.1799,2.2718,2.2466,2.282,2.3078,2.3078,2.3078,2.3078,0.0,0.0,0.0,2.2322,2.2823,2.3078,2.3078,2.3078,2.3078,2.3078,2.3365,2.3767,2.4292,2.4567,2.5063,2.5783,2.5783,2.6176,2.6878,2.6878,2.7152,2.7625,2.7625,2.7625,2.7625,2.7625,2.7625,2.7625,2.7625,2.7625,2.7625,2.7625,2.7625,2.7625,2.7625,2.7625,2.7625,2.7625,2.7993,2.8559,2.8732,2.9225,2.9848,3.0435,3.0617,3.0699,3.1112,3.119,3.1397,3.2078,3.2369,3.2773,3.3818,3.4202,3.4368,3.4632,3.4449,3.4229,3.4229,3.399,3.3807,3.3807,3.3807,3.3807,3.3807,3.3807,3.3807,3.3807,3.3807,3.3807,3.3807,3.3807,3.3807,3.3807,3.3807,3.3807,3.3807,3.3807,3.3807,3.3807,3.3807,3.3807,3.3807,3.3807,3.3807,3.3807,3.3807,3.3935,1.4792,1.5781,1.64,1.7168,1.7695,1.8008,1.7978,1.7666,1.7373,1.7324,1.6973,1.6901,0.0,0.0,1.9104,1.9222,2.0947,2.2064,2.1332,2.2344,2.3078,0.0,0.0,0.0,0.0,0.0,0.0,2.3078,0.0,2.3078,2.3078,2.3078,2.3078,2.3078,2.3884,2.435,2.435,2.5147,2.5907,2.6664,2.6664,2.7018,2.7619,2.7619,2.7655,2.7625,2.7625,2.7625,2.7625,2.7625,2.7625,2.7625,2.7625,2.7625,2.7625,2.761,2.7675,2.766,2.766,2.766,2.7675,2.7675,2.8091,2.8685,2.9271,2.9848,3.0477,3.1055,3.119,3.1207,3.128,3.128,3.1606,3.2919,3.353,3.412,3.5385,3.5994,3.6303,3.6303,3.5642,3.5045,3.5009,3.4376,3.3844,3.3807,3.3807,3.3807,3.3807,3.3807,3.3807,3.3807,3.3807,3.3807,3.3807,3.3807,3.3807,3.3807,3.3807,3.3807,3.3807,3.3807,3.3807,3.3807,3.3815,3.3815,3.3815,3.3815,3.3815,3.3815,3.3807,3.3961,1.5504,1.6465,1.71,1.7324,1.7695,1.793,1.7617,1.7461,1.7197,1.6596,1.6055,1.5704,0.0,0.0,0.0,1.8193,2.0466,0.0,2.2064,2.2655,0.0,2.3078,0.0,2.3078,2.3078,2.3078,0.0,0.0,2.3078,2.3078,2.3078,2.3078,2.3078,2.3078,2.3884,2.4567,2.5119,2.6917,2.8139,2.8788,2.8788,2.8643,2.8338,2.8338,2.8053,2.7625,2.7625,2.7625,2.7625,2.7625,2.7625,2.7625,2.7625,2.7625,2.766,2.8091,2.8286,2.8319,2.8764,2.8638,2.8286,2.8286,2.8996,2.9848,3.0021,3.0477,3.1015,3.1151,3.119,3.1426,3.2362,3.2614,3.301,3.4583,3.5029,3.5295,3.5987,3.6227,3.6303,3.6303,3.6119,3.5771,3.51,3.4825,3.4504,3.3899,3.3807,3.3807,3.3807,3.3807,3.3807,3.3807,3.3807,3.3807,3.3807,3.3807,3.3807,3.3807,3.3807,3.3807,3.3807,3.3807,3.3807,3.3807,3.4012,3.4099,3.4099,3.4099,3.4099,3.4074,3.3902,3.4087,1.6278,1.7002,1.7432,1.7607,1.7695,1.7617,1.7197,1.6797,1.6328,1.5644,1.5156,1.4775,1.4541,1.6083,1.7319,0.0,0.0,0.0,2.1494,2.2188,2.2862,0.0,2.3078,0.0,2.3078,2.3078,2.3078,0.0,2.3078,2.3078,2.3078,2.3078,2.3245,2.3603,2.4633,2.5866,2.7221,2.8444,2.922,2.9579,2.9579,2.9385,2.9026,2.8727,2.8382,2.8008,2.7745,2.7625,2.7625,2.7625,2.7625,2.7625,2.7625,2.776,2.8042,2.8383,2.8654,2.8966,2.9271,2.9361,2.9225,2.8966,2.954,3.0293,3.0293,3.0699,3.119,3.119,3.119,3.1499,3.2775,3.3115,3.3596,3.5652,3.6136,3.634,3.7168,3.7349,3.7239,3.689,3.6817,3.656,3.5734,3.5247,3.4844,3.4394,3.4027,3.3807,3.3807,3.3807,3.3807,3.3807,3.3807,3.3807,3.3807,3.3807,3.3807,3.3807,3.3807,3.3807,3.3807,3.3928,3.3928,3.3788,3.4213,3.4288,3.4018,3.4288,3.4288,3.4018,3.3986,3.4165,1.7019,1.7422,1.7539,1.7852,1.7656,1.7236,1.668,1.5967,1.5244,1.4759,1.4331,1.4014,1.3949,1.5509,1.6632,1.6053,0.0,2.059,2.058,2.1543,2.2523,2.3015,2.3078,2.3078,2.3078,2.3078,2.3125,2.3245,2.3245,2.3185,2.3138,2.3198,2.3688,2.4673,2.5988,2.764,2.9699,2.9699,2.9744,2.9849,2.9849,2.9789,2.9684,2.9026,2.8682,2.8562,2.7874,2.7625,2.7625,2.7625,2.7625,2.7625,2.766,2.8042,2.8511,2.8701,2.9058,2.954,2.9629,2.9978,3.0293,2.9717,2.9951,3.0435,3.0435,3.0781,3.119,3.119,3.1336,3.1752,3.3026,3.3471,3.4163,3.6507,3.7051,3.7348,3.848,3.8707,3.8487,3.7771,3.7643,3.7386,3.6597,3.5844,3.5247,3.5027,3.4412,3.3917,3.3807,3.3807,3.3807,3.3807,3.3807,3.3807,3.3807,3.3807,3.3807,3.3807,3.3842,3.3868,3.3868,3.4117,3.4165,3.3928,3.442,3.4442,3.3979,3.4442,3.4439,3.3928,3.4099,3.42,1.7246,1.7637,1.7832,1.7559,1.7432,1.708,1.5908,1.5518,0.0,0.0,1.3711,1.354,1.3216,1.4605,1.5879,1.6255,1.8346,2.0248,2.1163,2.1901,2.2523,0.0,2.3078,2.3078,2.3078,2.3078,0.0,0.0,2.4118,2.3826,2.3138,2.3708,2.4953,2.686,2.7696,2.8781,3.0328,3.0342,3.0627,3.1195,3.1195,3.0896,3.0313,2.9699,2.9116,2.8562,2.7874,2.7625,2.7625,2.7625,2.7625,2.766,2.814,2.8415,2.8606,2.9629,3.0038,3.0208,3.0699,3.0975,3.0918,3.0335,3.0559,3.1055,3.1055,3.1112,3.119,3.119,3.1948,3.3043,3.427,3.5348,3.6525,3.8013,3.8376,3.8413,3.864,3.8707,3.867,3.8524,3.8487,3.823,3.7422,3.7165,3.6597,3.5192,3.4862,3.4559,3.3899,3.3807,3.3807,3.3807,3.3807,3.3807,3.3807,3.3807,3.3807,3.3807,3.3993,3.4123,3.4123,3.4423,3.4591,3.4529,3.4653,3.4754,3.487,3.4754,3.4653,3.4548,3.4311,3.42,1.7266,1.7529,1.7637,1.7432,1.7041,1.6416,1.5332,0.0,0.0,1.312,1.2876,1.2761,1.2337,1.3623,0.0,1.5536,1.7466,1.9288,2.0435,2.1343,2.2083,2.2636,2.2902,2.3245,2.3708,2.3708,2.4047,2.4781,2.4851,2.4724,2.4323,2.5349,2.6736,2.8439,2.9154,2.9992,3.1031,3.1046,3.121,3.1482,3.1482,3.1302,3.1016,3.0357,2.9714,2.9071,2.8397,2.7904,2.7625,2.7625,2.781,2.8091,2.8367,2.8873,2.9496,3.0081,3.0518,3.0797,3.1112,3.119,3.1151,3.0878,3.0958,3.119,3.119,3.119,3.1252,3.1449,3.2265,3.3419,3.49,3.6026,3.7138,3.8394,3.8707,3.8707,3.8707,3.8707,3.8707,3.8707,3.8707,3.8579,3.8193,3.7771,3.7221,3.6413,3.5954,3.5385,3.4541,3.4431,3.4266,3.3844,3.3807,3.3807,3.3807,3.3807,3.3868,3.4012,3.4123,3.4288,3.4445,3.4754,3.4832,3.4694,3.4981,3.5034,3.4889,3.4908,3.4754,3.4423,3.4269,3.4123,1.7129,1.7246,1.7217,1.7119,1.6504,1.5703,1.4844,1.4333,0.0,1.2487,1.2263,1.215,1.1694,1.2834,1.4036,0.0,1.6502,1.8236,1.9583,2.0677,2.1556,0.0,2.2799,0.0,2.4234,2.4292,0.0,2.5563,2.5909,2.6048,2.5869,2.7142,2.8465,2.9609,3.0345,3.0986,3.1467,3.1482,3.1482,3.1482,3.1482,3.1482,3.1452,3.0687,3.0043,2.9535,2.8727,2.8068,2.7625,2.776,2.8091,2.8511,2.8779,2.9451,3.0309,3.0435,3.0797,3.119,3.119,3.119,3.119,3.119,3.119,3.119,3.119,3.1252,3.1406,3.194,3.2841,3.3988,3.5454,3.6544,3.7453,3.848,3.8707,3.8707,3.8707,3.8707,3.8707,3.8707,3.8707,3.8707,3.8707,3.8175,3.7679,3.7544,3.6945,3.6248,3.5404,3.5265,3.4963,3.4137,3.3899,3.3807,3.3807,3.3807,3.3876,3.4099,3.4171,3.4357,3.4674,3.4963,3.5035,3.487,3.5223,3.5242,3.487,3.4963,3.4774,3.4311,3.4223,3.4068,1.667,1.6787,1.6699,1.6279,1.582,1.5244,1.433,0.0,1.3414,1.2482,1.2287,1.2173,1.1777,1.253,1.3547,1.4687,1.5846,1.7327,1.947,2.0338,2.1129,2.2184,0.0,0.0,2.4234,2.4292,2.4908,2.6283,2.7607,2.7998,2.736,2.8525,2.9594,3.038,3.1049,3.1407,3.1482,3.1482,3.1482,3.1482,3.1482,3.1482,3.1437,3.0238,2.9639,2.9505,2.8269,2.7685,2.761,2.8189,2.8463,2.8606,2.9717,3.0208,3.0393,3.0918,3.1151,3.119,3.119,3.119,3.119,3.119,3.119,3.119,3.119,3.1449,3.1908,3.2728,3.4128,3.5588,3.6465,3.7608,3.8535,3.8689,3.8707,3.8707,3.8707,3.8707,3.8707,3.8707,3.8707,3.8707,3.8707,3.8634,3.834,3.7606,3.7452,3.7092,3.6285,3.6174,3.5862,3.4972,3.4247,3.3807,3.3807,3.3807,3.3815,3.3842,3.4068,3.4357,3.4674,3.4963,3.5207,3.5432,3.5242,3.5223,3.5432,3.4963,3.4714,3.4653,3.4357,3.4068,1.6211,1.6328,1.6221,1.5781,1.5352,1.4805,1.3955,0.0,1.3316,1.2108,1.1953,1.1748,1.0992,1.1882,1.3033,1.3845,1.5355,1.688,1.8147,1.9685,2.0882,2.1267,2.2397,0.0,0.0,0.0,2.555,2.7034,2.8419,2.9068,2.8769,2.9596,3.0389,3.1049,3.139,3.1482,3.1482,3.1482,3.1482,3.1482,3.1482,3.1482,3.1437,3.0567,2.9939,2.9535,2.8592,2.7949,2.7675,2.8238,2.8685,2.915,2.9995,3.0518,3.0878,3.1112,3.119,3.119,3.119,3.119,3.119,3.119,3.119,3.119,3.119,3.147,3.2053,3.3143,3.4474,3.5842,3.6947,3.7942,3.8707,3.8707,3.8707,3.8707,3.8707,3.8707,3.8707,3.8707,3.8707,3.8707,3.8707,3.8707,3.8597,3.8267,3.8212,3.7918,3.711,3.7,3.6688,3.5881,3.5037,3.4339,3.3844,3.3807,3.385,3.4018,3.4147,3.4405,3.4926,3.5034,3.5138,3.5273,3.5304,3.5223,3.5016,3.4793,3.4612,3.4379,3.4093,3.3902,1.5313,1.5488,1.542,1.5107,1.4717,1.4219,0.0,0.0,1.2914,1.1661,1.1496,1.1356,1.0659,1.1582,1.2731,1.3477,1.5045,1.6435,1.7305,1.8995,2.0238,2.0388,0.0,2.327,2.4984,2.5671,2.6481,2.7509,2.8816,2.9579,2.9579,3.0357,3.1031,3.1467,3.1482,3.1482,3.1482,3.1482,3.1482,3.1482,3.1482,3.1482,3.1437,3.0627,2.9998,2.9535,2.8667,2.8126,2.7894,2.8511,2.9134,2.9717,3.0351,3.0838,3.119,3.119,3.119,3.119,3.119,3.119,3.119,3.119,3.119,3.123,3.1351,3.1677,3.2337,3.3823,3.5343,3.6703,3.7619,3.8267,3.8707,3.8707,3.8707,3.8707,3.8707,3.8707,3.8707,3.8707,3.8707,3.8707,3.8707,3.8707,3.8707,3.8707,3.8707,3.8517,3.804,3.7897,3.7592,3.686,3.614,3.5312,3.4247,3.3935,3.3876,3.4068,3.4074,3.4311,3.4813,3.4832,3.4889,3.4981,3.5174,3.5088,3.4694,3.4593,3.4423,3.42,3.391,3.3807,1.3874,1.4097,1.4097,1.4087,1.3828,1.3408,1.2988,1.26,1.2057,1.1079,1.0953,1.1019,1.0971,1.1815,1.2846,1.3938,1.4952,1.6013,1.7242,1.8342,1.9233,0.0,0.0,2.2295,2.4297,2.6366,2.7575,2.7625,2.8816,0.0,2.9579,3.0806,3.1467,3.1482,3.1482,3.1482,3.1482,3.1482,3.1482,3.1482,3.1482,3.1482,3.1437,3.0193,2.9594,2.9505,2.821,2.7959,2.8559,2.9134,2.9761,3.0351,3.0958,3.119,3.119,3.119,3.119,3.119,3.119,3.119,3.119,3.119,3.119,3.1252,3.166,3.2127,3.2935,3.5015,3.7062,3.867,3.8689,3.8689,3.8707,3.8707,3.8707,3.8707,3.8707,3.8707,3.8707,3.8707,3.8707,3.8707,3.8707,3.8707,3.8707,3.8707,3.8707,3.8803,3.9044,3.8836,3.8472,3.7936,3.7636,3.6798,3.5119,3.4266,3.3807,3.3788,3.3788,3.3928,3.42,3.42,3.4379,3.4694,3.4694,3.4713,3.4694,3.4379,3.42,3.42,3.391,3.3807,1.3082,1.3486,1.3564,1.2929,1.2686,1.252,1.208,1.1956,1.1686,1.1061,1.1217,1.1431,1.1057,1.2136,1.339,1.454,1.5545,1.6479,0.0,0.0,0.0,2.0623,2.3146,2.5157,0.0,0.0,2.7625,2.7625,2.8412,2.8906,2.8906,2.9729,3.0612,3.1452,3.1482,3.1482,3.1482,3.1482,3.1482,3.1482,3.1482,3.1482,3.1437,3.0178,2.9579,2.9559,2.8636,2.8319,2.8559,2.9585,3.0123,3.0335,3.0958,3.119,3.119,3.119,3.119,3.119,3.119,3.119,3.119,3.119,3.119,3.1329,3.2039,3.2384,3.3019,3.5399,3.7332,3.8707,3.8707,3.8707,3.8707,3.8707,3.8707,3.8707,3.8707,3.8707,3.8707,3.8707,3.8707,3.8707,3.8707,3.8707,3.8707,3.8707,3.8707,3.8719,3.8833,3.8923,3.884,3.8493,3.8035,3.7008,3.5147,3.4752,3.4394,3.3825,3.3807,3.3928,3.4176,3.42,3.4246,3.4357,3.4572,3.4505,3.4105,3.4147,3.4099,3.391,3.3842,3.3807,0.0,1.2578,1.2646,1.2109,1.1973,0.0,1.1416,1.1354,1.1297,1.1015,1.1257,1.1505,1.1579,1.2505,1.367,1.4776,1.5666,1.6557,0.0,0.0,0.0,2.1957,0.0,0.0,0.0,2.7041,2.7625,2.7625,2.8203,2.8607,2.8607,2.922,2.9953,3.0776,3.1016,3.115,3.115,3.1347,3.1482,3.1482,3.1482,3.1405,3.1106,3.0058,2.9445,2.9199,2.8728,2.8654,0.0,2.9892,3.0435,3.0658,3.1055,3.119,3.119,3.119,3.119,3.119,3.119,3.119,3.119,3.119,3.1428,3.1823,3.255,3.3086,3.3857,3.5765,3.7239,3.8322,3.8615,3.8707,3.8707,3.8707,3.8707,3.8707,3.8707,3.8707,3.8707,3.8707,3.8707,3.8707,3.8707,3.8707,3.8707,3.8707,3.8707,3.875,3.8844,3.8923,3.8905,3.8855,3.845,3.759,3.6074,3.5339,3.4642,3.3844,3.3807,3.3876,3.4043,3.4043,3.4043,3.4043,3.426,3.4184,3.3807,3.3961,3.3961,3.3807,3.3807,3.3807,0.0,1.1538,1.1547,1.1518,1.1508,1.14,1.0957,1.0869,0.0,1.0988,1.1019,1.1356,1.2365,1.2997,1.3712,1.4838,1.5454,1.6421,0.0,1.9506,0.0,0.0,2.5012,0.0,2.5742,2.6885,2.7625,2.7625,2.8173,2.8532,2.8532,2.9101,2.9445,2.9445,3.0043,3.0387,3.0432,3.1076,3.1332,3.1332,3.1332,3.1061,3.0417,2.9804,2.9175,2.8614,2.8578,2.8873,2.9451,3.0123,3.0699,3.119,3.119,3.119,3.119,3.119,3.119,3.119,3.119,3.119,3.119,3.123,3.1823,3.2583,3.3045,3.4058,3.5155,3.5973,3.678,3.7588,3.8414,3.8615,3.8634,3.8689,3.8707,3.8707,3.8707,3.8707,3.8707,3.8707,3.8707,3.8707,3.8707,3.8707,3.8707,3.8707,3.8707,3.8773,3.9036,3.8884,3.8833,3.9063,3.8855,3.837,3.7507,3.5991,3.4761,3.3935,3.3825,3.3807,3.3807,3.3807,3.3807,3.3807,3.3807,3.3807,3.3807,3.3807,3.3807,3.3807,3.3807,3.3807,1.03,0.0,1.0986,1.0664,1.0626,1.0596,0.0,1.043,1.0547,1.0926,0.0,1.1923,1.292,1.3545,1.4387,1.5865,1.6609,1.7466,1.8724,2.125,0.0,2.6379,2.6965,2.7119,2.7119,2.7419,2.7625,2.7625,2.7775,2.7814,2.7814,2.7964,2.809,2.809,2.8697,2.928,2.9789,2.9968,3.0043,3.0043,3.0043,2.9953,2.9774,2.9131,2.8742,2.8599,2.9045,2.9271,2.9496,3.0559,3.1055,3.119,3.119,3.119,3.119,3.119,3.119,3.119,3.119,3.119,3.1252,3.1565,3.2039,3.2583,3.3045,3.4058,3.5027,3.5247,3.5917,3.6762,3.7551,3.7771,3.7936,3.856,3.8707,3.8707,3.8707,3.8707,3.8707,3.8707,3.8707,3.8707,3.8707,3.8707,3.8707,3.8707,3.8707,3.8719,3.8773,3.8923,3.8961,3.8803,3.8923,3.8331,3.6717,3.6211,3.5642,3.4752,3.4137,3.3807,3.3807,3.3807,3.3807,3.3807,3.3807,3.3807,3.3807,3.3807,3.3807,3.3807,3.3807,3.3807,1.0041,1.0449,1.0566,1.0342,1.0283,1.0283,1.0283,0.0,0.0,0.0,0.0,1.211,1.3059,1.4134,1.5067,1.5658,1.7203,0.0,0.0,0.0,2.5224,2.6946,2.738,2.7625,0.0,2.7625,2.7625,2.7625,2.7625,2.7625,2.7625,2.7625,2.7625,2.7625,2.7934,2.8442,2.9131,2.943,2.9579,2.9579,2.9579,2.943,2.9116,2.8771,2.8568,2.8591,2.917,2.954,2.9908,3.0838,3.119,3.119,3.119,3.119,3.119,3.119,3.119,3.119,3.119,3.1312,3.1545,3.1968,3.2433,3.2903,3.3332,3.3917,3.4541,3.4899,3.5349,3.5899,3.6725,3.6945,3.7055,3.7496,3.7606,3.7698,3.8065,3.8138,3.8267,3.8634,3.8707,3.8707,3.8707,3.8707,3.8707,3.8707,3.8707,3.8707,3.8707,3.8815,3.8855,3.8738,3.8815,3.8356,3.6974,3.6505,3.5771,3.4541,3.4045,3.3807,3.3807,3.3807,3.3807,3.3807,3.3807,3.3807,3.3807,3.3807,3.3807,3.3807,3.3807,3.3807,1.0031,1.0332,1.0361,1.0303,1.0283,1.0283,1.0283,0.0,0.0,0.0,0.0,0.0,1.3511,1.4852,0.0,0.0,0.0,0.0,2.2828,2.4648,2.6004,2.6662,2.723,0.0,2.7625,2.7625,2.7625,2.7625,2.7625,2.7625,2.7625,2.7625,2.7625,2.7625,2.7625,2.7859,2.8442,2.8996,2.9265,2.9265,2.9265,2.8981,2.8442,2.8442,2.8455,2.8511,2.9134,2.9717,3.0351,3.0958,3.119,3.119,3.119,3.119,3.119,3.119,3.119,3.119,3.119,3.147,3.1897,3.235,3.2809,3.3273,3.368,3.3807,3.3935,3.4633,3.4807,3.5009,3.5881,3.6101,3.6138,3.6266,3.6303,3.6486,3.7165,3.7312,3.7514,3.8193,3.834,3.8377,3.8505,3.8524,3.856,3.8689,3.8707,3.8707,3.8707,3.8707,3.8707,3.8707,3.8597,3.8193,3.7386,3.656,3.544,3.3899,3.3807,3.3807,3.3807,3.3807,3.3807,3.3807,3.3807,3.3807,3.3807,3.3807,3.3807,3.3807,3.3807,3.3807,1.0068,1.0547,1.0732,1.0371,1.0283,1.0283,1.0283,0.0,0.0,0.0,0.0,0.0,0.0,1.5918,1.6337,0.0,0.0,2.217,0.0,0.0,2.6692,2.7385,0.0,2.7625,2.7625,2.7625,2.7625,2.7625,2.7625,2.7625,2.7625,2.7625,2.7625,2.7625,2.7625,2.767,2.7724,2.788,2.7925,2.7925,2.7925,2.7829,2.7724,2.7724,2.8,2.8511,2.9134,2.9717,3.0351,3.0958,3.119,3.119,3.119,3.119,3.119,3.119,3.119,3.119,3.119,3.147,3.1897,3.235,3.2809,3.3273,3.368,3.3807,3.3825,3.3954,3.399,3.4174,3.4972,3.5192,3.5404,3.6119,3.6303,3.6321,3.645,3.6468,3.6523,3.6633,3.667,3.6872,3.7551,3.7661,3.7918,3.8597,3.8707,3.8707,3.8707,3.8707,3.8707,3.8707,3.8083,3.7349,3.6541,3.5697,3.4816,3.3862,3.3807,3.3807,3.3807,3.3807,3.3807,3.3807,3.3807,3.3807,3.3807,3.3807,3.3807,3.3807,3.3807,3.3807,1.0049,1.042,1.0656,1.1053,1.1317,1.1572,1.1895,1.2124,0.0,0.0,0.0,0.0,0.0,0.0,1.8616,2.1591,0.0,2.3094,2.4919,2.6009,2.6692,0.0,0.0,2.7625,2.7625,2.7625,2.7625,2.7625,2.7625,2.7625,2.7625,2.7625,2.7625,2.7625,2.7625,2.7625,2.7625,2.7625,2.7625,2.7625,2.7625,2.7625,2.7625,2.7625,2.8125,2.9012,2.9271,2.9951,3.0797,3.1112,3.119,3.119,3.119,3.119,3.119,3.119,3.119,3.119,3.119,3.162,3.2196,3.2417,3.2965,3.355,3.3734,3.3807,3.3807,3.3807,3.3807,3.3899,3.4266,3.4357,3.4449,3.4853,3.4945,3.5073,3.5514,3.5605,3.5752,3.6211,3.6303,3.6413,3.678,3.7202,3.7606,3.7991,3.8414,3.8707,3.8707,3.8707,3.8707,3.8707,3.7973,3.7165,3.6358,3.5514,3.4642,3.3844,3.3807,3.3807,3.3807,3.3807,3.3807,3.3807,3.3807,3.3807,3.3807,3.3807,3.3807,3.3807,3.3807,3.3807,1.0078,1.0352,1.0706,1.1797,0.0,1.2214,1.3186,1.3315,0.0,0.0,0.0,0.0,0.0,1.8131,0.0,2.3637,2.3673,2.3844,2.5595,2.6408,2.6811,2.6811,2.726,2.7625,2.7625,2.7625,2.7625,2.7625,2.7625,2.7625,2.7625,2.7625,2.7625,2.7625,2.7625,2.7625,2.7625,2.7625,2.7625,2.7625,2.7625,2.7625,2.7625,2.7625,2.8271,2.9406,2.9406,3.0064,3.119,3.119,3.119,3.119,3.119,3.119,3.119,3.119,3.119,3.119,3.119,3.175,3.2484,3.2484,3.3087,3.3807,3.3807,3.3807,3.3807,3.3807,3.3807,3.3807,3.3807,3.3807,3.3807,3.3807,3.3807,3.3972,3.4596,3.4715,3.4926,3.5587,3.5716,3.5771,3.5954,3.6505,3.7037,3.7452,3.801,3.8487,3.8689,3.8707,3.8634,3.8432,3.7698,3.6798,3.5789,3.511,3.4468,3.3844,3.3807,3.3807,3.3807,3.3807,3.3807,3.3807,3.3807,3.3807,3.3807,3.3807,3.3807,3.3807,3.3807,3.3807,1.0156,1.0566,1.1145,1.2256,1.1496,0.0,1.2947,1.3003,0.0,1.4606,0.0,0.0,0.0,1.9542,2.118,2.2574,2.3715,2.4869,2.6351,0.0,2.755,2.755,2.7595,2.7625,2.7625,2.7625,2.7625,2.7625,2.7625,2.7625,2.7625,2.7625,2.7625,2.7625,2.7625,2.7625,2.7625,2.7625,2.7625,2.7625,2.7625,2.7625,2.7625,2.7625,2.8271,2.9406,2.9406,3.0064,3.119,3.119,3.119,3.119,3.119,3.119,3.119,3.119,3.119,3.119,3.119,3.175,3.2484,3.2484,3.3087,3.3807,3.3807,3.3807,3.3807,3.3807,3.3807,3.3807,3.3807,3.3807,3.3807,3.3807,3.3807,3.3825,3.3862,3.3899,3.3899,3.3972,3.3972,3.4229,3.4954,3.5137,3.5716,3.7257,3.7562,3.7845,3.8597,3.8707,3.8414,3.7661,3.6853,3.5734,3.4119,3.3917,3.3862,3.3807,3.3807,3.3807,3.3807,3.3807,3.3807,3.3807,3.3807,3.3807,3.3807,3.3807,3.3807,3.3807,3.3807,3.3807,1.0166,1.0904,1.1642,1.2041,1.1927,0.0,0.0,1.4959,1.5029,1.6643,1.7115,0.0,0.0,0.0,2.1877,2.3667,2.4589,2.5595,2.7026,2.746,2.7625,2.7625,2.7625,2.7625,2.7625,2.7625,2.7625,2.7625,2.7625,2.7625,2.7625,2.7625,2.7625,2.7625,2.7625,2.7625,2.7625,2.7625,2.7625,2.7625,2.7625,2.7625,2.761,2.7993,2.8591,2.9406,2.9805,3.0435,3.119,3.119,3.119,3.119,3.119,3.119,3.119,3.119,3.119,3.119,3.119,3.175,3.2484,3.2484,3.3087,3.3807,3.3807,3.3807,3.3807,3.3807,3.3807,3.3807,3.3807,3.3807,3.3807,3.3807,3.3807,3.3807,3.3807,3.3807,3.3807,3.3807,3.3807,3.3899,3.4211,3.4688,3.521,3.5862,3.6413,3.6853,3.7165,3.7202,3.7092,3.678,3.6009,3.5037,3.3899,3.3807,3.3807,3.3807,3.3807,3.3807,3.3807,3.3807,3.3807,3.3807,3.3807,3.3807,3.3807,3.3807,3.3807,3.3807,3.3807,3.3807,1.0703,1.1323,1.1994,0.0,0.0,0.0,1.6139,1.6154,1.6059,1.8049,1.8593,1.9016,2.0044,0.0,0.0,0.0,2.5095,2.5977,2.7399,2.7625,2.7625,2.7625,2.7625,2.7625,2.7625,2.7625,2.7625,2.7625,2.7625,2.7625,2.7625,2.7625,2.7625,2.7625,2.7625,2.7625,2.7625,2.7625,2.7625,2.7625,2.7625,2.7625,2.761,2.8042,2.8638,2.9406,2.9848,3.0477,3.119,3.119,3.119,3.119,3.119,3.119,3.119,3.119,3.119,3.119,3.119,3.175,3.2484,3.2484,3.3087,3.3807,3.3807,3.3807,3.3807,3.3807,3.3807,3.3807,3.3807,3.3807,3.3807,3.3807,3.3807,3.3807,3.3807,3.3807,3.3807,3.3807,3.3807,3.3807,3.3807,3.4266,3.4697,3.4954,3.5514,3.5991,3.6266,3.6303,3.6193,3.5917,3.5147,3.4412,3.3844,3.3807,3.3807,3.3807,3.3807,3.3807,3.3807,3.3807,3.3807,3.3807,3.3807,3.3807,3.3807,3.3807,3.3807,3.3807,3.3807,3.3807,1.1821,1.1821,1.2167,0.0,0.0,0.0,1.6675,1.6118,1.5719,1.8449,1.9447,1.9987,2.0618,2.1129,0.0,2.4188,2.4983,2.5946,2.7408,2.7625,2.7625,2.7625,2.7625,2.7625,2.7625,2.7625,2.7625,2.7625,2.7625,2.7625,2.7625,2.7625,2.7625,2.7625,2.7625,2.7625,2.7625,2.7625,2.7625,2.7625,2.7625,2.7625,2.7625,2.761,2.8255,2.9406,2.9406,3.0081,3.119,3.119,3.119,3.119,3.119,3.119,3.119,3.119,3.119,3.119,3.119,3.175,3.2484,3.2484,3.3087,3.3807,3.3807,3.3807,3.3807,3.3807,3.3807,3.3807,3.3807,3.3807,3.3807,3.3807,3.3807,3.3807,3.3807,3.3807,3.3807,3.3807,3.3807,3.3807,3.3807,3.3807,3.4082,3.4862,3.499,3.5312,3.6174,3.6266,3.5954,3.5064,3.4284,3.3807,3.3807,3.3807,3.3807,3.3807,3.3807,3.3807,3.3807,3.3807,3.3807,3.3807,3.3807,3.3807,3.3807,3.3807,3.3807,3.3807,3.3807,3.3807,1.0734,1.1821,0.0,1.3073,0.0,0.0,0.0,1.7098,0.0,0.0,2.03,2.0577,2.1142,2.1694,0.0,2.4203,2.4983,2.5946,2.7408,2.7625,2.7625,2.7625,2.7625,2.7625,2.7625,2.7625,2.7625,2.7625,2.7625,2.7625,2.7625,2.7625,2.7625,2.7625,2.7625,2.7625,2.7625,2.7625,2.7625,2.7625,2.7625,2.7625,2.7625,2.8496,2.9042,2.9451,3.0293,3.0878,3.119,3.119,3.119,3.119,3.119,3.119,3.119,3.119,3.119,3.119,3.119,3.175,3.2484,3.2484,3.3087,3.3807,3.3807,3.3807,3.3807,3.3807,3.3807,3.3807,3.3807,3.3807,3.3807,3.3807,3.3807,3.3807,3.3807,3.3807,3.3807,3.3807,3.3807,3.3807,3.3807,3.3807,3.388,3.4119,3.4174,3.4247,3.4504,3.4541,3.4449,3.4192,3.3935,3.3807,3.3807,3.3807,3.3807,3.3807,3.3807,3.3807,3.3807,3.3807,3.3807,3.3807,3.3807,3.3807,3.3807,3.3807,3.3807,3.3807,3.3807,3.3807,1.1972,1.2917,0.0,1.4413,1.5549,1.681,1.8093,0.0,0.0,0.0,2.1016,2.1529,2.2125,2.2419,0.0,2.4994,2.5368,2.5946,2.7408,2.7625,2.7625,2.7625,2.7625,2.7625,2.7625,2.7625,2.7625,2.7625,2.7625,2.7625,2.7625,2.7625,2.7625,2.7625,2.7625,2.7625,2.7625,2.7625,2.7625,2.7625,2.7625,2.771,2.7993,2.8732,2.9316,2.9805,3.0797,3.119,3.119,3.119,3.119,3.119,3.119,3.119,3.119,3.119,3.119,3.123,3.1372,3.1914,3.2517,3.2713,3.3225,3.3807,3.3807,3.3807,3.3807,3.3807,3.3807,3.3807,3.3807,3.3807,3.3807,3.3807,3.3807,3.3807,3.3807,3.3807,3.3807,3.3807,3.3807,3.3807,3.3807,3.3807,3.3807,3.3807,3.3807,3.3807,3.3807,3.3807,3.3807,3.3807,3.3807,3.3807,3.3807,3.3807,3.3807,3.3807,3.3807,3.3807,3.3807,3.3807,3.3807,3.3807,3.3807,3.3807,3.3807,3.3807,3.3807,3.3807,3.3807,3.3807,1.4311,1.448,0.0,1.6816,1.7131,0.0,1.9358,2.0288,2.0794,2.0794,0.0,2.254,2.3237,2.3289,2.393,2.6054,2.5892,2.6,2.7408,2.7625,2.7625,2.7625,2.7625,2.7625,2.7625,2.7625,2.7625,2.7625,2.7625,2.7625,2.7625,2.7625,2.7625,2.7625,2.7625,2.7625,2.7625,2.7625,2.7625,2.7625,2.7675,2.7993,2.8606,2.8606,2.9225,3.0435,3.0958,3.119,3.119,3.119,3.119,3.119,3.119,3.119,3.119,3.119,3.119,3.1269,3.166,3.2109,3.2583,3.3045,3.3465,3.3807,3.3807,3.3807,3.3807,3.3807,3.3807,3.3807,3.3807,3.3807,3.3807,3.3807,3.3807,3.3807,3.3807,3.3807,3.3807,3.3807,3.3807,3.3807,3.3807,3.3807,3.3807,3.3807,3.3807,3.3807,3.3807,3.3807,3.3807,3.3807,3.3807,3.3807,3.3807,3.3807,3.3807,3.3807,3.3807,3.3807,3.3807,3.3807,3.3807,3.3807,3.3807,3.3807,3.3807,3.3807,3.3807,3.3807,3.3807,3.3807,1.244,1.3668,0.0,0.0,1.7969,1.9258,1.9672,2.0589,2.1305,2.1305,2.1845,2.2493,2.3039,2.3631,2.4394,2.5453,2.6014,2.6549,2.7458,2.7625,2.7625,2.7625,2.7625,2.7625,2.7625,2.7625,2.7625,2.7625,2.7625,2.7625,2.7625,2.7625,2.7625,2.7625,2.7625,2.7625,2.7625,2.7625,2.7625,2.7625,2.8091,2.8638,2.9225,2.9225,2.9848,3.1015,3.1151,3.119,3.119,3.119,3.119,3.119,3.119,3.119,3.119,3.119,3.119,3.1269,3.166,3.2109,3.2583,3.3045,3.3465,3.3807,3.3807,3.3807,3.3807,3.3807,3.3807,3.3807,3.3807,3.3807,3.3807,3.3807,3.3807,3.3807,3.3807,3.3807,3.3807,3.3807,3.3807,3.3807,3.3807,3.3807,3.3807,3.3807,3.3807,3.3807,3.3807,3.3807,3.3807,3.3807,3.3807,3.3807,3.3807,3.3807,3.3807,3.3807,3.3807,3.3807,3.3807,3.3807,3.3807,3.3807,3.3807,3.3807,3.3807,3.3807,3.3807,3.3807,3.3807,3.3807,1.3006,0.0,0.0,1.6904,0.0,1.9798,1.9798,2.0476,2.1091,2.1091,2.1958,2.2905,2.3539,2.4002,2.4681,2.5728,2.6229,2.6774,2.7509,2.7625,2.7625,2.7625,2.7625,2.7625,2.7625,2.7625,2.7625,2.7625,2.7625,2.7625,2.7625,2.7625,2.7625,2.7625,2.7625,2.7625,2.7625,2.7625,2.7625,2.7625,2.8222,2.8966,2.9848,3.0123,3.0617,3.119,3.119,3.119,3.119,3.119,3.119,3.119,3.119,3.119,3.119,3.119,3.119,3.1291,3.1914,3.2316,3.2616,3.3255,3.3625,3.3807,3.3807,3.3807,3.3807,3.3807,3.3807,3.3807,3.3807,3.3807,3.3807,3.3807,3.3807,3.3807,3.3807,3.3807,3.3807,3.3807,3.3807,3.3807,3.3807,3.3807,3.3807,3.3807,3.3807,3.3807,3.3807,3.3807,3.3807,3.3807,3.3807,3.3807,3.3807,3.3807,3.3807,3.3807,3.3807,3.3807,3.3807,3.3807,3.3807,3.3807,3.3807,3.3807,3.3807,3.3807,3.3807,3.3807,3.3807,3.3807,1.3719,0.0,1.4991,1.7572,1.8945,0.0,1.9786,2.025,2.0718,2.0718,2.1907,2.3166,2.3858,2.4271,2.4908,2.6122,2.651,2.6878,2.7509,2.7625,2.7625,2.7625,2.7625,2.7625,2.7625,2.7625,2.7625,2.7625,2.7625,2.7625,2.7625,2.7625,2.7625,2.7625,2.7625,2.7625,2.7625,2.7625,2.766,2.776,2.8448,2.9406,3.0477,3.0975,3.119,3.119,3.119,3.119,3.119,3.119,3.119,3.119,3.119,3.119,3.119,3.119,3.1252,3.1428,3.2213,3.255,3.2745,3.355,3.3807,3.3807,3.3807,3.3807,3.3807,3.3807,3.3807,3.3807,3.3807,3.3807,3.3807,3.3807,3.3807,3.3807,3.3807,3.3807,3.3807,3.3807,3.3807,3.3807,3.3807,3.3807,3.3807,3.3807,3.3807,3.3807,3.3807,3.3807,3.3807,3.3807,3.3807,3.3807,3.3807,3.3807,3.3807,3.3807,3.3807,3.3807,3.3807,3.3807,3.3807,3.3807,3.3807,3.3807,3.3807,3.3807,3.3807,3.3807,3.3807,3.3807,0.0,0.0,1.5911,0.0,1.8668,1.9246,0.0,0.0,2.0718,0.0,2.1606,2.2422,2.2526,2.405,2.5342,2.5508,2.6602,2.7509,2.7575,2.7625,2.7625,2.7625,2.7625,2.7625,2.7625,2.7625,2.7625,2.7625,2.7625,2.7625,2.7625,2.7625,2.7625,2.7625,2.7625,2.7625,2.7625,2.7625,2.786,2.8367,2.954,3.0435,3.1095,3.1151,3.119,3.119,3.119,3.119,3.119,3.119,3.119,3.119,3.119,3.119,3.119,3.119,3.1411,3.1789,3.2316,3.2777,3.3166,3.3652,3.3807,3.3807,3.3807,3.3807,3.3807,3.3807,3.3807,3.3807,3.3807,3.3807,3.3807,3.3807,3.3807,3.3807,3.3807,3.3807,3.3807,3.3807,3.3807,3.3807,3.3807,3.3807,3.3807,3.3807,3.3807,3.3807,3.3807,3.3807,3.3807,3.3807,3.3807,3.3807,3.3807,3.3807,3.3807,3.3807,3.3807,3.3807,3.3807,3.3807,3.3807,3.3807,3.3807,3.3807,3.3807,3.3807,3.3807,3.3807,3.3807,3.3807,1.1673,1.4061,1.6552,0.0,1.8844,1.9522,1.9748,1.9999,2.0188,2.0188,2.0828,2.1481,2.1794,2.2965,2.3947,2.4336,2.5263,2.6096,2.6419,2.6467,2.6467,2.6467,2.6467,2.6467,2.6467,2.6467,2.6467,2.6467,2.6467,2.6467,2.6467,2.6467,2.6467,2.6467,2.6467,2.6467,2.6467,2.6788,2.7581,2.8902,2.9417,3.0218,3.119,3.119,3.119,3.119,3.119,3.119,3.119,3.119,3.119,3.119,3.119,3.119,3.119,3.119,3.1449,3.1861,3.235,3.2809,3.3273,3.368,3.3807,3.3807,3.3807,3.3807,3.3807,3.3807,3.3807,3.3807,3.3807,3.3807,3.3807,3.3807,3.3807,3.3807,3.3807,3.3807,3.3807,3.3807,3.3807,3.3807,3.3807,3.3807,3.3807,3.3807,3.3807,3.3807,3.3807,3.3807,3.3807,3.3807,3.3807,3.3807,3.3807,3.3807,3.3807,3.3807,3.3807,3.3807,3.3807,3.3807,3.3807,3.3807,3.3807,3.3807,3.3807,3.3807,3.3807,3.3807,3.3807,3.3807,0.0,0.0,1.5799,1.7572,1.8593,1.9296,0.0,0.0,1.9798,0.0,2.015,2.0577,2.0978,2.191,2.2844,2.3485,2.4234,2.4888,2.5506,2.5615,2.5615,2.5615,2.5615,2.5615,2.5615,2.5615,2.5615,2.5615,2.5615,2.5615,2.5615,2.5615,2.5615,2.5615,2.5615,2.5615,2.5615,2.6287,2.7354,2.8707,2.9204,2.9939,3.092,3.1106,3.119,3.119,3.119,3.119,3.119,3.119,3.119,3.119,3.119,3.119,3.119,3.119,3.1545,3.2022,3.2384,3.2872,3.339,3.3707,3.3807,3.3807,3.3807,3.3807,3.3807,3.3807,3.3807,3.3807,3.3807,3.3807,3.3807,3.3807,3.3807,3.3807,3.3807,3.3807,3.3807,3.3807,3.3807,3.3807,3.3807,3.3807,3.3807,3.3807,3.3807,3.3807,3.3807,3.3807,3.3807,3.3807,3.3807,3.3807,3.3807,3.3807,3.3807,3.3807,3.3807,3.3807,3.3807,3.3807,3.3807,3.3807,3.3807,3.3807,3.3807,3.3807,3.3807,3.3807,3.3807,3.3807,0.0,1.2001,0.0,1.6535,1.7463,1.7903,0.0,0.0,1.9798,1.9798,1.9823,1.9861,1.9886,2.1367,2.2844,2.3485,2.4234,2.4888,2.5506,2.5615,2.5615,2.5615,2.5615,2.5615,2.5615,2.5615,2.5615,2.5615,2.5615,2.5615,2.5615,2.5615,2.5615,2.5615,2.5615,2.5615,2.5615,2.6698,2.731,2.7442,2.9204,3.0087,3.0192,3.0886,3.119,3.119,3.119,3.119,3.119,3.119,3.119,3.119,3.119,3.119,3.119,3.119,3.1731,3.2484,3.2484,3.3057,3.3762,3.3788,3.3807,3.3807,3.3807,3.3807,3.3807,3.3807,3.3807,3.3807,3.3807,3.3807,3.3807,3.3807,3.3807,3.3807,3.3807,3.3807,3.3807,3.3807,3.3807,3.3807,3.3807,3.3807,3.3807,3.3807,3.3807,3.3807,3.3807,3.3807,3.3807,3.3807,3.3807,3.3807,3.3807,3.3807,3.3807,3.3807,3.3807,3.3807,3.3807,3.3807,3.3807,3.3807,3.3807,3.3807,3.3807,3.3807,3.3807,3.3807,3.3807,3.3807,0.0,0.0,0.0,1.5811,1.7112,1.8053,1.8643,1.9309,1.9798,1.9798,1.9798,1.9798,1.9798,2.0321,2.1004,2.1669,2.2338,2.2999,2.3664,2.4089,2.4328,2.4328,2.4328,2.4328,2.4328,2.4328,2.4328,2.4328,2.4328,2.4328,2.4328,2.4328,2.4328,2.4328,2.4328,2.465,2.5342,2.5735,2.6513,2.7632,2.8303,2.9161,3.0125,3.0378,3.0751,3.119,3.119,3.119,3.119,3.119,3.119,3.119,3.119,3.1351,3.1603,3.1603,3.2179,3.2952,3.2952,3.3332,3.3807,3.3807,3.3807,3.3807,3.3807,3.3807,3.3807,3.3807,3.3807,3.3807,3.3807,3.3807,3.3807,3.3807,3.3807,3.3807,3.3807,3.3807,3.3807,3.3807,3.3807,3.3807,3.3807,3.3807,3.3807,3.3807,3.3807,3.3807,3.3807,3.3807,3.3807,3.3807,3.3807,3.3807,3.3807,3.3807,3.3807,3.3807,3.3807,3.3807,3.3807,3.3807,3.3807,3.3807,3.3807,3.3807,3.3807,3.3807,3.3807,3.3807,3.3807,3.3807,1.1437,0.0,0.0,0.0,1.6258,1.7287,1.8028,1.8756,1.9371,1.9723,1.9798,1.9798,1.9798,2.0003,2.0308,2.0759,2.1293,2.1946,2.2603,2.3231,2.3595,2.3595,2.3595,2.3595,2.3595,2.3595,2.3595,2.3595,2.3595,2.3595,2.3595,2.3595,2.3595,2.3595,2.3595,2.4032,2.4934,2.5105,2.588,2.719,2.7619,2.8349,2.9347,2.9617,3.0125,3.0835,3.0835,3.097,3.119,3.119,3.119,3.119,3.119,3.1449,3.1789,3.1789,3.24,3.3214,3.3214,3.3465,3.3807,3.3807,3.3807,3.3807,3.3807,3.3807,3.3807,3.3807,3.3807,3.3807,3.3807,3.3807,3.3807,3.3807,3.3807,3.3807,3.3807,3.3807,3.3807,3.3807,3.3807,3.3807,3.3807,3.3807,3.3807,3.3807,3.3807,3.3807,3.3807,3.3807,3.3807,3.3807,3.3807,3.3807,3.3807,3.3807,3.3807,3.3807,3.3807,3.3807,3.3807,3.3807,3.3807,3.3807,3.3807,3.3807,3.3807,3.3807,3.3807,3.3807,3.3807,3.3734,0.0,0.0,0.0,0.0,0.0,0.0,1.7614,0.0,1.8505,1.9547,1.9773,1.9798,1.9798,2.0346,2.0746,2.0746,2.1293,2.1899,2.2558,2.3187,2.3551,2.3551,2.3595,2.3595,2.3595,2.3595,2.3595,2.3595,2.3595,2.3595,2.3595,2.3595,2.3595,2.3638,2.3638,2.3879,2.443,2.495,2.5486,2.6049,2.7209,2.7772,2.7806,2.8602,2.9364,3.0074,3.0091,3.0514,3.1157,3.119,3.119,3.119,3.119,3.1449,3.1825,3.1825,3.24,3.3214,3.3214,3.3465,3.3807,3.3807,3.3807,3.3807,3.3807,3.3807,3.3807,3.3807,3.3807,3.3807,3.3807,3.3807,3.3807,3.3807,3.3807,3.3807,3.3807,3.3807,3.3807,3.3807,3.3807,3.3807,3.3807,3.3807,3.3807,3.3807,3.3807,3.3807,3.3807,3.3807,3.3807,3.3807,3.3807,3.3807,3.3807,3.3807,3.3807,3.3807,3.3807,3.3807,3.3807,3.3807,3.3807,3.3807,3.3807,3.3807,3.3807,3.3807,3.3807,3.3807,3.3807,3.3578,1.1952,0.0,0.0,0.0,0.0,0.0,1.5655,0.0,1.8292,1.8581,1.9258,1.9798,1.9798,1.9952,2.0105,2.0105,2.0988,2.1615,2.1369,2.2267,2.2965,2.2965,2.3334,2.3595,2.3595,2.3595,2.3595,2.3595,2.3595,2.3595,2.3595,2.3595,2.3752,2.4158,2.4184,2.4617,2.554,2.5689,2.6033,2.6505,2.6826,2.7283,2.7789,2.8044,2.8569,2.9313,2.9871,3.0226,3.0446,3.097,3.119,3.119,3.119,3.1657,3.2316,3.2316,3.2872,3.3634,3.3634,3.3707,3.3807,3.3807,3.3807,3.3807,3.3807,3.3807,3.3807,3.3807,3.3807,3.3807,3.3807,3.3807,3.3807,3.3807,3.3807,3.3807,3.3807,3.3807,3.3807,3.3807,3.3807,3.3807,3.3807,3.3807,3.3807,3.3807,3.3807,3.3807,3.3807,3.3807,3.3807,3.3807,3.3807,3.3807,3.3807,3.3807,3.3807,3.3807,3.3807,3.3807,3.3807,3.3807,3.3807,3.3807,3.3807,3.3807,3.3807,3.3807,3.3807,3.3807,3.3807,3.3578,0.0,0.0,0.0,0.0,0.0,0.0,1.5354,1.6572,1.7765,1.8681,1.9359,1.9798,1.9798,2.0055,2.0156,1.985,2.067,2.121,2.0845,2.1894,2.2694,2.2694,2.3231,2.3595,2.3595,2.3595,2.3595,2.3595,2.3595,2.3595,2.3595,2.3595,2.3837,2.4389,2.4389,2.491,2.5997,2.6013,2.6227,2.6691,2.6691,2.6928,2.7351,2.7351,2.7774,2.8518,2.8958,2.933,2.9668,3.0091,3.0632,3.119,3.119,3.1714,3.2484,3.2484,3.3057,3.3807,3.3807,3.3807,3.3807,3.3807,3.3807,3.3807,3.3807,3.3807,3.3807,3.3807,3.3807,3.3807,3.3807,3.3807,3.3807,3.3807,3.3807,3.3807,3.3807,3.3807,3.3807,3.3807,3.3807,3.3807,3.3807,3.3807,3.3807,3.3807,3.3807,3.3807,3.3807,3.3807,3.3807,3.3807,3.3807,3.3807,3.3807,3.3807,3.3807,3.3807,3.3807,3.3807,3.3807,3.3807,3.3807,3.3807,3.3807,3.3807,3.3807,3.3807,3.3807,3.3807,3.3807,3.3662,0.0,0.0,0.0,0.0,1.3298,0.0,1.569,1.6296,1.6961,1.8857,1.9346,1.9434,1.9434,1.9922,2.0119,1.9535,2.0038,2.0552,2.0683,2.1752,2.2512,2.2512,2.3098,2.3508,2.3508,2.3551,2.3595,2.3595,2.3595,2.3595,2.3595,2.3595,2.3879,2.4471,2.4511,2.5012,2.6085,2.6085,2.6297,2.6691,2.6691,2.6691,2.6691,2.6691,2.7063,2.7671,2.7755,2.8213,2.8856,2.8941,2.9753,3.0954,3.1038,3.1593,3.2393,3.2482,3.3057,3.3807,3.3807,3.3807,3.3807,3.3807,3.3807,3.3807,3.3807,3.3807,3.3807,3.3807,3.3807,3.3807,3.3807,3.3807,3.3807,3.3807,3.3807,3.3807,3.3807,3.3807,3.3807,3.3807,3.3807,3.3807,3.3807,3.3807,3.3807,3.3807,3.3807,3.3807,3.3807,3.3807,3.3807,3.3807,3.3807,3.3807,3.3807,3.3807,3.3807,3.3807,3.3807,3.3807,3.3807,3.3807,3.3807,3.3807,3.3807,3.3807,3.3807,3.3807,3.3807,3.3807,3.3807,3.3807,0.0,0.0,0.0,0.0,1.3898,0.0,1.3937,1.4902,1.5856,1.5844,1.6534,1.7162,1.7162,1.7238,1.7283,1.7162,1.8008,1.9001,1.9877,2.0683,2.1175,2.1175,2.2175,2.2875,2.2875,2.3334,2.3595,2.3595,2.3595,2.3595,2.3595,2.3595,2.4032,2.5012,2.5051,2.5524,2.6539,2.6539,2.6624,2.6691,2.6691,2.6691,2.6691,2.6691,2.6776,2.6945,2.7554,2.7909,2.8095,2.8721,2.9144,2.9482,3.0074,3.0853,3.1682,3.2287,3.3057,3.3807,3.3807,3.3807,3.3807,3.3807,3.3807,3.3807,3.3807,3.3807,3.3807,3.3807,3.3807,3.3807,3.3807,3.3807,3.3807,3.3807,3.3807,3.3807,3.3807,3.3807,3.3807,3.3807,3.3807,3.3807,3.3807,3.3807,3.3807,3.3807,3.3807,3.3807,3.3807,3.3807,3.3807,3.3807,3.3807,3.3807,3.3807,3.3807,3.3807,3.3807,3.3807,3.3807,3.3807,3.3807,3.3807,3.3807,3.3807,3.3807,3.3807,3.3807,3.3807,3.3807,3.3807,3.3807,0.0,0.0,0.0,1.3709,1.3848,0.0,0.0,1.467,1.5041,1.5538,1.5738,1.5917,1.6361,1.6291,1.6238,1.6479,1.7476,1.8191,1.8166,1.9684,2.0795,2.0795,2.1643,2.2193,2.2193,2.2469,2.2801,2.3143,2.3421,2.3595,2.3595,2.3595,2.3948,2.4792,2.5067,2.5561,2.6332,2.6573,2.6691,2.6691,2.6691,2.6691,2.6691,2.6691,2.6691,2.6708,2.7097,2.7249,2.7283,2.7689,2.7964,2.8237,2.9202,3.03,3.1448,3.1824,3.2763,3.3807,3.3807,3.3807,3.3807,3.3807,3.3807,3.3807,3.3807,3.3807,3.3807,3.3807,3.3807,3.3807,3.3807,3.3807,3.3807,3.3807,3.3807,3.3807,3.3807,3.3807,3.3807,3.3807,3.3807,3.3807,3.3807,3.3807,3.3807,3.3807,3.3807,3.3807,3.3807,3.3807,3.3807,3.3807,3.3807,3.3807,3.3807,3.3807,3.3807,3.3807,3.3807,3.3807,3.3807,3.3807,3.3807,3.3807,3.3807,3.3807,3.3807,3.3807,3.3807,3.3807,3.3807,3.3807,0.0,0.0,0.0,0.0,0.0,1.3937,0.0,0.0,0.0,1.5417,1.5072,1.4778,1.5407,1.5247,1.5187,1.5662,1.6691,1.7147,1.6333,1.8364,1.9991,1.9991,2.0879,2.1424,2.1239,2.1398,2.1879,2.2815,2.3097,2.334,2.3595,2.3595,2.3837,2.4389,2.4934,2.5465,2.5997,2.6487,2.6691,2.6691,2.6691,2.6691,2.6691,2.6691,2.6691,2.6691,2.6691,2.6691,2.6691,2.6774,2.7004,2.7411,2.8476,2.9762,3.108,3.14,3.239,3.3587,3.3752,3.3807,3.3807,3.3807,3.3807,3.3807,3.3807,3.3807,3.3807,3.3807,3.3807,3.3807,3.3807,3.3807,3.3807,3.3807,3.3807,3.3807,3.3807,3.3807,3.3807,3.3807,3.3807,3.3807,3.3807,3.3807,3.3807,3.3807,3.3807,3.3807,3.3807,3.3807,3.3807,3.3807,3.3807,3.3807,3.3807,3.3807,3.3807,3.3807,3.3807,3.3807,3.3807,3.3807,3.3807,3.3807,3.3807,3.3807,3.3807,3.3807,3.3807,3.3807,3.3807,3.3807,0.0,0.0,0.0,0.0,1.4418,1.496,1.324,0.0,1.3902,1.3118,0.0,1.2681,1.2366,0.0,0.0,1.2889,1.3864,1.4675,1.5026,1.6204,1.6973,1.6973,1.9308,2.0518,1.9501,2.0283,2.1584,2.3375,2.2506,2.2413,2.3535,2.3595,2.3837,2.4389,2.4934,2.5465,2.5997,2.6487,2.6691,2.6691,2.6691,2.6691,2.6691,2.6691,2.6691,2.6691,2.6691,2.6691,2.6725,2.7083,2.7272,2.739,2.8142,2.9026,2.9971,3.1412,3.2264,3.2852,3.355,3.3807,3.3807,3.3807,3.3807,3.3807,3.3807,3.3807,3.3807,3.3807,3.3807,3.3807,3.3807,3.3807,3.3807,3.3807,3.3807,3.3807,3.3807,3.3807,3.3807,3.3807,3.3807,3.3807,3.3807,3.3807,3.3807,3.3807,3.3807,3.3807,3.3807,3.3807,3.3807,3.3807,3.3807,3.3807,3.3807,3.3807,3.3807,3.3807,3.3807,3.3807,3.3807,3.3807,3.3807,3.3807,3.3807,3.3807,3.3807,3.3807,3.3807,3.3807,3.3807,3.3807,0.0,0.0,0.0,0.0,0.0,0.0,1.3249,1.2619,1.2238,1.2052,0.0,0.0,0.0,0.0,0.0,0.0,1.3238,1.3973,1.3545,1.5243,1.6522,1.6522,1.7549,1.8494,1.9059,2.0447,2.1764,2.2965,2.2931,2.3026,2.3565,2.3595,2.3724,2.3921,2.4752,2.5297,2.5524,2.6315,2.6691,2.6691,2.6691,2.6691,2.6691,2.6691,2.6691,2.6691,2.6691,2.6691,2.6725,2.7147,2.7439,2.7683,2.8187,2.8889,2.9746,3.0938,3.1901,3.2724,3.3532,3.3807,3.3807,3.3807,3.3807,3.3807,3.3807,3.3807,3.3807,3.3807,3.3807,3.3807,3.3807,3.3807,3.3807,3.3807,3.3807,3.3807,3.3807,3.3807,3.3807,3.3807,3.3807,3.3807,3.3807,3.3807,3.3807,3.3807,3.3807,3.3807,3.3807,3.3807,3.3807,3.3807,3.3807,3.3807,3.3807,3.3807,3.3807,3.3807,3.3807,3.3807,3.3807,3.3807,3.3807,3.3807,3.3807,3.3807,3.3807,3.3807,3.3807,3.3807,3.3807,3.3807,1.6459,0.0,1.6403,1.5047,1.4398,1.3891,1.3059,1.2121,1.1414,1.1481,1.1052,0.0,0.0,0.0,0.0,0.0,0.0,1.3062,1.2567,1.4167,1.5442,1.5577,1.5881,1.674,1.8504,1.9894,2.1139,2.2147,2.2758,2.3236,2.358,2.3595,2.3595,2.3595,2.4632,2.5221,2.5221,2.621,2.6691,2.6691,2.6691,2.6691,2.6691,2.6691,2.6691,2.6691,2.6691,2.6691,2.6758,2.7255,2.7636,2.7954,2.8386,2.8909,2.9569,3.064,3.1563,3.243,3.344,3.3807,3.3807,3.3807,3.3807,3.3807,3.3807,3.3807,3.3807,3.3807,3.3807,3.3807,3.3807,3.3807,3.3807,3.3807,3.3807,3.3807,3.3807,3.3807,3.3807,3.3807,3.3807,3.3807,3.3807,3.3807,3.3807,3.3807,3.3807,3.3807,3.3807,3.3807,3.3807,3.3807,3.3807,3.3807,3.3807,3.3807,3.3807,3.3807,3.3807,3.3807,3.3807,3.3807,3.3807,3.3807,3.3807,3.3807,3.3807,3.3807,3.3807,3.3807,3.3807,3.3807,1.7626,1.7338,1.686,1.4667,1.4098,1.3717,1.2196,1.2106,1.2102,1.12,1.1347,1.1406,1.0488,0.0,0.0,0.0,0.0,0.0,0.0,1.2556,1.2794,1.3263,1.4274,1.5632,1.7368,1.7936,1.8983,2.0915,2.1469,2.2293,2.3535,2.3595,2.3595,2.3595,2.4632,2.5221,2.5221,2.621,2.6691,2.6691,2.6691,2.6691,2.6691,2.6691,2.6691,2.6691,2.6691,2.6691,2.6758,2.756,2.7897,2.7982,2.87,2.9012,2.9214,3.0791,3.1403,3.1659,3.3238,3.3807,3.3807,3.3807,3.3807,3.3807,3.3807,3.3807,3.3807,3.3807,3.3807,3.3807,3.3807,3.3807,3.3807,3.3807,3.3807,3.3807,3.3807,3.3807,3.3807,3.3807,3.3807,3.3807,3.3807,3.3807,3.3807,3.3807,3.3807,3.3807,3.3807,3.3807,3.3807,3.3807,3.3807,3.3807,3.3807,3.3807,3.3807,3.3807,3.3807,3.3807,3.3807,3.3807,3.3807,3.3807,3.3807,3.3807,3.3807,3.3807,3.3807,3.3807,3.3807,3.3807,1.8028,1.8191,1.8019,1.6145,1.5459,1.4708,1.2753,1.2107,1.1665,1.074,1.0885,1.0974,1.04,0.0,0.0,0.0,0.0,0.0,0.0,1.209,1.2544,1.272,1.4014,1.5274,1.6291,1.8221,1.9866,2.0915,2.2236,2.3146,2.358,2.3595,2.3752,2.4116,2.4831,2.5373,2.5742,2.635,2.6691,2.6691,2.6691,2.6691,2.6691,2.6691,2.6691,2.6725,2.7004,2.7083,2.7147,2.7918,2.8237,2.829,2.8791,2.8994,2.92,3.0797,3.1384,3.1623,3.3238,3.3807,3.3807,3.3807,3.3807,3.3807,3.3807,3.3807,3.3807,3.3807,3.3807,3.3807,3.3807,3.3807,3.3807,3.3807,3.3807,3.3807,3.3807,3.3807,3.3807,3.3807,3.3807,3.3807,3.3807,3.3807,3.3807,3.3807,3.3807,3.3807,3.3807,3.3807,3.3807,3.3807,3.3807,3.3807,3.3807,3.3807,3.3807,3.3807,3.3807,3.3807,3.3807,3.3807,3.3807,3.3807,3.3807,3.3807,3.3807,3.3807,3.3807,3.3807,3.3807,3.3807,1.8543,1.8756,1.8668,1.72,1.6446,1.5568,1.3569,1.2814,1.2326,1.1577,1.1417,1.1562,1.1922,0.0,0.0,0.0,0.0,0.0,0.0,1.1726,1.2318,1.2461,1.3557,1.4624,1.5408,1.7499,1.9332,2.0597,2.2081,2.3116,2.358,2.3595,2.3752,2.4116,2.4816,2.5373,2.5689,2.6367,2.6691,2.6691,2.6691,2.6691,2.6691,2.6841,2.6906,2.6939,2.7317,2.75,2.756,2.8139,2.8394,2.8446,2.8839,2.8994,2.92,3.0797,3.1751,3.2394,3.344,3.3807,3.3807,3.3807,3.3807,3.3807,3.3807,3.3807,3.3807,3.3807,3.3807,3.3807,3.3807,3.3807,3.3807,3.3807,3.3807,3.3807,3.3807,3.3807,3.3807,3.3807,3.3807,3.3807,3.3807,3.3807,3.3807,3.3807,3.3807,3.3807,3.3807,3.3807,3.3807,3.3807,3.3807,3.3807,3.3807,3.3807,3.3807,3.3807,3.3807,3.3807,3.3807,3.3807,3.3807,3.3807,3.3807,3.3807,3.3807,3.3807,3.3807,3.3807,3.3807,3.3807]}]]